GEFSSE_prec_meanprecacc_006.txt.gz
Total_Precipitation_Accumulation
0.00 0.00 0.00 0.00 0.00 0.00 0.00 0.01 0.02 0.04 0.05 0.05 0.05 0.05 0.07 0.06 0.03 0.02 0.02 0.03 0.05 0.07 0.09 0.09 0.06 0.05 0.06 0.05 0.02 0.00 0.00 0.00 0.00 0.00 0.00 0.00 0.00 0.00 0.01 0.04 0.07 0.13 0.04
0.00 0.00 0.00 0.00 0.00 0.00 0.00 0.01 0.02 0.03 0.05 0.06 0.07 0.08 0.09 0.05 0.03 0.02 0.02 0.03 0.05 0.08 0.09 0.09 0.07 0.06 0.07 0.04 0.01 0.00 0.00 0.00 0.00 0.00 0.00 0.00 0.02 0.00 0.00 0.01 0.05 0.17 0.09
0.00 0.00 0.00 0.00 0.00 0.00 0.01 0.02 0.02 0.02 0.03 0.05 0.05 0.06 0.04 0.03 0.02 0.02 0.02 0.03 0.04 0.05 0.05 0.03 0.02 0.02 0.02 0.01 0.00 0.00 0.00 0.00 0.00 0.00 0.01 0.04 0.10 0.01 0.00 0.00 0.02 0.05 0.07
0.00 0.00 0.00 0.00 0.00 0.00 0.00 0.02 0.04 0.03 0.02 0.03 0.03 0.03 0.02 0.02 0.02 0.02 0.03 0.04 0.04 0.03 0.02 0.01 0.01 0.01 0.01 0.00 0.00 0.00 0.00 0.00 0.00 0.00 0.02 0.04 0.12 0.05 0.02 0.01 0.01 0.01 0.04
0.00 0.00 0.01 0.01 0.01 0.00 0.00 0.01 0.02 0.03 0.03 0.02 0.02 0.02 0.03 0.03 0.03 0.02 0.03 0.04 0.03 0.03 0.04 0.04 0.03 0.01 0.00 0.00 0.00 0.00 0.00 0.00 0.00 0.01 0.04 0.04 0.09 0.08 0.04 0.03 0.04 0.02 0.03
0.00 0.00 0.00 0.01 0.01 0.01 0.01 0.02 0.02 0.02 0.03 0.03 0.03 0.03 0.04 0.04 0.04 0.02 0.02 0.03 0.03 0.03 0.05 0.08 0.06 0.02 0.01 0.00 0.00 0.00 0.00 0.00 0.01 0.04 0.04 0.05 0.05 0.02 0.02 0.03 0.02 0.01 0.01
0.00 0.00 0.00 0.01 0.01 0.02 0.02 0.04 0.04 0.02 0.03 0.04 0.03 0.03 0.02 0.04 0.04 0.04 0.03 0.01 0.02 0.05 0.08 0.07 0.03 0.01 0.00 0.00 0.01 0.01 0.01 0.00 0.01 0.03 0.03 0.08 0.12 0.03 0.01 0.02 0.03 0.01 0.00
0.00 0.00 0.00 0.00 0.01 0.03 0.04 0.04 0.06 0.05 0.04 0.04 0.03 0.03 0.04 0.04 0.04 0.06 0.03 0.01 0.01 0.05 0.07 0.03 0.00 0.00 0.00 0.00 0.01 0.01 0.01 0.00 0.00 0.01 0.02 0.12 0.16 0.07 0.03 0.02 0.03 0.01 0.00
0.00 0.00 0.00 0.00 0.01 0.02 0.03 0.02 0.04 0.06 0.04 0.03 0.03 0.06 0.08 0.10 0.10 0.10 0.06 0.04 0.04 0.05 0.03 0.00 0.00 0.00 0.00 0.00 0.00 0.00 0.00 0.00 0.01 0.01 0.02 0.09 0.15 0.06 0.01 0.01 0.00 0.00 0.00
0.00 0.00 0.00 0.00 0.02 0.02 0.01 0.01 0.02 0.03 0.04 0.02 0.03 0.06 0.09 0.10 0.09 0.08 0.05 0.03 0.02 0.02 0.01 0.00 0.00 0.00 0.00 0.00 0.00 0.00 0.00 0.00 0.00 0.00 0.01 0.02 0.03 0.01 0.00 0.00 0.00 0.00 0.00
0.00 0.00 0.00 0.00 0.04 0.04 0.01 0.00 0.00 0.00 0.01 0.01 0.02 0.03 0.05 0.15 0.18 0.14 0.08 0.03 0.01 0.01 0.01 0.00 0.00 0.00 0.00 0.00 0.00 0.00 0.00 0.00 0.00 0.00 0.00 0.00 0.00 0.00 0.00 0.00 0.00 0.00 0.00
0.00 0.00 0.00 0.00 0.01 0.04 0.01 0.00 0.00 0.00 0.01 0.02 0.05 0.04 0.11 0.19 0.18 0.11 0.05 0.03 0.02 0.01 0.00 0.00 0.00 0.00 0.00 0.00 0.00 0.00 0.00 0.00 0.00 0.00 0.00 0.00 0.00 0.00 0.00 0.00 0.00 0.00 0.00
0.00 0.00 0.00 0.00 0.01 0.05 0.01 0.00 0.00 0.01 0.03 0.05 0.07 0.08 0.11 0.09 0.07 0.06 0.05 0.04 0.02 0.01 0.00 0.00 0.00 0.00 0.00 0.00 0.00 0.00 0.00 0.00 0.00 0.00 0.00 0.00 0.00 0.00 0.00 0.00 0.00 0.00 0.00
0.00 0.00 0.00 0.00 0.00 0.00 0.00 0.00 0.00 0.00 0.01 0.05 0.07 0.03 0.05 0.06 0.05 0.02 0.04 0.03 0.01 0.01 0.00 0.00 0.00 0.00 0.00 0.00 0.00 0.00 0.00 0.00 0.00 0.00 0.00 0.00 0.00 0.00 0.00 0.00 0.00 0.00 0.00
0.00 0.00 0.00 0.00 0.00 0.00 0.00 0.00 0.00 0.00 0.00 0.01 0.01 0.01 0.01 0.05 0.05 0.02 0.01 0.00 0.00 0.00 0.00 0.00 0.00 0.00 0.00 0.00 0.00 0.00 0.00 0.00 0.00 0.00 0.00 0.00 0.00 0.00 0.00 0.00 0.00 0.00 0.00
0.00 0.00 0.00 0.00 0.00 0.00 0.00 0.00 0.00 0.00 0.00 0.00 0.00 0.01 0.02 0.06 0.08 0.06 0.04 0.04 0.02 0.00 0.00 0.00 0.00 0.00 0.00 0.00 0.00 0.00 0.00 0.00 0.00 0.00 0.00 0.00 0.00 0.00 0.00 0.00 0.00 0.00 0.00
0.00 0.00 0.00 0.00 0.00 0.00 0.00 0.00 0.00 0.00 0.00 0.00 0.01 0.02 0.03 0.04 0.07 0.07 0.08 0.07 0.02 0.00 0.00 0.00 0.00 0.00 0.00 0.00 0.00 0.00 0.00 0.00 0.00 0.00 0.00 0.00 0.01 0.01 0.00 0.00 0.00 0.00 0.00
0.00 0.00 0.00 0.00 0.00 0.00 0.00 0.00 0.01 0.02 0.02 0.02 0.01 0.01 0.01 0.01 0.01 0.01 0.03 0.03 0.01 0.00 0.00 0.00 0.00 0.00 0.00 0.00 0.00 0.00 0.00 0.00 0.00 0.00 0.00 0.00 0.00 0.00 0.00 0.00 0.00 0.00 0.01
0.00 0.00 0.00 0.00 0.00 0.00 0.01 0.03 0.04 0.02 0.02 0.01 0.01 0.01 0.00 0.00 0.00 0.00 0.01 0.01 0.00 0.00 0.00 0.00 0.00 0.00 0.00 0.00 0.00 0.00 0.00 0.00 0.00 0.00 0.00 0.00 0.00 0.00 0.00 0.00 0.00 0.01 0.01
0.00 0.00 0.00 0.00 0.00 0.00 0.01 0.01 0.01 0.01 0.01 0.00 0.00 0.00 0.00 0.00 0.00 0.00 0.00 0.00 0.00 0.00 0.00 0.00 0.00 0.00 0.00 0.00 0.00 0.00 0.00 0.00 0.00 0.00 0.00 0.00 0.00 0.00 0.00 0.00 0.00 0.01 0.02
0.00 0.00 0.00 0.00 0.00 0.00 0.01 0.02 0.01 0.00 0.00 0.00 0.00 0.00 0.00 0.00 0.00 0.00 0.00 0.00 0.00 0.00 0.00 0.00 0.00 0.00 0.00 0.00 0.00 0.00 0.00 0.00 0.00 0.00 0.00 0.00 0.00 0.00 0.00 0.00 0.00 0.00 0.01
0.00 0.00 0.00 0.00 0.00 0.01 0.02 0.02 0.01 0.00 0.00 0.00 0.00 0.00 0.00 0.00 0.00 0.00 0.00 0.00 0.00 0.00 0.00 0.00 0.00 0.00 0.00 0.00 0.00 0.00 0.00 0.00 0.00 0.00 0.00 0.00 0.00 0.00 0.00 0.00 0.00 0.00 0.00
0.00 0.01 0.01 0.01 0.02 0.03 0.02 0.01 0.01 0.01 0.00 0.00 0.00 0.00 0.00 0.00 0.00 0.00 0.00 0.00 0.00 0.00 0.00 0.00 0.00 0.00 0.00 0.00 0.00 0.00 0.00 0.00 0.00 0.00 0.00 0.00 0.00 0.00 0.00 0.00 0.00 0.00 0.00
0.01 0.01 0.03 0.04 0.04 0.03 0.02 0.02 0.02 0.02 0.01 0.02 0.01 0.00 0.00 0.00 0.00 0.00 0.00 0.00 0.00 0.00 0.00 0.00 0.00 0.00 0.00 0.00 0.00 0.00 0.00 0.00 0.00 0.00 0.00 0.00 0.00 0.00 0.00 0.00 0.00 0.00 0.00
0.06 0.03 0.04 0.04 0.04 0.04 0.05 0.03 0.03 0.04 0.04 0.03 0.01 0.00 0.00 0.00 0.00 0.00 0.00 0.00 0.00 0.00 0.00 0.00 0.00 0.00 0.00 0.00 0.00 0.00 0.00 0.00 0.00 0.00 0.00 0.00 0.00 0.00 0.00 0.00 0.00 0.00 0.00
0.11 0.05 0.05 0.06 0.07 0.08 0.09 0.08 0.07 0.07 0.04 0.02 0.01 0.00 0.00 0.00 0.00 0.00 0.00 0.00 0.00 0.00 0.00 0.00 0.00 0.00 0.00 0.00 0.00 0.00 0.00 0.00 0.00 0.00 0.00 0.00 0.00 0.00 0.00 0.00 0.00 0.00 0.00

GEFSSE_prec_meanprecacc_012.txt.gz
Total_Precipitation_Accumulation
0.00 0.00 0.00 0.00 0.00 0.00 0.00 0.01 0.03 0.05 0.05 0.05 0.06 0.06 0.07 0.06 0.03 0.02 0.02 0.03 0.05 0.08 0.10 0.09 0.06 0.05 0.06 0.05 0.02 0.00 0.00 0.00 0.00 0.00 0.00 0.00 0.00 0.00 0.01 0.04 0.07 0.13 0.05
0.00 0.00 0.00 0.00 0.00 0.00 0.00 0.01 0.02 0.03 0.05 0.06 0.07 0.09 0.09 0.05 0.03 0.02 0.02 0.03 0.05 0.08 0.09 0.09 0.07 0.06 0.07 0.04 0.01 0.00 0.00 0.00 0.00 0.00 0.00 0.01 0.02 0.00 0.01 0.01 0.05 0.17 0.11
0.00 0.00 0.00 0.00 0.00 0.00 0.01 0.02 0.02 0.02 0.03 0.05 0.06 0.06 0.04 0.03 0.02 0.02 0.02 0.03 0.04 0.05 0.05 0.03 0.02 0.02 0.02 0.01 0.00 0.00 0.00 0.00 0.00 0.00 0.01 0.06 0.11 0.01 0.01 0.01 0.02 0.06 0.08
0.00 0.00 0.00 0.00 0.00 0.00 0.00 0.02 0.04 0.03 0.02 0.03 0.04 0.03 0.02 0.02 0.02 0.02 0.03 0.04 0.04 0.03 0.02 0.01 0.01 0.01 0.01 0.00 0.00 0.00 0.00 0.00 0.00 0.01 0.05 0.09 0.15 0.09 0.05 0.04 0.02 0.02 0.04
0.00 0.00 0.01 0.01 0.01 0.00 0.00 0.01 0.02 0.03 0.03 0.02 0.02 0.02 0.03 0.03 0.03 0.02 0.03 0.04 0.04 0.04 0.05 0.05 0.04 0.01 0.00 0.00 0.00 0.00 0.00 0.00 0.01 0.04 0.11 0.13 0.17 0.16 0.10 0.09 0.09 0.03 0.03
0.00 0.00 0.00 0.01 0.01 0.01 0.01 0.02 0.02 0.02 0.03 0.03 0.03 0.03 0.04 0.04 0.04 0.02 0.03 0.03 0.04 0.05 0.07 0.10 0.07 0.02 0.01 0.00 0.00 0.00 0.00 0.00 0.03 0.12 0.16 0.23 0.21 0.13 0.09 0.09 0.08 0.03 0.01
0.00 0.00 0.00 0.01 0.01 0.02 0.02 0.04 0.04 0.02 0.03 0.04 0.03 0.03 0.03 0.04 0.04 0.04 0.03 0.02 0.03 0.06 0.09 0.07 0.03 0.01 0.00 0.00 0.01 0.01 0.01 0.00 0.02 0.08 0.14 0.29 0.29 0.15 0.09 0.07 0.06 0.03 0.00
0.00 0.00 0.00 0.00 0.01 0.03 0.04 0.04 0.07 0.05 0.04 0.04 0.03 0.03 0.04 0.04 0.05 0.06 0.04 0.02 0.03 0.08 0.08 0.04 0.01 0.00 0.00 0.00 0.01 0.01 0.01 0.00 0.00 0.04 0.08 0.19 0.22 0.14 0.08 0.05 0.04 0.02 0.00
0.00 0.00 0.00 0.00 0.01 0.02 0.03 0.02 0.04 0.06 0.04 0.03 0.03 0.06 0.09 0.10 0.11 0.11 0.07 0.05 0.07 0.08 0.05 0.01 0.00 0.00 0.00 0.00 0.00 0.00 0.00 0.00 0.01 0.03 0.05 0.11 0.17 0.08 0.03 0.01 0.01 0.00 0.00
0.00 0.00 0.00 0.00 0.02 0.02 0.01 0.01 0.02 0.03 0.04 0.03 0.03 0.07 0.10 0.10 0.09 0.08 0.06 0.05 0.05 0.05 0.03 0.01 0.00 0.00 0.00 0.00 0.00 0.00 0.00 0.00 0.00 0.01 0.01 0.02 0.03 0.01 0.00 0.00 0.00 0.00 0.00
0.00 0.00 0.00 0.00 0.04 0.04 0.01 0.00 0.00 0.00 0.01 0.01 0.02 0.04 0.05 0.15 0.18 0.14 0.08 0.06 0.04 0.03 0.02 0.00 0.00 0.00 0.00 0.00 0.00 0.00 0.00 0.00 0.00 0.00 0.00 0.00 0.00 0.00 0.00 0.00 0.00 0.00 0.00
0.00 0.00 0.00 0.00 0.01 0.06 0.02 0.00 0.00 0.00 0.01 0.02 0.06 0.04 0.11 0.19 0.18 0.12 0.06 0.04 0.03 0.02 0.01 0.00 0.00 0.00 0.00 0.00 0.00 0.00 0.00 0.00 0.00 0.00 0.00 0.00 0.00 0.00 0.00 0.00 0.00 0.00 0.00
0.00 0.00 0.00 0.01 0.03 0.13 0.03 0.00 0.01 0.01 0.03 0.06 0.08 0.08 0.11 0.10 0.08 0.06 0.06 0.05 0.04 0.02 0.01 0.00 0.00 0.00 0.00 0.00 0.00 0.00 0.00 0.00 0.00 0.00 0.00 0.00 0.00 0.00 0.00 0.00 0.00 0.00 0.00
0.00 0.00 0.00 0.00 0.01 0.02 0.01 0.01 0.01 0.01 0.02 0.05 0.07 0.04 0.06 0.08 0.08 0.06 0.08 0.07 0.06 0.03 0.01 0.01 0.00 0.00 0.00 0.00 0.00 0.00 0.00 0.00 0.00 0.00 0.00 0.00 0.00 0.01 0.00 0.00 0.00 0.00 0.00
0.01 0.00 0.00 0.00 0.00 0.00 0.01 0.01 0.01 0.01 0.01 0.01 0.02 0.01 0.02 0.06 0.08 0.06 0.06 0.04 0.04 0.03 0.02 0.01 0.00 0.00 0.00 0.00 0.00 0.00 0.00 0.00 0.00 0.00 0.00 0.00 0.01 0.01 0.01 0.01 0.01 0.01 0.01
0.01 0.00 0.00 0.00 0.00 0.00 0.00 0.00 0.00 0.01 0.00 0.00 0.00 0.01 0.02 0.06 0.09 0.07 0.05 0.05 0.03 0.03 0.02 0.02 0.01 0.00 0.00 0.00 0.00 0.00 0.00 0.00 0.00 0.00 0.00 0.01 0.01 0.01 0.01 0.01 0.01 0.01 0.01
0.01 0.00 0.00 0.00 0.00 0.00 0.00 0.00 0.00 0.00 0.00 0.01 0.01 0.02 0.03 0.05 0.07 0.07 0.08 0.07 0.03 0.01 0.02 0.02 0.01 0.00 0.00 0.00 0.00 0.00 0.00 0.00 0.00 0.00 0.00 0.00 0.01 0.01 0.01 0.01 0.01 0.01 0.01
0.00 0.00 0.00 0.00 0.00 0.00 0.00 0.00 0.01 0.02 0.02 0.02 0.01 0.01 0.01 0.01 0.01 0.01 0.04 0.04 0.01 0.00 0.00 0.00 0.00 0.00 0.00 0.00 0.00 0.00 0.00 0.00 0.00 0.00 0.00 0.00 0.00 0.00 0.01 0.01 0.01 0.01 0.01
0.00 0.00 0.00 0.00 0.00 0.00 0.01 0.03 0.04 0.02 0.02 0.01 0.01 0.01 0.00 0.00 0.00 0.01 0.01 0.01 0.00 0.00 0.00 0.00 0.00 0.00 0.00 0.00 0.00 0.00 0.00 0.00 0.00 0.00 0.00 0.00 0.00 0.00 0.00 0.00 0.01 0.01 0.01
0.00 0.00 0.00 0.00 0.00 0.00 0.01 0.01 0.01 0.01 0.01 0.00 0.01 0.01 0.01 0.01 0.00 0.00 0.00 0.00 0.00 0.00 0.00 0.00 0.00 0.00 0.00 0.00 0.00 0.00 0.00 0.00 0.00 0.00 0.00 0.00 0.00 0.00 0.00 0.00 0.00 0.01 0.02
0.01 0.01 0.00 0.00 0.01 0.01 0.02 0.02 0.01 0.01 0.01 0.02 0.04 0.05 0.04 0.03 0.02 0.01 0.01 0.00 0.00 0.00 0.00 0.00 0.00 0.00 0.00 0.00 0.00 0.00 0.00 0.00 0.00 0.00 0.00 0.00 0.00 0.00 0.00 0.00 0.00 0.00 0.01
0.02 0.02 0.01 0.01 0.04 0.06 0.05 0.03 0.02 0.02 0.06 0.12 0.16 0.14 0.10 0.09 0.08 0.06 0.04 0.02 0.01 0.00 0.00 0.00 0.00 0.00 0.00 0.00 0.00 0.00 0.00 0.00 0.00 0.00 0.00 0.00 0.00 0.00 0.00 0.00 0.00 0.00 0.00
0.03 0.04 0.03 0.05 0.11 0.15 0.10 0.06 0.07 0.11 0.17 0.22 0.23 0.23 0.20 0.16 0.11 0.06 0.03 0.02 0.01 0.00 0.00 0.00 0.00 0.00 0.00 0.00 0.00 0.00 0.00 0.00 0.00 0.00 0.00 0.00 0.00 0.00 0.00 0.00 0.00 0.00 0.00
0.05 0.05 0.06 0.10 0.15 0.18 0.15 0.13 0.20 0.24 0.26 0.31 0.31 0.28 0.20 0.12 0.07 0.03 0.01 0.00 0.00 0.00 0.00 0.00 0.00 0.00 0.00 0.00 0.00 0.00 0.00 0.00 0.00 0.00 0.00 0.00 0.00 0.00 0.00 0.00 0.00 0.00 0.00
0.12 0.08 0.07 0.11 0.17 0.22 0.26 0.28 0.30 0.36 0.41 0.41 0.35 0.24 0.13 0.06 0.03 0.01 0.00 0.00 0.00 0.00 0.00 0.00 0.00 0.00 0.00 0.00 0.00 0.00 0.00 0.00 0.00 0.00 0.00 0.00 0.00 0.00 0.00 0.00 0.00 0.00 0.00
0.15 0.08 0.09 0.14 0.21 0.25 0.28 0.32 0.39 0.45 0.43 0.38 0.28 0.15 0.07 0.03 0.01 0.00 0.00 0.00 0.00 0.00 0.00 0.00 0.00 0.00 0.00 0.00 0.00 0.00 0.00 0.00 0.00 0.00 0.00 0.00 0.00 0.00 0.00 0.00 0.00 0.00 0.00

GEFSSE_prec_meanprecacc_018.txt.gz
Total_Precipitation_Accumulation
0.00 0.00 0.00 0.01 0.02 0.01 0.00 0.01 0.03 0.05 0.05 0.05 0.06 0.06 0.07 0.06 0.03 0.02 0.03 0.04 0.06 0.10 0.12 0.12 0.10 0.08 0.07 0.05 0.02 0.00 0.00 0.00 0.00 0.00 0.00 0.00 0.00 0.01 0.04 0.07 0.09 0.14 0.06
0.00 0.00 0.00 0.00 0.01 0.01 0.01 0.01 0.02 0.03 0.05 0.06 0.07 0.09 0.09 0.05 0.03 0.03 0.03 0.04 0.07 0.10 0.11 0.11 0.09 0.07 0.07 0.04 0.01 0.00 0.00 0.00 0.00 0.00 0.00 0.01 0.02 0.01 0.03 0.03 0.06 0.19 0.13
0.00 0.00 0.00 0.00 0.00 0.00 0.01 0.02 0.02 0.02 0.03 0.05 0.06 0.06 0.05 0.03 0.02 0.03 0.03 0.04 0.06 0.07 0.07 0.04 0.03 0.02 0.02 0.01 0.00 0.00 0.00 0.00 0.00 0.00 0.02 0.06 0.12 0.02 0.05 0.04 0.03 0.07 0.10
0.00 0.00 0.00 0.00 0.01 0.01 0.01 0.03 0.04 0.03 0.02 0.03 0.04 0.03 0.02 0.02 0.02 0.02 0.03 0.05 0.05 0.05 0.03 0.01 0.01 0.01 0.01 0.00 0.00 0.00 0.00 0.00 0.00 0.02 0.08 0.10 0.15 0.11 0.11 0.10 0.07 0.04 0.05
0.00 0.00 0.01 0.01 0.01 0.02 0.01 0.01 0.02 0.03 0.03 0.03 0.03 0.02 0.03 0.03 0.03 0.02 0.03 0.04 0.04 0.05 0.06 0.06 0.04 0.01 0.00 0.00 0.00 0.00 0.00 0.00 0.01 0.06 0.14 0.16 0.18 0.19 0.15 0.14 0.14 0.08 0.06
0.00 0.00 0.00 0.01 0.01 0.02 0.02 0.02 0.02 0.02 0.03 0.03 0.03 0.03 0.04 0.04 0.04 0.02 0.03 0.04 0.04 0.06 0.08 0.11 0.08 0.02 0.01 0.00 0.00 0.00 0.00 0.01 0.04 0.13 0.18 0.26 0.22 0.16 0.12 0.13 0.13 0.09 0.05
0.00 0.00 0.00 0.01 0.02 0.02 0.02 0.04 0.04 0.02 0.03 0.04 0.03 0.03 0.03 0.04 0.04 0.04 0.04 0.02 0.04 0.07 0.10 0.08 0.04 0.01 0.00 0.00 0.01 0.01 0.01 0.01 0.02 0.08 0.16 0.31 0.30 0.16 0.12 0.11 0.11 0.08 0.04
0.00 0.00 0.00 0.01 0.01 0.03 0.04 0.04 0.07 0.05 0.04 0.04 0.03 0.03 0.04 0.04 0.05 0.06 0.04 0.02 0.04 0.09 0.10 0.04 0.01 0.00 0.00 0.00 0.01 0.01 0.01 0.01 0.01 0.04 0.09 0.20 0.22 0.14 0.09 0.06 0.06 0.05 0.03
0.00 0.00 0.00 0.00 0.01 0.02 0.03 0.02 0.04 0.06 0.04 0.03 0.03 0.06 0.09 0.10 0.11 0.11 0.08 0.06 0.08 0.10 0.06 0.01 0.00 0.00 0.00 0.00 0.00 0.00 0.00 0.00 0.01 0.03 0.06 0.11 0.17 0.08 0.03 0.02 0.01 0.01 0.01
0.00 0.00 0.00 0.00 0.02 0.02 0.01 0.01 0.02 0.03 0.04 0.03 0.03 0.07 0.10 0.10 0.10 0.09 0.06 0.06 0.06 0.06 0.04 0.01 0.01 0.00 0.00 0.00 0.00 0.00 0.00 0.00 0.00 0.01 0.01 0.02 0.03 0.01 0.00 0.00 0.00 0.00 0.00
0.00 0.00 0.00 0.00 0.04 0.04 0.01 0.00 0.00 0.00 0.01 0.01 0.02 0.04 0.05 0.15 0.18 0.15 0.08 0.06 0.05 0.04 0.02 0.01 0.00 0.00 0.00 0.00 0.00 0.00 0.00 0.00 0.00 0.00 0.00 0.00 0.00 0.00 0.00 0.00 0.00 0.00 0.00
0.00 0.00 0.00 0.00 0.01 0.06 0.02 0.00 0.00 0.00 0.01 0.02 0.06 0.04 0.11 0.19 0.18 0.12 0.06 0.05 0.04 0.03 0.01 0.00 0.00 0.00 0.00 0.00 0.00 0.00 0.00 0.00 0.00 0.00 0.00 0.00 0.00 0.00 0.00 0.00 0.00 0.00 0.00
0.00 0.00 0.00 0.01 0.03 0.13 0.03 0.00 0.01 0.01 0.03 0.06 0.08 0.08 0.11 0.10 0.08 0.06 0.06 0.05 0.04 0.02 0.01 0.00 0.00 0.00 0.00 0.00 0.00 0.00 0.00 0.00 0.00 0.00 0.00 0.00 0.00 0.01 0.00 0.00 0.00 0.00 0.00
0.00 0.00 0.00 0.00 0.01 0.02 0.01 0.01 0.01 0.01 0.02 0.05 0.07 0.04 0.06 0.08 0.08 0.06 0.08 0.07 0.06 0.03 0.01 0.01 0.00 0.00 0.00 0.00 0.00 0.00 0.00 0.00 0.00 0.00 0.00 0.00 0.01 0.02 0.02 0.02 0.01 0.01 0.02
0.01 0.00 0.00 0.00 0.00 0.00 0.01 0.01 0.01 0.01 0.01 0.01 0.02 0.01 0.02 0.06 0.08 0.06 0.06 0.04 0.04 0.03 0.02 0.01 0.00 0.00 0.00 0.00 0.00 0.00 0.00 0.00 0.00 0.00 0.00 0.01 0.02 0.03 0.04 0.04 0.03 0.03 0.04
0.01 0.00 0.00 0.00 0.00 0.00 0.00 0.00 0.00 0.01 0.00 0.00 0.00 0.01 0.02 0.06 0.09 0.07 0.05 0.05 0.03 0.03 0.02 0.02 0.01 0.00 0.00 0.00 0.00 0.00 0.00 0.00 0.00 0.00 0.00 0.01 0.02 0.02 0.02 0.03 0.03 0.04 0.04
0.01 0.00 0.00 0.00 0.00 0.00 0.00 0.00 0.00 0.00 0.00 0.01 0.01 0.02 0.03 0.05 0.07 0.07 0.09 0.08 0.04 0.02 0.03 0.02 0.01 0.00 0.00 0.00 0.00 0.00 0.00 0.00 0.00 0.00 0.00 0.00 0.01 0.01 0.01 0.02 0.02 0.02 0.02
0.00 0.00 0.00 0.00 0.00 0.00 0.00 0.00 0.01 0.02 0.02 0.02 0.02 0.01 0.01 0.01 0.01 0.02 0.06 0.07 0.05 0.04 0.03 0.03 0.02 0.02 0.01 0.01 0.01 0.00 0.00 0.00 0.00 0.00 0.00 0.00 0.00 0.00 0.01 0.01 0.01 0.01 0.02
0.00 0.00 0.00 0.00 0.01 0.01 0.01 0.03 0.04 0.02 0.03 0.02 0.03 0.02 0.01 0.01 0.02 0.04 0.06 0.08 0.08 0.09 0.09 0.08 0.07 0.05 0.04 0.03 0.01 0.01 0.00 0.00 0.00 0.00 0.00 0.00 0.00 0.00 0.00 0.00 0.01 0.02 0.02
0.01 0.01 0.00 0.01 0.02 0.02 0.02 0.02 0.04 0.05 0.07 0.06 0.06 0.06 0.07 0.09 0.12 0.13 0.14 0.15 0.15 0.13 0.12 0.10 0.08 0.06 0.04 0.02 0.01 0.00 0.00 0.00 0.00 0.00 0.00 0.00 0.00 0.00 0.00 0.00 0.00 0.01 0.02
0.01 0.01 0.01 0.01 0.03 0.04 0.07 0.11 0.15 0.18 0.19 0.18 0.19 0.22 0.28 0.35 0.36 0.33 0.30 0.27 0.23 0.18 0.14 0.10 0.06 0.03 0.02 0.01 0.00 0.00 0.00 0.00 0.00 0.00 0.00 0.00 0.00 0.00 0.00 0.00 0.00 0.00 0.01
0.03 0.03 0.02 0.03 0.10 0.19 0.26 0.34 0.39 0.40 0.39 0.42 0.47 0.53 0.58 0.60 0.57 0.52 0.47 0.40 0.31 0.22 0.14 0.08 0.04 0.02 0.00 0.00 0.00 0.00 0.00 0.00 0.00 0.00 0.00 0.00 0.00 0.00 0.00 0.00 0.00 0.00 0.00
0.04 0.06 0.06 0.10 0.24 0.44 0.54 0.63 0.67 0.65 0.64 0.64 0.66 0.71 0.76 0.75 0.69 0.61 0.49 0.35 0.21 0.12 0.07 0.04 0.01 0.00 0.00 0.00 0.00 0.00 0.00 0.00 0.00 0.00 0.00 0.00 0.00 0.00 0.00 0.00 0.00 0.00 0.00
0.06 0.08 0.10 0.18 0.39 0.64 0.75 0.86 0.97 0.94 0.88 0.90 0.89 0.89 0.82 0.72 0.61 0.45 0.27 0.15 0.08 0.05 0.04 0.02 0.00 0.00 0.00 0.00 0.00 0.00 0.00 0.00 0.00 0.00 0.00 0.00 0.00 0.00 0.00 0.00 0.00 0.00 0.00
0.15 0.12 0.12 0.25 0.52 0.79 0.99 1.12 1.16 1.19 1.18 1.10 0.99 0.88 0.71 0.53 0.34 0.18 0.10 0.06 0.04 0.02 0.01 0.00 0.00 0.00 0.00 0.00 0.00 0.00 0.00 0.00 0.00 0.00 0.00 0.00 0.00 0.00 0.00 0.00 0.00 0.00 0.00
0.19 0.13 0.18 0.37 0.70 0.98 1.14 1.22 1.26 1.23 1.10 0.97 0.79 0.56 0.38 0.25 0.15 0.08 0.03 0.01 0.01 0.00 0.00 0.00 0.00 0.00 0.00 0.00 0.00 0.00 0.00 0.00 0.00 0.00 0.00 0.00 0.00 0.00 0.00 0.00 0.00 0.00 0.00

GEFSSE_prec_meanprecacc_024.txt.gz
Total_Precipitation_Accumulation
0.00 0.00 0.00 0.01 0.03 0.02 0.02 0.03 0.06 0.09 0.08 0.07 0.07 0.08 0.10 0.09 0.06 0.05 0.05 0.06 0.09 0.13 0.15 0.15 0.11 0.08 0.07 0.05 0.02 0.00 0.00 0.00 0.00 0.00 0.00 0.01 0.01 0.03 0.07 0.09 0.10 0.15 0.06
0.00 0.00 0.00 0.00 0.01 0.02 0.03 0.04 0.05 0.07 0.08 0.07 0.08 0.10 0.10 0.07 0.04 0.04 0.04 0.05 0.08 0.12 0.13 0.12 0.10 0.07 0.07 0.04 0.01 0.00 0.00 0.00 0.00 0.00 0.00 0.01 0.02 0.02 0.05 0.06 0.08 0.21 0.14
0.00 0.00 0.00 0.00 0.01 0.01 0.02 0.05 0.05 0.04 0.05 0.05 0.06 0.06 0.05 0.03 0.03 0.03 0.03 0.05 0.07 0.08 0.08 0.05 0.03 0.02 0.02 0.01 0.00 0.00 0.00 0.00 0.00 0.01 0.03 0.06 0.12 0.03 0.07 0.06 0.04 0.08 0.11
0.00 0.00 0.00 0.00 0.01 0.01 0.01 0.03 0.06 0.05 0.03 0.03 0.04 0.03 0.02 0.02 0.02 0.02 0.04 0.05 0.06 0.05 0.03 0.02 0.01 0.01 0.01 0.00 0.00 0.00 0.00 0.00 0.00 0.02 0.08 0.10 0.15 0.12 0.12 0.12 0.08 0.05 0.06
0.00 0.00 0.01 0.01 0.01 0.03 0.02 0.01 0.03 0.03 0.03 0.03 0.03 0.02 0.03 0.04 0.03 0.02 0.03 0.05 0.05 0.05 0.06 0.06 0.04 0.01 0.00 0.00 0.00 0.00 0.00 0.00 0.02 0.06 0.14 0.16 0.18 0.20 0.17 0.17 0.18 0.12 0.09
0.00 0.00 0.00 0.01 0.02 0.03 0.03 0.02 0.02 0.02 0.03 0.03 0.03 0.04 0.05 0.05 0.04 0.03 0.03 0.04 0.05 0.07 0.10 0.13 0.08 0.02 0.01 0.00 0.00 0.00 0.00 0.01 0.04 0.13 0.18 0.26 0.23 0.16 0.15 0.18 0.19 0.15 0.10
0.00 0.00 0.00 0.01 0.02 0.04 0.05 0.05 0.05 0.03 0.03 0.04 0.04 0.04 0.03 0.05 0.04 0.04 0.04 0.04 0.06 0.10 0.13 0.11 0.05 0.01 0.00 0.00 0.01 0.01 0.01 0.01 0.03 0.09 0.17 0.31 0.30 0.16 0.12 0.13 0.14 0.12 0.07
0.00 0.00 0.00 0.01 0.02 0.04 0.06 0.06 0.08 0.06 0.04 0.04 0.04 0.04 0.04 0.04 0.05 0.07 0.06 0.06 0.09 0.14 0.14 0.06 0.01 0.00 0.00 0.00 0.01 0.01 0.01 0.01 0.01 0.04 0.09 0.20 0.22 0.14 0.09 0.08 0.09 0.08 0.06
0.00 0.00 0.00 0.00 0.01 0.02 0.04 0.05 0.06 0.07 0.05 0.03 0.03 0.07 0.09 0.10 0.11 0.12 0.10 0.09 0.12 0.14 0.09 0.03 0.00 0.00 0.00 0.00 0.00 0.00 0.00 0.01 0.01 0.03 0.06 0.11 0.17 0.08 0.03 0.02 0.02 0.02 0.02
0.00 0.00 0.00 0.00 0.02 0.02 0.01 0.01 0.03 0.04 0.05 0.03 0.03 0.07 0.10 0.10 0.10 0.10 0.08 0.08 0.09 0.09 0.06 0.02 0.01 0.00 0.00 0.00 0.00 0.00 0.00 0.00 0.00 0.01 0.01 0.02 0.03 0.01 0.00 0.00 0.00 0.00 0.00
0.00 0.00 0.00 0.00 0.04 0.04 0.01 0.00 0.00 0.01 0.02 0.01 0.02 0.04 0.05 0.15 0.19 0.16 0.09 0.07 0.07 0.06 0.04 0.02 0.01 0.00 0.00 0.00 0.00 0.00 0.00 0.00 0.00 0.00 0.00 0.00 0.00 0.00 0.00 0.00 0.00 0.00 0.00
0.00 0.00 0.00 0.00 0.01 0.06 0.02 0.00 0.00 0.00 0.01 0.02 0.06 0.04 0.11 0.20 0.20 0.13 0.08 0.06 0.05 0.05 0.02 0.01 0.00 0.00 0.00 0.00 0.00 0.00 0.00 0.00 0.00 0.00 0.00 0.00 0.00 0.01 0.00 0.00 0.00 0.00 0.00
0.00 0.00 0.00 0.01 0.03 0.13 0.03 0.00 0.01 0.01 0.04 0.06 0.08 0.09 0.13 0.12 0.10 0.09 0.10 0.08 0.07 0.04 0.03 0.02 0.00 0.00 0.00 0.00 0.00 0.00 0.00 0.00 0.00 0.00 0.00 0.00 0.01 0.01 0.01 0.00 0.00 0.00 0.00
0.00 0.00 0.00 0.01 0.01 0.02 0.01 0.01 0.01 0.01 0.02 0.05 0.08 0.04 0.08 0.10 0.10 0.09 0.12 0.12 0.12 0.09 0.05 0.02 0.01 0.00 0.00 0.00 0.00 0.00 0.00 0.00 0.00 0.00 0.00 0.00 0.01 0.02 0.02 0.02 0.01 0.01 0.02
0.01 0.00 0.00 0.00 0.00 0.00 0.01 0.01 0.02 0.02 0.01 0.01 0.02 0.02 0.04 0.08 0.10 0.09 0.09 0.09 0.09 0.07 0.05 0.02 0.01 0.00 0.00 0.00 0.00 0.00 0.00 0.00 0.00 0.00 0.00 0.01 0.02 0.03 0.04 0.04 0.03 0.03 0.04
0.01 0.00 0.00 0.00 0.00 0.00 0.00 0.00 0.01 0.01 0.01 0.01 0.01 0.02 0.03 0.09 0.12 0.11 0.10 0.10 0.08 0.07 0.05 0.03 0.01 0.00 0.00 0.00 0.00 0.00 0.00 0.00 0.00 0.00 0.00 0.01 0.02 0.02 0.02 0.03 0.03 0.04 0.04
0.01 0.00 0.00 0.00 0.00 0.00 0.00 0.00 0.00 0.00 0.01 0.01 0.02 0.04 0.04 0.08 0.12 0.13 0.16 0.15 0.10 0.07 0.06 0.05 0.03 0.01 0.01 0.00 0.00 0.00 0.00 0.01 0.00 0.01 0.00 0.01 0.01 0.01 0.01 0.02 0.02 0.02 0.02
0.00 0.00 0.00 0.00 0.00 0.00 0.00 0.01 0.02 0.03 0.03 0.03 0.04 0.04 0.03 0.05 0.08 0.11 0.15 0.15 0.11 0.10 0.10 0.09 0.08 0.07 0.05 0.04 0.03 0.02 0.02 0.02 0.01 0.01 0.00 0.00 0.00 0.00 0.01 0.01 0.01 0.01 0.02
0.00 0.00 0.00 0.00 0.01 0.01 0.02 0.04 0.05 0.03 0.04 0.05 0.06 0.06 0.07 0.10 0.13 0.17 0.20 0.23 0.23 0.23 0.22 0.20 0.18 0.14 0.11 0.09 0.07 0.04 0.03 0.02 0.01 0.01 0.00 0.00 0.00 0.00 0.00 0.00 0.01 0.02 0.02
0.01 0.01 0.00 0.01 0.02 0.02 0.02 0.03 0.05 0.09 0.14 0.15 0.17 0.19 0.24 0.30 0.37 0.41 0.42 0.42 0.38 0.33 0.29 0.24 0.21 0.18 0.15 0.11 0.07 0.04 0.02 0.01 0.01 0.00 0.00 0.00 0.00 0.00 0.00 0.00 0.00 0.01 0.02
0.01 0.01 0.01 0.01 0.04 0.06 0.11 0.18 0.28 0.42 0.49 0.51 0.54 0.60 0.69 0.77 0.81 0.76 0.66 0.58 0.51 0.43 0.35 0.27 0.20 0.15 0.12 0.09 0.06 0.04 0.02 0.01 0.00 0.00 0.00 0.00 0.00 0.00 0.00 0.00 0.00 0.00 0.01
0.03 0.03 0.02 0.03 0.12 0.24 0.39 0.58 0.77 0.89 0.97 1.04 1.07 1.10 1.16 1.22 1.20 1.11 0.97 0.87 0.78 0.58 0.36 0.21 0.14 0.11 0.09 0.07 0.04 0.02 0.01 0.00 0.00 0.00 0.00 0.00 0.00 0.00 0.00 0.00 0.00 0.00 0.00
0.04 0.06 0.06 0.10 0.28 0.53 0.77 1.04 1.27 1.43 1.59 1.63 1.55 1.51 1.50 1.47 1.40 1.35 1.18 0.92 0.64 0.38 0.23 0.15 0.12 0.09 0.05 0.02 0.01 0.00 0.00 0.00 0.00 0.00 0.00 0.00 0.00 0.00 0.00 0.00 0.00 0.00 0.00
0.07 0.09 0.10 0.19 0.43 0.76 1.03 1.36 1.66 1.85 2.03 2.15 1.97 1.79 1.56 1.36 1.26 1.13 0.92 0.62 0.37 0.22 0.14 0.09 0.05 0.02 0.01 0.00 0.00 0.00 0.00 0.00 0.00 0.00 0.00 0.00 0.00 0.00 0.00 0.00 0.00 0.00 0.00
0.15 0.12 0.12 0.27 0.58 0.97 1.34 1.65 1.84 2.00 2.13 2.07 1.80 1.53 1.28 1.04 0.78 0.57 0.40 0.25 0.15 0.09 0.05 0.02 0.01 0.00 0.00 0.00 0.00 0.00 0.00 0.00 0.00 0.00 0.00 0.00 0.00 0.00 0.00 0.00 0.00 0.00 0.00
0.19 0.13 0.19 0.40 0.79 1.18 1.45 1.68 1.79 1.82 1.71 1.52 1.27 0.96 0.77 0.63 0.44 0.25 0.12 0.06 0.03 0.01 0.01 0.00 0.00 0.00 0.00 0.00 0.00 0.00 0.00 0.00 0.00 0.00 0.00 0.00 0.00 0.00 0.00 0.00 0.00 0.00 0.00

GEFSSE_prec_meanprecacc_030.txt.gz
Total_Precipitation_Accumulation
0.00 0.00 0.00 0.01 0.03 0.02 0.03 0.06 0.09 0.11 0.11 0.10 0.10 0.10 0.11 0.10 0.08 0.07 0.06 0.07 0.11 0.15 0.18 0.18 0.14 0.10 0.08 0.05 0.02 0.00 0.00 0.00 0.00 0.00 0.01 0.01 0.02 0.03 0.07 0.10 0.12 0.16 0.06
0.00 0.00 0.00 0.00 0.01 0.02 0.03 0.06 0.08 0.10 0.11 0.12 0.12 0.13 0.13 0.09 0.07 0.06 0.06 0.08 0.11 0.16 0.17 0.16 0.12 0.08 0.07 0.04 0.01 0.00 0.00 0.00 0.00 0.00 0.01 0.02 0.02 0.02 0.06 0.08 0.12 0.22 0.14
0.00 0.00 0.00 0.00 0.01 0.01 0.02 0.06 0.07 0.08 0.09 0.10 0.11 0.11 0.08 0.06 0.05 0.05 0.05 0.07 0.10 0.12 0.11 0.07 0.04 0.03 0.02 0.01 0.00 0.00 0.00 0.00 0.00 0.01 0.11 0.13 0.12 0.03 0.07 0.07 0.05 0.08 0.11
0.00 0.00 0.00 0.00 0.01 0.01 0.02 0.04 0.08 0.08 0.08 0.08 0.08 0.07 0.06 0.05 0.04 0.04 0.05 0.07 0.08 0.08 0.05 0.02 0.01 0.01 0.01 0.00 0.00 0.00 0.00 0.00 0.01 0.05 0.17 0.19 0.17 0.12 0.13 0.12 0.08 0.05 0.07
0.00 0.00 0.01 0.01 0.01 0.03 0.02 0.02 0.04 0.07 0.08 0.07 0.06 0.06 0.07 0.06 0.05 0.04 0.05 0.07 0.07 0.06 0.07 0.06 0.04 0.01 0.00 0.00 0.00 0.00 0.00 0.00 0.03 0.12 0.31 0.32 0.21 0.20 0.17 0.18 0.18 0.12 0.09
0.00 0.00 0.00 0.01 0.02 0.03 0.03 0.02 0.03 0.05 0.07 0.08 0.08 0.08 0.07 0.07 0.06 0.04 0.04 0.06 0.06 0.08 0.11 0.13 0.08 0.02 0.01 0.00 0.00 0.00 0.00 0.01 0.07 0.23 0.36 0.40 0.26 0.17 0.16 0.18 0.19 0.16 0.11
0.00 0.00 0.00 0.01 0.02 0.04 0.05 0.06 0.06 0.05 0.06 0.09 0.09 0.07 0.05 0.06 0.05 0.05 0.05 0.05 0.07 0.11 0.14 0.11 0.05 0.01 0.00 0.00 0.01 0.01 0.01 0.02 0.09 0.37 0.51 0.42 0.32 0.17 0.13 0.14 0.16 0.14 0.10
0.00 0.00 0.00 0.01 0.02 0.04 0.06 0.07 0.10 0.09 0.07 0.08 0.07 0.06 0.06 0.05 0.05 0.07 0.06 0.07 0.10 0.15 0.14 0.06 0.01 0.00 0.00 0.00 0.01 0.01 0.02 0.03 0.06 0.29 0.44 0.32 0.26 0.15 0.09 0.09 0.11 0.11 0.09
0.00 0.00 0.00 0.00 0.01 0.02 0.04 0.06 0.08 0.10 0.08 0.06 0.06 0.08 0.10 0.11 0.11 0.12 0.10 0.10 0.12 0.14 0.10 0.03 0.01 0.00 0.00 0.00 0.00 0.00 0.00 0.02 0.06 0.09 0.13 0.15 0.19 0.08 0.03 0.03 0.03 0.03 0.03
0.00 0.00 0.00 0.00 0.02 0.02 0.01 0.02 0.03 0.05 0.06 0.04 0.04 0.08 0.10 0.11 0.10 0.10 0.08 0.09 0.09 0.09 0.06 0.02 0.01 0.00 0.00 0.00 0.00 0.00 0.00 0.01 0.03 0.05 0.07 0.05 0.03 0.01 0.00 0.00 0.00 0.00 0.00
0.00 0.00 0.00 0.00 0.04 0.04 0.01 0.00 0.00 0.01 0.02 0.02 0.02 0.04 0.05 0.15 0.20 0.16 0.10 0.08 0.07 0.06 0.04 0.02 0.01 0.00 0.00 0.00 0.00 0.00 0.00 0.01 0.03 0.05 0.12 0.08 0.01 0.00 0.00 0.00 0.00 0.00 0.00
0.00 0.00 0.00 0.00 0.01 0.06 0.02 0.00 0.01 0.00 0.01 0.02 0.07 0.06 0.11 0.25 0.30 0.22 0.17 0.09 0.06 0.05 0.03 0.01 0.00 0.00 0.00 0.00 0.00 0.00 0.00 0.00 0.02 0.03 0.03 0.02 0.01 0.01 0.01 0.00 0.00 0.00 0.00
0.00 0.00 0.00 0.01 0.03 0.13 0.03 0.00 0.01 0.01 0.06 0.07 0.11 0.14 0.18 0.23 0.21 0.25 0.29 0.16 0.10 0.06 0.06 0.04 0.01 0.00 0.00 0.00 0.00 0.00 0.00 0.00 0.00 0.01 0.01 0.00 0.01 0.01 0.01 0.00 0.00 0.00 0.00
0.00 0.00 0.00 0.01 0.01 0.02 0.02 0.01 0.02 0.01 0.04 0.07 0.12 0.10 0.19 0.24 0.26 0.29 0.31 0.25 0.22 0.17 0.14 0.07 0.03 0.02 0.00 0.00 0.00 0.00 0.00 0.00 0.00 0.00 0.00 0.00 0.01 0.02 0.02 0.02 0.01 0.01 0.02
0.01 0.00 0.00 0.00 0.00 0.00 0.01 0.01 0.02 0.02 0.02 0.04 0.08 0.09 0.12 0.19 0.24 0.27 0.26 0.25 0.20 0.15 0.11 0.06 0.03 0.02 0.00 0.01 0.00 0.00 0.00 0.00 0.00 0.00 0.00 0.01 0.02 0.03 0.04 0.04 0.03 0.03 0.04
0.01 0.00 0.00 0.00 0.00 0.00 0.00 0.01 0.01 0.02 0.03 0.04 0.05 0.07 0.09 0.19 0.28 0.30 0.27 0.25 0.20 0.17 0.18 0.09 0.05 0.04 0.01 0.01 0.00 0.00 0.00 0.00 0.00 0.00 0.01 0.01 0.02 0.02 0.02 0.03 0.03 0.04 0.04
0.01 0.00 0.00 0.00 0.00 0.00 0.00 0.01 0.01 0.02 0.03 0.04 0.07 0.08 0.10 0.16 0.27 0.30 0.32 0.30 0.23 0.18 0.16 0.09 0.06 0.06 0.04 0.01 0.00 0.00 0.00 0.01 0.01 0.01 0.01 0.01 0.01 0.01 0.01 0.02 0.02 0.02 0.02
0.00 0.00 0.00 0.00 0.00 0.00 0.01 0.01 0.03 0.04 0.05 0.06 0.09 0.10 0.11 0.15 0.20 0.26 0.30 0.29 0.25 0.22 0.19 0.14 0.11 0.10 0.08 0.05 0.04 0.03 0.02 0.02 0.01 0.01 0.01 0.01 0.00 0.00 0.01 0.01 0.01 0.01 0.02
0.00 0.00 0.00 0.00 0.01 0.01 0.02 0.04 0.06 0.05 0.07 0.09 0.13 0.16 0.20 0.24 0.28 0.33 0.35 0.39 0.38 0.37 0.33 0.26 0.21 0.17 0.15 0.11 0.08 0.05 0.04 0.02 0.02 0.02 0.02 0.01 0.01 0.01 0.00 0.00 0.01 0.02 0.02
0.01 0.01 0.01 0.01 0.03 0.03 0.03 0.04 0.07 0.12 0.18 0.22 0.26 0.30 0.36 0.44 0.53 0.60 0.61 0.61 0.55 0.50 0.41 0.33 0.27 0.22 0.18 0.14 0.09 0.05 0.03 0.02 0.02 0.01 0.01 0.01 0.00 0.00 0.00 0.00 0.00 0.01 0.02
0.01 0.02 0.02 0.04 0.06 0.08 0.12 0.20 0.31 0.47 0.56 0.58 0.62 0.69 0.82 0.92 0.97 0.95 0.88 0.79 0.70 0.60 0.50 0.40 0.29 0.21 0.16 0.12 0.08 0.05 0.03 0.01 0.01 0.00 0.00 0.00 0.00 0.00 0.00 0.00 0.00 0.00 0.01
0.03 0.04 0.04 0.07 0.16 0.29 0.45 0.65 0.86 1.00 1.10 1.16 1.21 1.28 1.34 1.38 1.38 1.33 1.24 1.14 1.03 0.82 0.56 0.37 0.25 0.19 0.14 0.10 0.07 0.04 0.02 0.01 0.00 0.00 0.00 0.00 0.00 0.00 0.00 0.00 0.00 0.00 0.00
0.05 0.07 0.09 0.16 0.36 0.63 0.87 1.14 1.40 1.59 1.79 1.84 1.76 1.71 1.70 1.65 1.57 1.53 1.43 1.21 0.92 0.64 0.42 0.28 0.21 0.16 0.10 0.06 0.03 0.02 0.01 0.00 0.00 0.00 0.00 0.00 0.00 0.00 0.00 0.00 0.00 0.00 0.00
0.07 0.11 0.14 0.27 0.54 0.87 1.14 1.46 1.78 2.02 2.22 2.34 2.16 1.95 1.70 1.49 1.38 1.27 1.14 0.89 0.63 0.43 0.28 0.19 0.13 0.08 0.05 0.03 0.01 0.00 0.00 0.00 0.00 0.00 0.00 0.00 0.00 0.00 0.00 0.00 0.00 0.00 0.00
0.16 0.13 0.17 0.36 0.68 1.10 1.47 1.77 1.99 2.20 2.31 2.23 1.95 1.66 1.40 1.16 0.90 0.70 0.57 0.41 0.29 0.19 0.12 0.07 0.05 0.03 0.02 0.01 0.00 0.00 0.00 0.00 0.00 0.00 0.00 0.00 0.00 0.00 0.00 0.00 0.00 0.00 0.00
0.20 0.16 0.25 0.48 0.90 1.33 1.62 1.87 2.00 2.01 1.88 1.66 1.39 1.09 0.91 0.74 0.53 0.33 0.21 0.13 0.08 0.04 0.02 0.01 0.01 0.00 0.00 0.00 0.00 0.00 0.00 0.00 0.00 0.00 0.00 0.00 0.00 0.00 0.00 0.00 0.00 0.00 0.00

GEFSSE_prec_meanprecacc_036.txt.gz
Total_Precipitation_Accumulation
0.00 0.00 0.00 0.01 0.03 0.02 0.03 0.06 0.09 0.11 0.11 0.10 0.10 0.10 0.11 0.10 0.08 0.07 0.06 0.08 0.11 0.16 0.19 0.19 0.14 0.10 0.08 0.06 0.02 0.01 0.01 0.01 0.03 0.04 0.06 0.06 0.05 0.06 0.09 0.11 0.12 0.16 0.07
0.00 0.00 0.00 0.00 0.01 0.02 0.03 0.06 0.08 0.10 0.11 0.12 0.13 0.14 0.14 0.09 0.07 0.07 0.06 0.08 0.12 0.16 0.17 0.16 0.12 0.08 0.07 0.04 0.01 0.00 0.01 0.01 0.04 0.06 0.07 0.08 0.10 0.07 0.10 0.11 0.12 0.22 0.14
0.00 0.00 0.00 0.00 0.01 0.01 0.02 0.06 0.07 0.08 0.09 0.10 0.11 0.11 0.09 0.07 0.06 0.05 0.05 0.07 0.11 0.12 0.11 0.07 0.04 0.03 0.02 0.01 0.00 0.00 0.01 0.02 0.04 0.08 0.17 0.17 0.17 0.09 0.11 0.10 0.06 0.08 0.11
0.00 0.00 0.00 0.00 0.01 0.01 0.02 0.04 0.08 0.08 0.08 0.08 0.08 0.07 0.06 0.05 0.05 0.05 0.06 0.07 0.08 0.08 0.05 0.02 0.01 0.01 0.01 0.00 0.00 0.00 0.01 0.02 0.05 0.14 0.26 0.27 0.23 0.17 0.15 0.13 0.09 0.05 0.07
0.00 0.00 0.01 0.01 0.02 0.03 0.02 0.02 0.05 0.07 0.08 0.07 0.07 0.07 0.07 0.07 0.05 0.05 0.06 0.07 0.07 0.06 0.07 0.06 0.04 0.01 0.00 0.00 0.00 0.00 0.00 0.02 0.08 0.23 0.54 0.52 0.34 0.28 0.21 0.19 0.19 0.12 0.09
0.00 0.00 0.00 0.01 0.02 0.03 0.03 0.02 0.03 0.05 0.07 0.08 0.08 0.08 0.08 0.07 0.06 0.04 0.05 0.06 0.06 0.08 0.11 0.13 0.08 0.02 0.01 0.00 0.00 0.01 0.01 0.03 0.13 0.35 0.76 0.85 0.46 0.27 0.20 0.19 0.20 0.16 0.11
0.00 0.00 0.00 0.01 0.02 0.04 0.05 0.06 0.06 0.05 0.06 0.09 0.09 0.07 0.06 0.06 0.06 0.05 0.05 0.05 0.07 0.11 0.14 0.11 0.05 0.01 0.00 0.00 0.01 0.02 0.02 0.05 0.14 0.49 0.82 0.74 0.53 0.28 0.18 0.16 0.16 0.14 0.10
0.00 0.00 0.00 0.01 0.02 0.04 0.06 0.07 0.10 0.09 0.08 0.08 0.08 0.07 0.06 0.05 0.06 0.07 0.06 0.07 0.10 0.15 0.14 0.06 0.01 0.00 0.00 0.00 0.01 0.01 0.03 0.06 0.13 0.46 0.77 0.52 0.38 0.20 0.13 0.12 0.13 0.11 0.09
0.00 0.00 0.00 0.00 0.01 0.02 0.05 0.06 0.08 0.10 0.08 0.06 0.06 0.09 0.10 0.11 0.11 0.12 0.10 0.10 0.12 0.14 0.10 0.03 0.01 0.00 0.00 0.00 0.00 0.01 0.01 0.03 0.12 0.21 0.26 0.23 0.23 0.11 0.05 0.04 0.03 0.03 0.03
0.00 0.00 0.00 0.00 0.02 0.02 0.01 0.02 0.03 0.05 0.06 0.05 0.05 0.08 0.10 0.11 0.10 0.10 0.08 0.09 0.09 0.09 0.06 0.02 0.01 0.00 0.00 0.00 0.00 0.00 0.01 0.03 0.08 0.10 0.14 0.10 0.06 0.02 0.01 0.01 0.00 0.00 0.00
0.00 0.00 0.00 0.00 0.04 0.04 0.01 0.00 0.00 0.01 0.02 0.02 0.02 0.04 0.05 0.15 0.20 0.16 0.10 0.08 0.07 0.06 0.04 0.02 0.01 0.00 0.00 0.00 0.00 0.00 0.00 0.02 0.06 0.11 0.18 0.14 0.04 0.01 0.00 0.00 0.00 0.00 0.00
0.01 0.00 0.00 0.00 0.01 0.06 0.02 0.00 0.01 0.00 0.01 0.02 0.07 0.06 0.11 0.25 0.31 0.23 0.18 0.11 0.07 0.05 0.03 0.01 0.01 0.00 0.00 0.00 0.00 0.00 0.00 0.01 0.05 0.10 0.09 0.05 0.02 0.01 0.01 0.00 0.00 0.00 0.00
0.01 0.00 0.01 0.01 0.03 0.13 0.03 0.00 0.01 0.01 0.06 0.07 0.11 0.14 0.18 0.23 0.22 0.26 0.30 0.17 0.11 0.07 0.06 0.05 0.02 0.01 0.00 0.01 0.01 0.01 0.01 0.01 0.02 0.03 0.03 0.03 0.02 0.02 0.01 0.01 0.00 0.00 0.00
0.02 0.01 0.00 0.01 0.01 0.02 0.02 0.01 0.02 0.01 0.04 0.07 0.12 0.11 0.19 0.25 0.28 0.30 0.32 0.26 0.24 0.19 0.15 0.08 0.05 0.04 0.02 0.01 0.01 0.01 0.01 0.01 0.00 0.01 0.01 0.02 0.03 0.04 0.03 0.02 0.02 0.02 0.02
0.04 0.01 0.00 0.00 0.00 0.00 0.01 0.01 0.02 0.02 0.02 0.04 0.08 0.10 0.13 0.20 0.25 0.28 0.28 0.26 0.22 0.21 0.17 0.08 0.06 0.06 0.03 0.03 0.02 0.01 0.01 0.01 0.00 0.01 0.01 0.03 0.04 0.05 0.05 0.04 0.03 0.03 0.04
0.04 0.02 0.01 0.00 0.00 0.00 0.00 0.01 0.01 0.02 0.03 0.05 0.07 0.11 0.12 0.20 0.30 0.32 0.28 0.26 0.23 0.22 0.24 0.15 0.12 0.12 0.05 0.04 0.04 0.03 0.02 0.01 0.01 0.01 0.01 0.02 0.03 0.03 0.03 0.03 0.04 0.04 0.05
0.05 0.03 0.01 0.00 0.00 0.00 0.00 0.01 0.01 0.02 0.03 0.05 0.08 0.13 0.12 0.17 0.28 0.31 0.33 0.31 0.26 0.23 0.23 0.19 0.16 0.18 0.17 0.12 0.09 0.06 0.03 0.02 0.02 0.02 0.01 0.01 0.01 0.02 0.02 0.02 0.03 0.03 0.03
0.06 0.04 0.03 0.01 0.00 0.00 0.01 0.01 0.03 0.04 0.05 0.06 0.09 0.11 0.12 0.15 0.21 0.27 0.31 0.31 0.29 0.28 0.29 0.26 0.24 0.23 0.21 0.16 0.12 0.08 0.05 0.04 0.03 0.02 0.02 0.01 0.01 0.01 0.01 0.01 0.01 0.01 0.02
0.05 0.06 0.04 0.03 0.02 0.02 0.02 0.04 0.06 0.05 0.07 0.10 0.14 0.17 0.22 0.25 0.28 0.34 0.37 0.42 0.42 0.43 0.41 0.38 0.33 0.28 0.24 0.19 0.13 0.08 0.06 0.04 0.03 0.02 0.02 0.02 0.01 0.01 0.00 0.00 0.01 0.02 0.02
0.06 0.08 0.07 0.07 0.08 0.06 0.04 0.05 0.08 0.13 0.19 0.23 0.28 0.31 0.37 0.45 0.55 0.62 0.64 0.63 0.58 0.54 0.48 0.42 0.36 0.31 0.24 0.19 0.14 0.08 0.05 0.03 0.02 0.01 0.01 0.01 0.00 0.00 0.00 0.00 0.00 0.01 0.02
0.15 0.14 0.12 0.12 0.13 0.13 0.17 0.24 0.35 0.50 0.59 0.60 0.66 0.74 0.86 0.95 1.00 0.99 0.90 0.81 0.73 0.63 0.54 0.45 0.35 0.27 0.20 0.15 0.10 0.07 0.03 0.02 0.01 0.01 0.00 0.00 0.00 0.00 0.00 0.00 0.00 0.00 0.01
0.25 0.21 0.19 0.19 0.29 0.43 0.55 0.74 0.94 1.06 1.16 1.24 1.30 1.37 1.42 1.46 1.44 1.39 1.29 1.18 1.06 0.84 0.59 0.39 0.28 0.22 0.18 0.13 0.09 0.06 0.03 0.01 0.01 0.00 0.00 0.00 0.00 0.00 0.00 0.00 0.00 0.00 0.00
0.32 0.34 0.34 0.35 0.56 0.81 1.01 1.28 1.51 1.71 1.91 1.97 1.89 1.83 1.82 1.77 1.66 1.62 1.50 1.26 0.95 0.66 0.44 0.29 0.23 0.17 0.12 0.08 0.04 0.03 0.02 0.01 0.00 0.00 0.00 0.00 0.00 0.00 0.00 0.00 0.00 0.00 0.00
0.35 0.42 0.43 0.55 0.81 1.08 1.34 1.70 2.00 2.20 2.39 2.51 2.35 2.12 1.86 1.64 1.50 1.37 1.23 0.94 0.66 0.44 0.29 0.20 0.13 0.09 0.05 0.04 0.02 0.01 0.01 0.00 0.00 0.00 0.00 0.00 0.00 0.00 0.00 0.00 0.00 0.00 0.00
0.36 0.35 0.37 0.58 0.94 1.41 1.83 2.12 2.26 2.44 2.53 2.44 2.17 1.87 1.59 1.33 1.04 0.81 0.65 0.46 0.31 0.20 0.12 0.08 0.05 0.03 0.02 0.01 0.01 0.00 0.00 0.00 0.00 0.00 0.00 0.00 0.00 0.00 0.00 0.00 0.00 0.00 0.00
0.33 0.33 0.44 0.71 1.21 1.68 1.97 2.21 2.33 2.32 2.17 1.95 1.65 1.31 1.10 0.89 0.65 0.42 0.27 0.16 0.10 0.05 0.03 0.01 0.01 0.01 0.00 0.00 0.00 0.00 0.00 0.00 0.00 0.00 0.00 0.00 0.00 0.00 0.00 0.00 0.00 0.00 0.00

GEFSSE_prec_meanprecacc_042.txt.gz
Total_Precipitation_Accumulation
0.00 0.00 0.01 0.01 0.03 0.02 0.03 0.06 0.09 0.11 0.11 0.10 0.10 0.10 0.11 0.10 0.08 0.07 0.06 0.08 0.11 0.16 0.19 0.19 0.14 0.10 0.08 0.06 0.02 0.01 0.01 0.01 0.03 0.05 0.07 0.09 0.10 0.10 0.10 0.11 0.13 0.17 0.08
0.00 0.00 0.01 0.01 0.01 0.02 0.03 0.06 0.08 0.10 0.11 0.12 0.13 0.14 0.14 0.09 0.07 0.07 0.06 0.09 0.13 0.17 0.18 0.16 0.12 0.08 0.07 0.04 0.02 0.01 0.01 0.02 0.04 0.07 0.09 0.12 0.16 0.14 0.14 0.12 0.12 0.23 0.15
0.00 0.00 0.00 0.01 0.01 0.01 0.02 0.06 0.07 0.08 0.09 0.10 0.11 0.11 0.09 0.07 0.06 0.05 0.05 0.08 0.11 0.13 0.11 0.07 0.04 0.03 0.02 0.01 0.00 0.00 0.01 0.02 0.04 0.08 0.17 0.18 0.20 0.13 0.14 0.11 0.07 0.09 0.12
0.00 0.00 0.00 0.01 0.01 0.01 0.02 0.04 0.08 0.08 0.08 0.08 0.08 0.07 0.06 0.05 0.05 0.05 0.06 0.07 0.09 0.08 0.05 0.02 0.01 0.01 0.01 0.00 0.00 0.00 0.01 0.03 0.06 0.14 0.27 0.27 0.24 0.17 0.15 0.14 0.09 0.06 0.07
0.00 0.00 0.01 0.01 0.02 0.03 0.02 0.02 0.05 0.07 0.08 0.07 0.07 0.07 0.07 0.07 0.05 0.05 0.06 0.07 0.07 0.07 0.07 0.06 0.04 0.01 0.00 0.00 0.00 0.00 0.02 0.04 0.09 0.23 0.54 0.52 0.34 0.30 0.21 0.19 0.19 0.12 0.09
0.00 0.00 0.01 0.02 0.03 0.04 0.03 0.02 0.03 0.05 0.07 0.08 0.08 0.08 0.08 0.07 0.06 0.04 0.05 0.06 0.06 0.08 0.11 0.13 0.08 0.02 0.01 0.00 0.01 0.01 0.02 0.04 0.14 0.35 0.77 0.85 0.47 0.29 0.21 0.20 0.20 0.16 0.11
0.00 0.00 0.00 0.03 0.04 0.05 0.05 0.06 0.06 0.05 0.06 0.09 0.09 0.07 0.06 0.06 0.06 0.05 0.05 0.05 0.07 0.11 0.14 0.11 0.05 0.01 0.00 0.00 0.01 0.02 0.03 0.06 0.15 0.50 0.82 0.74 0.53 0.29 0.20 0.19 0.19 0.16 0.11
0.00 0.00 0.00 0.02 0.03 0.05 0.07 0.07 0.10 0.09 0.08 0.08 0.08 0.07 0.06 0.05 0.06 0.07 0.06 0.07 0.10 0.15 0.14 0.06 0.01 0.00 0.00 0.00 0.01 0.02 0.04 0.07 0.13 0.46 0.77 0.52 0.38 0.22 0.15 0.14 0.15 0.13 0.11
0.00 0.00 0.00 0.00 0.02 0.04 0.06 0.06 0.08 0.10 0.08 0.06 0.06 0.09 0.10 0.11 0.11 0.12 0.10 0.10 0.13 0.14 0.10 0.03 0.01 0.00 0.00 0.01 0.01 0.01 0.02 0.04 0.12 0.21 0.26 0.23 0.24 0.12 0.06 0.06 0.05 0.04 0.04
0.00 0.00 0.00 0.00 0.03 0.02 0.01 0.02 0.03 0.05 0.06 0.05 0.05 0.08 0.10 0.11 0.10 0.10 0.08 0.09 0.10 0.10 0.07 0.03 0.02 0.01 0.00 0.00 0.00 0.01 0.02 0.04 0.08 0.11 0.15 0.10 0.07 0.02 0.01 0.01 0.01 0.01 0.00
0.00 0.00 0.00 0.00 0.04 0.04 0.01 0.00 0.01 0.01 0.02 0.02 0.02 0.04 0.05 0.15 0.20 0.16 0.10 0.08 0.07 0.07 0.05 0.04 0.03 0.01 0.00 0.00 0.00 0.00 0.01 0.02 0.06 0.11 0.18 0.14 0.04 0.01 0.00 0.00 0.00 0.00 0.00
0.01 0.00 0.00 0.00 0.01 0.06 0.02 0.00 0.01 0.00 0.01 0.02 0.07 0.06 0.11 0.25 0.31 0.23 0.18 0.11 0.08 0.06 0.05 0.04 0.03 0.02 0.01 0.00 0.00 0.00 0.00 0.01 0.06 0.10 0.09 0.06 0.03 0.02 0.01 0.00 0.00 0.00 0.00
0.01 0.00 0.01 0.01 0.03 0.13 0.03 0.00 0.01 0.01 0.06 0.07 0.11 0.14 0.18 0.23 0.22 0.26 0.30 0.17 0.11 0.08 0.08 0.07 0.04 0.02 0.01 0.01 0.01 0.01 0.01 0.01 0.02 0.03 0.03 0.03 0.03 0.02 0.01 0.01 0.00 0.00 0.00
0.02 0.01 0.00 0.01 0.01 0.02 0.02 0.01 0.02 0.01 0.04 0.07 0.12 0.11 0.19 0.25 0.28 0.30 0.32 0.26 0.24 0.20 0.16 0.09 0.06 0.05 0.03 0.02 0.01 0.01 0.01 0.01 0.01 0.01 0.02 0.04 0.05 0.05 0.03 0.02 0.02 0.02 0.02
0.04 0.01 0.00 0.00 0.00 0.00 0.01 0.01 0.02 0.02 0.02 0.04 0.08 0.10 0.13 0.20 0.25 0.28 0.28 0.27 0.23 0.21 0.18 0.09 0.09 0.09 0.05 0.04 0.03 0.02 0.02 0.01 0.01 0.01 0.01 0.04 0.05 0.06 0.06 0.05 0.04 0.04 0.05
0.05 0.02 0.01 0.00 0.00 0.00 0.00 0.01 0.01 0.02 0.03 0.05 0.07 0.11 0.12 0.20 0.31 0.32 0.29 0.28 0.25 0.24 0.26 0.18 0.15 0.16 0.08 0.05 0.05 0.05 0.04 0.03 0.03 0.01 0.02 0.03 0.05 0.06 0.07 0.07 0.06 0.07 0.08
0.06 0.03 0.02 0.00 0.00 0.00 0.00 0.01 0.01 0.02 0.03 0.05 0.08 0.13 0.12 0.17 0.28 0.31 0.35 0.33 0.29 0.27 0.28 0.25 0.25 0.24 0.21 0.16 0.13 0.09 0.07 0.07 0.05 0.04 0.03 0.02 0.03 0.05 0.05 0.05 0.06 0.06 0.06
0.07 0.05 0.04 0.02 0.01 0.01 0.01 0.01 0.03 0.04 0.05 0.07 0.09 0.11 0.12 0.16 0.21 0.28 0.33 0.35 0.34 0.34 0.36 0.35 0.34 0.29 0.25 0.21 0.18 0.15 0.11 0.09 0.07 0.06 0.05 0.04 0.03 0.03 0.03 0.03 0.03 0.04 0.04
0.07 0.07 0.06 0.04 0.04 0.03 0.04 0.05 0.07 0.06 0.08 0.11 0.15 0.18 0.23 0.27 0.32 0.38 0.42 0.46 0.47 0.49 0.49 0.48 0.43 0.34 0.28 0.24 0.19 0.14 0.10 0.07 0.07 0.06 0.06 0.04 0.03 0.03 0.02 0.02 0.03 0.03 0.04
0.08 0.10 0.10 0.10 0.13 0.12 0.13 0.13 0.16 0.20 0.25 0.29 0.33 0.39 0.46 0.55 0.64 0.70 0.72 0.70 0.65 0.61 0.54 0.50 0.43 0.36 0.28 0.23 0.17 0.11 0.08 0.06 0.05 0.04 0.03 0.02 0.02 0.01 0.01 0.01 0.01 0.02 0.04
0.17 0.17 0.16 0.16 0.21 0.27 0.37 0.47 0.59 0.71 0.77 0.76 0.80 0.91 1.06 1.13 1.14 1.11 1.03 0.94 0.83 0.73 0.62 0.51 0.39 0.30 0.23 0.17 0.13 0.08 0.05 0.03 0.02 0.02 0.01 0.01 0.01 0.01 0.00 0.00 0.00 0.00 0.01
0.26 0.23 0.23 0.28 0.43 0.63 0.86 1.06 1.24 1.36 1.45 1.46 1.50 1.58 1.63 1.66 1.64 1.58 1.48 1.37 1.22 0.96 0.66 0.45 0.32 0.24 0.19 0.14 0.10 0.07 0.04 0.03 0.02 0.01 0.01 0.01 0.01 0.00 0.00 0.00 0.00 0.00 0.00
0.33 0.36 0.36 0.43 0.73 1.09 1.37 1.64 1.87 2.08 2.23 2.22 2.10 2.06 2.06 2.03 1.94 1.86 1.74 1.49 1.15 0.80 0.54 0.36 0.27 0.19 0.13 0.08 0.05 0.04 0.03 0.02 0.01 0.01 0.01 0.01 0.01 0.00 0.00 0.00 0.00 0.00 0.00
0.37 0.44 0.48 0.62 0.93 1.26 1.59 2.02 2.36 2.55 2.70 2.80 2.63 2.40 2.15 1.94 1.82 1.66 1.48 1.16 0.85 0.59 0.40 0.27 0.18 0.11 0.06 0.04 0.03 0.02 0.01 0.01 0.00 0.00 0.00 0.00 0.00 0.00 0.00 0.00 0.00 0.00 0.00
0.38 0.39 0.46 0.68 1.06 1.62 2.12 2.47 2.65 2.80 2.87 2.74 2.47 2.17 1.88 1.60 1.31 1.06 0.85 0.63 0.45 0.30 0.19 0.11 0.07 0.05 0.03 0.02 0.01 0.01 0.00 0.00 0.00 0.00 0.00 0.00 0.00 0.00 0.00 0.00 0.00 0.00 0.00
0.38 0.39 0.51 0.80 1.33 1.90 2.32 2.62 2.76 2.71 2.52 2.29 1.99 1.62 1.39 1.15 0.88 0.62 0.44 0.29 0.20 0.12 0.06 0.03 0.02 0.01 0.01 0.00 0.00 0.00 0.00 0.00 0.00 0.00 0.00 0.00 0.00 0.00 0.00 0.00 0.00 0.00 0.00

GEFSSE_prec_meanprecacc_048.txt.gz
Total_Precipitation_Accumulation
0.00 0.00 0.01 0.02 0.05 0.06 0.05 0.06 0.09 0.11 0.11 0.10 0.10 0.10 0.11 0.10 0.08 0.07 0.06 0.08 0.11 0.16 0.19 0.19 0.15 0.10 0.08 0.06 0.02 0.01 0.01 0.01 0.03 0.06 0.08 0.10 0.11 0.11 0.12 0.12 0.13 0.18 0.08
0.00 0.00 0.01 0.01 0.03 0.04 0.05 0.07 0.09 0.10 0.11 0.12 0.13 0.14 0.14 0.10 0.07 0.07 0.07 0.09 0.13 0.17 0.18 0.16 0.12 0.08 0.07 0.04 0.02 0.01 0.01 0.02 0.05 0.08 0.10 0.13 0.17 0.15 0.15 0.13 0.14 0.24 0.15
0.00 0.00 0.00 0.01 0.01 0.03 0.04 0.07 0.08 0.08 0.09 0.10 0.11 0.11 0.09 0.07 0.06 0.06 0.05 0.08 0.12 0.13 0.11 0.07 0.04 0.03 0.02 0.01 0.00 0.00 0.01 0.03 0.06 0.10 0.21 0.21 0.21 0.14 0.15 0.12 0.08 0.09 0.13
0.00 0.00 0.00 0.01 0.01 0.03 0.03 0.05 0.08 0.09 0.08 0.08 0.08 0.07 0.06 0.06 0.06 0.05 0.06 0.08 0.09 0.08 0.05 0.02 0.01 0.01 0.01 0.00 0.00 0.01 0.02 0.04 0.08 0.16 0.30 0.30 0.26 0.19 0.18 0.16 0.12 0.09 0.11
0.00 0.00 0.01 0.01 0.02 0.04 0.03 0.03 0.05 0.08 0.08 0.07 0.07 0.07 0.08 0.07 0.06 0.06 0.07 0.08 0.08 0.07 0.07 0.06 0.04 0.01 0.01 0.00 0.00 0.01 0.03 0.06 0.11 0.24 0.55 0.55 0.40 0.32 0.23 0.22 0.23 0.17 0.15
0.00 0.00 0.01 0.02 0.03 0.05 0.05 0.03 0.04 0.05 0.07 0.08 0.08 0.09 0.09 0.08 0.07 0.06 0.06 0.07 0.07 0.08 0.11 0.13 0.08 0.02 0.01 0.01 0.01 0.03 0.05 0.08 0.16 0.36 0.77 0.87 0.51 0.32 0.26 0.26 0.27 0.23 0.18
0.00 0.00 0.00 0.03 0.04 0.05 0.06 0.06 0.06 0.05 0.06 0.09 0.09 0.08 0.07 0.08 0.07 0.07 0.07 0.06 0.08 0.11 0.14 0.11 0.05 0.01 0.00 0.01 0.02 0.05 0.07 0.10 0.18 0.52 0.83 0.76 0.57 0.34 0.28 0.28 0.28 0.24 0.18
0.00 0.00 0.01 0.03 0.03 0.05 0.07 0.08 0.10 0.09 0.08 0.09 0.08 0.08 0.07 0.06 0.07 0.09 0.08 0.08 0.11 0.15 0.14 0.06 0.01 0.00 0.00 0.01 0.02 0.04 0.08 0.09 0.14 0.47 0.77 0.55 0.42 0.26 0.22 0.22 0.23 0.21 0.17
0.00 0.00 0.00 0.01 0.02 0.05 0.07 0.07 0.09 0.10 0.08 0.07 0.07 0.10 0.11 0.11 0.12 0.12 0.11 0.11 0.13 0.15 0.10 0.03 0.01 0.00 0.01 0.01 0.01 0.03 0.05 0.06 0.13 0.23 0.27 0.26 0.27 0.15 0.10 0.10 0.09 0.08 0.07
0.00 0.00 0.00 0.00 0.03 0.02 0.02 0.04 0.05 0.06 0.07 0.06 0.05 0.09 0.11 0.11 0.10 0.10 0.08 0.09 0.10 0.10 0.07 0.03 0.02 0.01 0.01 0.01 0.01 0.02 0.03 0.05 0.08 0.12 0.17 0.13 0.09 0.05 0.05 0.04 0.03 0.02 0.02
0.01 0.01 0.00 0.01 0.04 0.04 0.01 0.01 0.02 0.02 0.03 0.02 0.03 0.05 0.06 0.15 0.20 0.17 0.10 0.09 0.08 0.07 0.06 0.04 0.03 0.01 0.01 0.00 0.01 0.01 0.02 0.03 0.07 0.12 0.20 0.16 0.06 0.03 0.02 0.01 0.01 0.01 0.01
0.01 0.00 0.00 0.01 0.02 0.06 0.02 0.01 0.01 0.01 0.01 0.02 0.08 0.06 0.12 0.26 0.31 0.23 0.19 0.11 0.08 0.07 0.06 0.05 0.03 0.02 0.01 0.00 0.00 0.01 0.01 0.02 0.06 0.11 0.09 0.07 0.05 0.03 0.02 0.01 0.00 0.00 0.00
0.01 0.00 0.01 0.01 0.03 0.14 0.04 0.01 0.02 0.02 0.07 0.08 0.12 0.15 0.19 0.24 0.23 0.26 0.30 0.18 0.12 0.10 0.09 0.07 0.04 0.03 0.01 0.01 0.01 0.01 0.01 0.02 0.03 0.03 0.03 0.04 0.04 0.03 0.02 0.01 0.00 0.00 0.00
0.02 0.01 0.00 0.01 0.01 0.02 0.02 0.02 0.03 0.02 0.05 0.08 0.13 0.11 0.20 0.26 0.28 0.30 0.33 0.27 0.25 0.22 0.18 0.10 0.06 0.06 0.04 0.02 0.02 0.01 0.02 0.01 0.01 0.01 0.03 0.05 0.06 0.07 0.05 0.03 0.02 0.02 0.02
0.04 0.01 0.00 0.00 0.01 0.01 0.02 0.02 0.02 0.03 0.03 0.05 0.09 0.10 0.13 0.21 0.26 0.29 0.29 0.27 0.25 0.24 0.19 0.10 0.09 0.10 0.05 0.05 0.03 0.03 0.03 0.02 0.02 0.02 0.03 0.06 0.08 0.09 0.08 0.06 0.04 0.04 0.05
0.05 0.02 0.01 0.00 0.00 0.01 0.01 0.01 0.02 0.02 0.04 0.05 0.08 0.11 0.13 0.21 0.31 0.33 0.30 0.30 0.30 0.29 0.29 0.19 0.16 0.16 0.08 0.06 0.05 0.06 0.05 0.05 0.04 0.03 0.04 0.06 0.08 0.09 0.10 0.10 0.09 0.09 0.09
0.06 0.04 0.02 0.00 0.00 0.00 0.01 0.01 0.02 0.02 0.03 0.05 0.08 0.13 0.13 0.17 0.29 0.33 0.37 0.38 0.36 0.33 0.32 0.28 0.27 0.25 0.22 0.16 0.13 0.10 0.09 0.09 0.09 0.07 0.06 0.06 0.07 0.09 0.10 0.10 0.10 0.09 0.09
0.07 0.06 0.04 0.02 0.01 0.01 0.01 0.02 0.03 0.05 0.05 0.07 0.09 0.12 0.13 0.16 0.22 0.30 0.35 0.41 0.40 0.39 0.41 0.40 0.38 0.32 0.27 0.22 0.19 0.16 0.14 0.12 0.10 0.10 0.09 0.09 0.09 0.10 0.10 0.08 0.07 0.08 0.08
0.07 0.08 0.07 0.04 0.04 0.03 0.04 0.06 0.07 0.06 0.09 0.12 0.15 0.19 0.24 0.29 0.35 0.42 0.47 0.56 0.56 0.57 0.56 0.54 0.49 0.39 0.33 0.29 0.22 0.17 0.13 0.10 0.10 0.09 0.09 0.09 0.08 0.09 0.09 0.07 0.06 0.06 0.06
0.09 0.10 0.10 0.10 0.13 0.12 0.13 0.13 0.17 0.21 0.26 0.30 0.35 0.41 0.49 0.59 0.70 0.77 0.81 0.82 0.77 0.72 0.65 0.59 0.51 0.43 0.35 0.30 0.21 0.13 0.10 0.08 0.07 0.06 0.05 0.04 0.03 0.03 0.03 0.03 0.03 0.03 0.05
0.18 0.17 0.16 0.16 0.21 0.28 0.37 0.48 0.60 0.73 0.79 0.79 0.85 0.96 1.13 1.24 1.28 1.26 1.20 1.11 0.99 0.89 0.79 0.67 0.52 0.41 0.32 0.24 0.18 0.13 0.08 0.06 0.05 0.04 0.03 0.02 0.02 0.01 0.01 0.02 0.01 0.01 0.02
0.27 0.23 0.24 0.29 0.43 0.65 0.88 1.10 1.28 1.40 1.49 1.51 1.55 1.65 1.74 1.84 1.87 1.85 1.76 1.65 1.49 1.22 0.89 0.63 0.48 0.40 0.31 0.23 0.19 0.15 0.10 0.05 0.03 0.02 0.02 0.02 0.02 0.01 0.01 0.01 0.01 0.01 0.01
0.34 0.36 0.37 0.44 0.75 1.13 1.44 1.73 1.97 2.16 2.30 2.30 2.21 2.20 2.24 2.25 2.22 2.20 2.08 1.83 1.47 1.11 0.81 0.62 0.51 0.38 0.27 0.17 0.12 0.11 0.10 0.08 0.03 0.01 0.01 0.01 0.01 0.01 0.01 0.01 0.01 0.00 0.00
0.38 0.45 0.49 0.64 0.96 1.32 1.66 2.11 2.47 2.66 2.82 2.97 2.87 2.70 2.49 2.30 2.19 2.05 1.83 1.46 1.14 0.88 0.68 0.55 0.42 0.28 0.18 0.12 0.08 0.06 0.05 0.04 0.03 0.01 0.01 0.00 0.00 0.00 0.00 0.00 0.00 0.00 0.00
0.40 0.41 0.49 0.72 1.13 1.70 2.22 2.60 2.78 2.95 3.07 3.03 2.84 2.58 2.27 1.94 1.59 1.33 1.12 0.88 0.71 0.56 0.41 0.32 0.24 0.15 0.10 0.07 0.05 0.04 0.03 0.02 0.02 0.01 0.01 0.00 0.00 0.00 0.00 0.00 0.00 0.00 0.00
0.40 0.41 0.56 0.87 1.43 2.01 2.42 2.74 2.90 2.92 2.81 2.64 2.36 1.99 1.68 1.40 1.08 0.81 0.65 0.51 0.41 0.33 0.23 0.15 0.09 0.06 0.04 0.03 0.02 0.02 0.01 0.01 0.01 0.01 0.01 0.00 0.00 0.00 0.00 0.00 0.00 0.00 0.00

GEFSSE_prec_meanprecacc_054.txt.gz
Total_Precipitation_Accumulation
0.00 0.00 0.01 0.02 0.05 0.06 0.05 0.06 0.09 0.11 0.11 0.10 0.10 0.10 0.11 0.10 0.08 0.07 0.06 0.08 0.12 0.17 0.20 0.20 0.15 0.11 0.08 0.06 0.03 0.01 0.01 0.02 0.03 0.06 0.08 0.10 0.12 0.12 0.12 0.14 0.17 0.19 0.09
0.00 0.00 0.01 0.01 0.03 0.05 0.05 0.07 0.09 0.10 0.11 0.12 0.13 0.14 0.14 0.10 0.07 0.07 0.07 0.09 0.14 0.18 0.18 0.17 0.13 0.08 0.07 0.04 0.02 0.01 0.01 0.02 0.05 0.09 0.11 0.13 0.18 0.16 0.16 0.16 0.21 0.26 0.16
0.00 0.00 0.00 0.01 0.01 0.04 0.05 0.07 0.08 0.08 0.09 0.11 0.11 0.12 0.09 0.08 0.07 0.06 0.06 0.09 0.12 0.13 0.12 0.08 0.04 0.03 0.02 0.01 0.00 0.01 0.02 0.04 0.07 0.14 0.32 0.28 0.22 0.14 0.17 0.17 0.14 0.13 0.15
0.00 0.00 0.00 0.01 0.02 0.03 0.03 0.05 0.09 0.09 0.08 0.09 0.09 0.08 0.07 0.06 0.06 0.06 0.07 0.08 0.10 0.09 0.05 0.03 0.01 0.01 0.01 0.00 0.00 0.01 0.02 0.05 0.10 0.25 0.51 0.41 0.30 0.20 0.20 0.20 0.16 0.13 0.14
0.00 0.00 0.01 0.01 0.02 0.04 0.04 0.03 0.07 0.10 0.10 0.09 0.09 0.09 0.09 0.08 0.07 0.07 0.08 0.09 0.08 0.07 0.08 0.06 0.04 0.01 0.01 0.01 0.01 0.02 0.04 0.07 0.14 0.36 0.70 0.67 0.48 0.36 0.26 0.25 0.26 0.21 0.18
0.00 0.00 0.01 0.02 0.03 0.06 0.06 0.04 0.06 0.08 0.10 0.11 0.11 0.11 0.10 0.10 0.08 0.07 0.07 0.08 0.08 0.09 0.11 0.13 0.08 0.02 0.01 0.01 0.02 0.04 0.06 0.09 0.20 0.44 0.84 0.93 0.58 0.35 0.28 0.29 0.30 0.26 0.20
0.00 0.00 0.00 0.03 0.04 0.06 0.07 0.08 0.08 0.07 0.09 0.12 0.13 0.11 0.09 0.09 0.08 0.08 0.08 0.07 0.09 0.12 0.14 0.11 0.05 0.02 0.01 0.01 0.03 0.05 0.08 0.12 0.24 0.61 0.90 0.82 0.64 0.36 0.29 0.30 0.30 0.26 0.19
0.00 0.00 0.01 0.03 0.04 0.06 0.09 0.10 0.13 0.12 0.11 0.13 0.13 0.10 0.09 0.08 0.08 0.09 0.08 0.09 0.11 0.16 0.15 0.06 0.01 0.00 0.00 0.01 0.02 0.05 0.09 0.10 0.17 0.52 0.83 0.60 0.45 0.27 0.22 0.23 0.24 0.22 0.18
0.00 0.00 0.00 0.01 0.02 0.06 0.10 0.10 0.12 0.14 0.13 0.12 0.11 0.12 0.12 0.12 0.12 0.13 0.11 0.11 0.14 0.15 0.10 0.03 0.01 0.00 0.01 0.01 0.02 0.03 0.05 0.06 0.16 0.26 0.34 0.30 0.28 0.16 0.11 0.10 0.09 0.09 0.08
0.00 0.00 0.00 0.00 0.03 0.03 0.02 0.06 0.08 0.12 0.14 0.11 0.08 0.10 0.12 0.11 0.10 0.10 0.09 0.09 0.10 0.10 0.07 0.03 0.02 0.01 0.01 0.01 0.01 0.02 0.03 0.05 0.10 0.17 0.24 0.16 0.10 0.06 0.06 0.05 0.04 0.03 0.02
0.01 0.01 0.01 0.01 0.04 0.04 0.02 0.02 0.04 0.07 0.08 0.05 0.04 0.06 0.06 0.15 0.20 0.17 0.10 0.09 0.08 0.07 0.06 0.04 0.03 0.01 0.01 0.00 0.01 0.01 0.02 0.03 0.11 0.21 0.28 0.19 0.07 0.04 0.02 0.02 0.02 0.01 0.01
0.01 0.00 0.00 0.01 0.02 0.06 0.03 0.01 0.02 0.02 0.02 0.03 0.09 0.06 0.12 0.27 0.33 0.24 0.19 0.11 0.08 0.07 0.06 0.05 0.03 0.02 0.01 0.00 0.01 0.01 0.01 0.03 0.11 0.23 0.20 0.10 0.06 0.03 0.02 0.02 0.01 0.01 0.00
0.01 0.00 0.01 0.01 0.03 0.14 0.04 0.03 0.04 0.05 0.09 0.11 0.18 0.17 0.22 0.27 0.23 0.27 0.31 0.18 0.12 0.10 0.09 0.08 0.04 0.03 0.01 0.01 0.01 0.01 0.02 0.03 0.05 0.09 0.10 0.07 0.05 0.04 0.03 0.02 0.01 0.01 0.00
0.02 0.01 0.00 0.01 0.01 0.02 0.03 0.04 0.05 0.05 0.07 0.12 0.18 0.14 0.24 0.29 0.30 0.31 0.35 0.27 0.25 0.22 0.19 0.12 0.08 0.06 0.04 0.03 0.02 0.02 0.02 0.01 0.02 0.03 0.06 0.08 0.07 0.07 0.05 0.04 0.03 0.02 0.03
0.04 0.01 0.00 0.00 0.01 0.02 0.06 0.05 0.04 0.05 0.05 0.09 0.14 0.14 0.17 0.22 0.27 0.30 0.29 0.28 0.25 0.25 0.21 0.12 0.10 0.10 0.05 0.05 0.03 0.03 0.04 0.02 0.03 0.03 0.07 0.09 0.09 0.10 0.09 0.07 0.05 0.05 0.05
0.05 0.02 0.01 0.00 0.01 0.01 0.03 0.03 0.04 0.03 0.07 0.09 0.12 0.15 0.15 0.23 0.33 0.35 0.32 0.33 0.33 0.32 0.33 0.22 0.18 0.18 0.09 0.06 0.06 0.06 0.06 0.05 0.05 0.04 0.07 0.08 0.09 0.11 0.13 0.12 0.11 0.10 0.10
0.06 0.04 0.02 0.00 0.00 0.01 0.03 0.03 0.03 0.03 0.04 0.08 0.12 0.17 0.15 0.19 0.33 0.36 0.40 0.42 0.41 0.37 0.37 0.33 0.31 0.28 0.24 0.18 0.15 0.11 0.09 0.10 0.11 0.10 0.11 0.12 0.11 0.13 0.14 0.13 0.12 0.11 0.10
0.07 0.06 0.04 0.02 0.01 0.02 0.03 0.03 0.05 0.06 0.08 0.09 0.12 0.16 0.16 0.20 0.27 0.36 0.41 0.47 0.48 0.47 0.49 0.50 0.47 0.39 0.32 0.27 0.24 0.20 0.17 0.15 0.15 0.16 0.19 0.21 0.20 0.20 0.16 0.11 0.10 0.09 0.09
0.07 0.08 0.07 0.04 0.04 0.04 0.06 0.08 0.09 0.08 0.12 0.15 0.20 0.25 0.31 0.35 0.41 0.49 0.56 0.64 0.65 0.68 0.69 0.64 0.61 0.52 0.48 0.43 0.34 0.26 0.18 0.17 0.18 0.16 0.17 0.17 0.17 0.19 0.18 0.13 0.09 0.07 0.07
0.09 0.10 0.10 0.11 0.14 0.14 0.15 0.16 0.20 0.25 0.30 0.35 0.40 0.48 0.56 0.66 0.78 0.87 0.91 0.93 0.90 0.89 0.82 0.75 0.68 0.59 0.53 0.47 0.33 0.25 0.20 0.18 0.18 0.16 0.13 0.11 0.10 0.09 0.09 0.09 0.07 0.06 0.07
0.20 0.19 0.18 0.17 0.23 0.31 0.41 0.53 0.66 0.80 0.87 0.86 0.92 1.03 1.20 1.33 1.40 1.41 1.37 1.30 1.20 1.09 0.97 0.84 0.71 0.61 0.54 0.47 0.40 0.31 0.21 0.16 0.14 0.13 0.11 0.11 0.10 0.07 0.06 0.06 0.05 0.03 0.04
0.31 0.27 0.26 0.32 0.47 0.69 0.94 1.17 1.36 1.49 1.58 1.61 1.65 1.76 1.84 1.95 2.02 2.02 1.94 1.86 1.71 1.42 1.07 0.83 0.71 0.66 0.57 0.49 0.46 0.42 0.30 0.18 0.11 0.08 0.07 0.08 0.08 0.07 0.06 0.05 0.05 0.05 0.04
0.40 0.41 0.42 0.50 0.82 1.21 1.53 1.82 2.08 2.31 2.44 2.43 2.35 2.35 2.38 2.41 2.40 2.40 2.29 2.05 1.69 1.31 1.02 0.84 0.76 0.68 0.57 0.48 0.40 0.40 0.38 0.33 0.20 0.10 0.06 0.04 0.04 0.04 0.04 0.04 0.04 0.04 0.03
0.44 0.52 0.57 0.71 1.04 1.42 1.77 2.23 2.61 2.83 2.99 3.17 3.09 2.94 2.73 2.51 2.42 2.27 2.05 1.66 1.33 1.09 0.92 0.83 0.72 0.59 0.52 0.41 0.32 0.27 0.25 0.24 0.21 0.13 0.07 0.03 0.02 0.02 0.02 0.02 0.02 0.02 0.01
0.47 0.49 0.59 0.84 1.24 1.83 2.36 2.76 2.97 3.16 3.29 3.29 3.11 2.86 2.56 2.26 1.90 1.60 1.36 1.10 0.91 0.74 0.59 0.51 0.47 0.41 0.33 0.25 0.21 0.17 0.13 0.11 0.10 0.09 0.07 0.03 0.02 0.01 0.01 0.01 0.01 0.01 0.01
0.47 0.50 0.68 0.99 1.56 2.15 2.58 2.94 3.15 3.22 3.12 2.94 2.65 2.27 1.99 1.72 1.38 1.08 0.89 0.71 0.59 0.48 0.36 0.27 0.22 0.18 0.15 0.14 0.12 0.09 0.07 0.07 0.06 0.07 0.06 0.04 0.02 0.01 0.01 0.01 0.01 0.01 0.01

GEFSSE_prec_meanprecacc_060.txt.gz
Total_Precipitation_Accumulation
0.01 0.00 0.01 0.02 0.05 0.06 0.05 0.06 0.09 0.11 0.11 0.10 0.10 0.10 0.11 0.10 0.08 0.07 0.06 0.08 0.12 0.17 0.20 0.20 0.15 0.11 0.09 0.06 0.03 0.02 0.02 0.03 0.05 0.08 0.11 0.13 0.13 0.13 0.13 0.14 0.18 0.19 0.09
0.01 0.00 0.01 0.01 0.03 0.05 0.05 0.07 0.09 0.10 0.11 0.12 0.13 0.14 0.14 0.10 0.07 0.07 0.07 0.09 0.14 0.18 0.18 0.17 0.13 0.09 0.07 0.04 0.02 0.01 0.02 0.04 0.08 0.12 0.14 0.16 0.20 0.17 0.17 0.17 0.21 0.27 0.17
0.01 0.00 0.01 0.01 0.01 0.04 0.05 0.07 0.08 0.08 0.09 0.11 0.11 0.12 0.10 0.08 0.07 0.06 0.06 0.09 0.12 0.13 0.12 0.08 0.04 0.03 0.03 0.01 0.01 0.01 0.02 0.05 0.10 0.17 0.34 0.29 0.24 0.16 0.18 0.18 0.15 0.13 0.16
0.01 0.00 0.00 0.01 0.02 0.03 0.03 0.05 0.09 0.09 0.09 0.09 0.09 0.09 0.08 0.07 0.07 0.06 0.07 0.09 0.10 0.09 0.05 0.03 0.01 0.01 0.01 0.00 0.01 0.01 0.03 0.06 0.12 0.29 0.54 0.43 0.31 0.21 0.21 0.20 0.16 0.13 0.15
0.01 0.00 0.01 0.01 0.02 0.04 0.04 0.03 0.07 0.10 0.10 0.09 0.09 0.09 0.10 0.09 0.08 0.07 0.08 0.09 0.09 0.08 0.08 0.07 0.04 0.01 0.01 0.01 0.01 0.02 0.05 0.09 0.17 0.40 0.74 0.70 0.50 0.37 0.27 0.25 0.27 0.21 0.19
0.00 0.00 0.01 0.02 0.03 0.06 0.06 0.04 0.06 0.08 0.10 0.11 0.12 0.12 0.11 0.11 0.09 0.07 0.08 0.08 0.08 0.09 0.11 0.13 0.08 0.02 0.01 0.01 0.02 0.04 0.07 0.11 0.24 0.49 0.90 0.97 0.60 0.36 0.29 0.29 0.30 0.26 0.21
0.01 0.00 0.01 0.03 0.04 0.06 0.07 0.08 0.08 0.07 0.09 0.13 0.14 0.11 0.10 0.10 0.09 0.09 0.08 0.07 0.09 0.12 0.14 0.11 0.05 0.02 0.01 0.01 0.03 0.06 0.09 0.15 0.29 0.69 0.99 0.87 0.67 0.37 0.30 0.30 0.30 0.26 0.19
0.01 0.00 0.01 0.03 0.04 0.06 0.09 0.10 0.13 0.12 0.12 0.14 0.14 0.11 0.10 0.08 0.08 0.10 0.09 0.09 0.11 0.16 0.15 0.06 0.01 0.00 0.00 0.01 0.02 0.05 0.10 0.12 0.23 0.64 0.95 0.67 0.48 0.29 0.23 0.24 0.24 0.22 0.18
0.00 0.00 0.00 0.01 0.02 0.06 0.10 0.11 0.13 0.15 0.14 0.13 0.12 0.12 0.12 0.12 0.13 0.13 0.12 0.11 0.14 0.15 0.10 0.03 0.01 0.00 0.01 0.01 0.02 0.03 0.06 0.09 0.22 0.39 0.46 0.37 0.32 0.18 0.12 0.11 0.09 0.09 0.08
0.01 0.01 0.00 0.01 0.03 0.03 0.02 0.06 0.09 0.12 0.15 0.11 0.09 0.10 0.12 0.11 0.10 0.10 0.09 0.09 0.10 0.10 0.07 0.03 0.02 0.01 0.01 0.01 0.01 0.02 0.04 0.07 0.15 0.29 0.39 0.26 0.15 0.10 0.07 0.06 0.04 0.03 0.02
0.02 0.01 0.01 0.01 0.04 0.04 0.02 0.02 0.04 0.07 0.09 0.06 0.04 0.06 0.06 0.16 0.20 0.17 0.10 0.09 0.08 0.07 0.06 0.04 0.03 0.01 0.01 0.00 0.01 0.01 0.02 0.05 0.16 0.32 0.41 0.28 0.12 0.07 0.04 0.03 0.03 0.02 0.01
0.02 0.01 0.01 0.01 0.02 0.06 0.03 0.01 0.02 0.02 0.02 0.03 0.09 0.06 0.12 0.27 0.33 0.24 0.19 0.11 0.08 0.07 0.06 0.05 0.03 0.02 0.01 0.00 0.01 0.01 0.01 0.04 0.17 0.32 0.28 0.17 0.11 0.06 0.04 0.03 0.02 0.01 0.00
0.03 0.01 0.01 0.01 0.03 0.14 0.04 0.03 0.04 0.05 0.09 0.11 0.18 0.17 0.22 0.27 0.24 0.27 0.31 0.18 0.12 0.10 0.09 0.08 0.04 0.03 0.02 0.02 0.02 0.02 0.02 0.05 0.09 0.17 0.17 0.13 0.10 0.07 0.04 0.02 0.01 0.01 0.01
0.04 0.01 0.01 0.01 0.01 0.02 0.03 0.04 0.05 0.05 0.08 0.12 0.18 0.14 0.24 0.30 0.31 0.32 0.35 0.28 0.25 0.22 0.19 0.12 0.08 0.07 0.05 0.04 0.03 0.03 0.04 0.04 0.06 0.08 0.12 0.14 0.13 0.12 0.07 0.05 0.03 0.03 0.03
0.07 0.03 0.01 0.00 0.01 0.02 0.06 0.06 0.04 0.05 0.05 0.09 0.14 0.14 0.17 0.23 0.28 0.33 0.31 0.29 0.27 0.28 0.24 0.14 0.12 0.13 0.08 0.08 0.05 0.06 0.07 0.06 0.06 0.08 0.12 0.16 0.16 0.16 0.14 0.09 0.06 0.05 0.06
0.10 0.05 0.02 0.01 0.01 0.02 0.04 0.04 0.04 0.03 0.07 0.10 0.13 0.15 0.16 0.24 0.35 0.37 0.35 0.36 0.35 0.35 0.38 0.28 0.24 0.24 0.13 0.10 0.10 0.10 0.11 0.10 0.10 0.11 0.14 0.17 0.18 0.19 0.20 0.18 0.13 0.11 0.11
0.12 0.07 0.05 0.02 0.02 0.02 0.04 0.04 0.04 0.04 0.06 0.10 0.16 0.22 0.17 0.21 0.36 0.39 0.44 0.46 0.45 0.42 0.43 0.39 0.37 0.36 0.32 0.26 0.22 0.18 0.16 0.16 0.18 0.19 0.22 0.24 0.22 0.22 0.22 0.21 0.18 0.15 0.13
0.13 0.09 0.07 0.04 0.03 0.04 0.04 0.05 0.07 0.10 0.13 0.15 0.16 0.23 0.23 0.26 0.32 0.40 0.46 0.53 0.53 0.51 0.55 0.55 0.54 0.47 0.42 0.38 0.36 0.32 0.28 0.25 0.25 0.28 0.34 0.37 0.35 0.31 0.28 0.24 0.20 0.17 0.15
0.14 0.12 0.09 0.07 0.08 0.08 0.08 0.10 0.12 0.12 0.15 0.23 0.27 0.31 0.39 0.48 0.48 0.55 0.60 0.68 0.68 0.73 0.74 0.72 0.71 0.61 0.58 0.57 0.50 0.42 0.33 0.33 0.33 0.31 0.35 0.36 0.32 0.30 0.29 0.25 0.19 0.16 0.15
0.21 0.21 0.17 0.16 0.19 0.18 0.20 0.21 0.27 0.31 0.36 0.43 0.51 0.57 0.62 0.72 0.84 0.94 0.97 0.98 0.95 0.95 0.89 0.87 0.84 0.76 0.67 0.63 0.49 0.41 0.37 0.37 0.37 0.35 0.31 0.27 0.24 0.20 0.20 0.19 0.15 0.14 0.17
0.51 0.46 0.37 0.28 0.30 0.37 0.46 0.59 0.73 0.89 0.95 0.95 1.03 1.15 1.31 1.43 1.50 1.51 1.49 1.42 1.31 1.20 1.11 1.00 0.87 0.78 0.71 0.64 0.58 0.48 0.37 0.31 0.29 0.27 0.24 0.24 0.23 0.20 0.18 0.17 0.14 0.12 0.13
0.80 0.73 0.61 0.55 0.63 0.81 1.04 1.25 1.45 1.60 1.72 1.77 1.81 1.94 2.05 2.14 2.20 2.21 2.14 2.05 1.92 1.65 1.29 1.04 0.90 0.85 0.76 0.69 0.66 0.61 0.45 0.29 0.21 0.17 0.17 0.17 0.18 0.18 0.18 0.17 0.15 0.13 0.12
1.01 0.97 0.88 0.86 1.09 1.44 1.73 2.00 2.23 2.47 2.62 2.63 2.55 2.58 2.63 2.64 2.64 2.64 2.55 2.32 1.96 1.55 1.22 1.05 0.99 0.90 0.80 0.70 0.62 0.61 0.54 0.44 0.28 0.17 0.13 0.11 0.11 0.11 0.12 0.13 0.13 0.13 0.12
1.16 1.18 1.13 1.12 1.34 1.67 2.01 2.45 2.80 3.02 3.20 3.39 3.34 3.19 3.00 2.80 2.70 2.56 2.33 1.93 1.57 1.30 1.12 1.05 0.96 0.83 0.74 0.62 0.52 0.45 0.39 0.35 0.30 0.20 0.13 0.09 0.07 0.06 0.06 0.07 0.07 0.07 0.06
1.24 1.18 1.17 1.28 1.60 2.16 2.69 3.07 3.28 3.48 3.61 3.60 3.42 3.17 2.89 2.59 2.22 1.91 1.64 1.36 1.19 1.02 0.86 0.75 0.66 0.56 0.47 0.39 0.33 0.29 0.24 0.20 0.18 0.16 0.13 0.09 0.08 0.08 0.07 0.07 0.06 0.06 0.05
1.02 1.13 1.27 1.45 1.94 2.54 3.00 3.33 3.53 3.59 3.46 3.27 2.99 2.64 2.39 2.12 1.75 1.42 1.19 1.00 0.86 0.71 0.55 0.41 0.33 0.26 0.23 0.22 0.21 0.18 0.16 0.15 0.15 0.15 0.15 0.11 0.09 0.09 0.08 0.09 0.09 0.09 0.08

GEFSSE_prec_meanprecacc_066.txt.gz
Total_Precipitation_Accumulation
0.01 0.00 0.01 0.02 0.05 0.06 0.05 0.06 0.09 0.11 0.11 0.10 0.10 0.10 0.11 0.10 0.08 0.07 0.06 0.08 0.12 0.18 0.20 0.20 0.16 0.11 0.09 0.07 0.04 0.03 0.02 0.03 0.06 0.09 0.12 0.14 0.15 0.14 0.14 0.15 0.18 0.20 0.10
0.01 0.00 0.01 0.01 0.03 0.05 0.05 0.07 0.09 0.10 0.11 0.12 0.13 0.14 0.14 0.10 0.07 0.07 0.07 0.09 0.14 0.18 0.18 0.17 0.13 0.09 0.08 0.04 0.02 0.02 0.02 0.04 0.09 0.13 0.16 0.19 0.23 0.19 0.18 0.18 0.22 0.27 0.18
0.01 0.00 0.01 0.01 0.01 0.04 0.05 0.07 0.08 0.08 0.09 0.11 0.11 0.12 0.10 0.08 0.07 0.06 0.06 0.09 0.12 0.14 0.12 0.08 0.04 0.03 0.03 0.02 0.01 0.02 0.03 0.06 0.11 0.18 0.36 0.31 0.27 0.20 0.19 0.18 0.16 0.14 0.17
0.01 0.00 0.00 0.01 0.02 0.03 0.03 0.05 0.09 0.09 0.09 0.09 0.09 0.09 0.08 0.07 0.07 0.06 0.07 0.09 0.10 0.09 0.06 0.03 0.02 0.01 0.01 0.01 0.01 0.02 0.03 0.07 0.14 0.30 0.54 0.44 0.34 0.25 0.22 0.21 0.17 0.14 0.15
0.01 0.00 0.01 0.01 0.02 0.04 0.04 0.03 0.07 0.10 0.10 0.09 0.09 0.09 0.10 0.09 0.08 0.07 0.08 0.09 0.09 0.08 0.08 0.07 0.05 0.01 0.01 0.01 0.01 0.03 0.05 0.10 0.19 0.41 0.75 0.71 0.52 0.39 0.28 0.26 0.27 0.22 0.19
0.01 0.00 0.01 0.02 0.03 0.06 0.06 0.04 0.06 0.08 0.10 0.11 0.12 0.12 0.11 0.11 0.09 0.07 0.08 0.08 0.08 0.09 0.11 0.13 0.08 0.02 0.01 0.01 0.02 0.05 0.08 0.12 0.25 0.50 0.91 0.98 0.61 0.37 0.30 0.30 0.30 0.26 0.21
0.02 0.01 0.01 0.03 0.04 0.06 0.07 0.08 0.08 0.07 0.09 0.13 0.14 0.11 0.10 0.10 0.09 0.09 0.08 0.07 0.09 0.12 0.14 0.11 0.05 0.02 0.01 0.01 0.03 0.06 0.10 0.16 0.30 0.70 1.00 0.88 0.68 0.39 0.30 0.30 0.31 0.26 0.20
0.05 0.03 0.02 0.04 0.05 0.07 0.10 0.10 0.13 0.12 0.12 0.14 0.14 0.11 0.10 0.08 0.08 0.10 0.09 0.09 0.12 0.16 0.15 0.06 0.01 0.00 0.00 0.01 0.02 0.05 0.11 0.14 0.25 0.65 0.97 0.68 0.50 0.31 0.25 0.25 0.25 0.22 0.18
0.05 0.03 0.02 0.03 0.04 0.06 0.11 0.11 0.13 0.15 0.14 0.13 0.12 0.12 0.12 0.13 0.13 0.13 0.12 0.11 0.14 0.15 0.10 0.03 0.01 0.00 0.01 0.01 0.02 0.04 0.07 0.11 0.23 0.41 0.47 0.37 0.33 0.21 0.14 0.12 0.10 0.09 0.08
0.05 0.03 0.02 0.02 0.03 0.03 0.02 0.06 0.09 0.12 0.15 0.12 0.09 0.11 0.12 0.12 0.11 0.10 0.09 0.10 0.10 0.10 0.07 0.03 0.02 0.01 0.01 0.01 0.01 0.02 0.05 0.08 0.16 0.30 0.40 0.27 0.18 0.12 0.10 0.07 0.05 0.03 0.02
0.08 0.06 0.02 0.02 0.05 0.05 0.02 0.02 0.05 0.08 0.10 0.06 0.05 0.06 0.07 0.16 0.20 0.17 0.10 0.09 0.08 0.07 0.06 0.04 0.03 0.01 0.01 0.00 0.01 0.01 0.02 0.05 0.16 0.33 0.42 0.29 0.16 0.11 0.07 0.04 0.03 0.02 0.01
0.09 0.06 0.05 0.04 0.03 0.07 0.03 0.02 0.02 0.02 0.02 0.03 0.09 0.06 0.12 0.27 0.33 0.24 0.19 0.11 0.08 0.08 0.06 0.05 0.03 0.02 0.01 0.00 0.01 0.01 0.01 0.05 0.17 0.33 0.30 0.20 0.15 0.11 0.08 0.04 0.02 0.01 0.01
0.11 0.04 0.04 0.07 0.06 0.15 0.05 0.03 0.04 0.05 0.10 0.11 0.18 0.17 0.22 0.27 0.24 0.27 0.31 0.18 0.13 0.10 0.10 0.08 0.04 0.03 0.02 0.02 0.02 0.02 0.03 0.05 0.10 0.18 0.18 0.16 0.15 0.13 0.09 0.06 0.04 0.02 0.02
0.12 0.05 0.04 0.05 0.05 0.05 0.05 0.06 0.06 0.05 0.08 0.12 0.18 0.14 0.24 0.30 0.31 0.32 0.35 0.28 0.25 0.23 0.20 0.13 0.08 0.07 0.05 0.04 0.04 0.04 0.04 0.04 0.07 0.09 0.13 0.17 0.19 0.19 0.15 0.10 0.06 0.05 0.04
0.14 0.07 0.04 0.04 0.04 0.04 0.09 0.07 0.05 0.05 0.06 0.09 0.14 0.15 0.17 0.23 0.28 0.33 0.31 0.30 0.28 0.29 0.26 0.15 0.13 0.14 0.09 0.09 0.07 0.07 0.08 0.07 0.07 0.09 0.14 0.21 0.22 0.23 0.23 0.17 0.12 0.10 0.08
0.19 0.11 0.06 0.03 0.03 0.04 0.07 0.06 0.05 0.05 0.08 0.10 0.13 0.16 0.16 0.24 0.35 0.38 0.36 0.39 0.39 0.39 0.42 0.32 0.27 0.27 0.18 0.15 0.14 0.15 0.15 0.13 0.14 0.14 0.18 0.22 0.25 0.27 0.32 0.30 0.23 0.19 0.16
0.27 0.18 0.12 0.06 0.04 0.05 0.07 0.08 0.07 0.06 0.08 0.11 0.17 0.22 0.19 0.23 0.38 0.41 0.46 0.49 0.50 0.47 0.48 0.44 0.43 0.43 0.38 0.32 0.29 0.25 0.22 0.23 0.24 0.24 0.28 0.31 0.30 0.32 0.33 0.32 0.30 0.26 0.22
0.29 0.26 0.18 0.09 0.08 0.09 0.09 0.10 0.10 0.12 0.15 0.17 0.19 0.25 0.25 0.30 0.37 0.45 0.50 0.57 0.59 0.56 0.59 0.60 0.60 0.55 0.49 0.44 0.43 0.40 0.36 0.32 0.31 0.34 0.40 0.46 0.46 0.41 0.37 0.35 0.33 0.31 0.29
0.29 0.32 0.28 0.20 0.19 0.19 0.19 0.20 0.20 0.17 0.20 0.28 0.32 0.35 0.44 0.53 0.54 0.61 0.66 0.76 0.76 0.81 0.81 0.79 0.78 0.68 0.65 0.63 0.57 0.50 0.41 0.39 0.40 0.38 0.42 0.43 0.42 0.40 0.39 0.38 0.35 0.32 0.31
0.40 0.43 0.40 0.39 0.40 0.38 0.38 0.39 0.41 0.41 0.44 0.51 0.60 0.66 0.71 0.82 0.93 1.04 1.10 1.13 1.09 1.08 1.03 1.00 0.95 0.86 0.75 0.71 0.57 0.49 0.45 0.44 0.44 0.43 0.39 0.35 0.33 0.31 0.31 0.30 0.27 0.27 0.32
0.71 0.71 0.65 0.58 0.61 0.68 0.77 0.83 0.94 1.06 1.12 1.14 1.21 1.32 1.50 1.64 1.71 1.73 1.74 1.64 1.50 1.38 1.28 1.17 1.01 0.89 0.80 0.72 0.65 0.54 0.42 0.35 0.33 0.32 0.31 0.32 0.33 0.32 0.29 0.29 0.26 0.24 0.27
0.97 0.97 0.98 0.98 1.09 1.27 1.50 1.67 1.81 1.96 2.06 2.09 2.11 2.23 2.34 2.47 2.54 2.54 2.46 2.33 2.18 1.89 1.50 1.22 1.05 0.96 0.86 0.79 0.75 0.68 0.50 0.33 0.24 0.21 0.22 0.25 0.27 0.29 0.29 0.27 0.24 0.23 0.24
1.25 1.29 1.35 1.46 1.72 2.06 2.33 2.57 2.72 2.91 3.04 2.97 2.83 2.87 2.96 3.02 3.03 3.06 2.97 2.70 2.30 1.83 1.44 1.22 1.14 1.04 0.92 0.82 0.74 0.71 0.61 0.48 0.31 0.20 0.16 0.16 0.17 0.18 0.19 0.21 0.21 0.22 0.23
1.38 1.47 1.57 1.77 2.12 2.49 2.80 3.18 3.43 3.52 3.63 3.77 3.67 3.52 3.34 3.15 3.05 2.91 2.70 2.28 1.85 1.52 1.31 1.21 1.10 0.94 0.84 0.70 0.62 0.54 0.48 0.41 0.35 0.24 0.17 0.13 0.11 0.10 0.12 0.13 0.14 0.15 0.16
1.39 1.40 1.48 1.80 2.28 2.87 3.45 3.81 4.00 4.10 4.09 4.02 3.80 3.53 3.23 2.91 2.53 2.21 1.91 1.60 1.40 1.22 1.04 0.89 0.78 0.66 0.56 0.46 0.39 0.35 0.31 0.26 0.24 0.22 0.19 0.14 0.13 0.12 0.12 0.13 0.14 0.14 0.14
1.14 1.33 1.54 1.85 2.45 3.10 3.56 3.88 4.09 4.13 3.93 3.68 3.33 2.92 2.66 2.39 2.02 1.67 1.43 1.21 1.03 0.86 0.67 0.53 0.43 0.37 0.33 0.31 0.27 0.24 0.21 0.20 0.20 0.21 0.22 0.19 0.16 0.16 0.15 0.15 0.16 0.17 0.18

GEFSSE_prec_meanprecacc_072.txt.gz
Total_Precipitation_Accumulation
0.01 0.00 0.01 0.02 0.05 0.06 0.06 0.07 0.10 0.12 0.11 0.10 0.10 0.10 0.11 0.10 0.08 0.07 0.06 0.08 0.12 0.18 0.21 0.21 0.17 0.13 0.11 0.09 0.05 0.04 0.04 0.05 0.07 0.09 0.12 0.14 0.15 0.15 0.15 0.16 0.18 0.20 0.10
0.01 0.00 0.01 0.01 0.03 0.05 0.06 0.08 0.09 0.11 0.12 0.12 0.13 0.14 0.14 0.10 0.07 0.07 0.07 0.09 0.14 0.18 0.18 0.17 0.14 0.10 0.09 0.06 0.03 0.02 0.03 0.05 0.09 0.14 0.18 0.20 0.24 0.20 0.19 0.18 0.22 0.28 0.18
0.01 0.00 0.01 0.01 0.01 0.04 0.05 0.08 0.08 0.08 0.10 0.11 0.12 0.12 0.10 0.08 0.07 0.06 0.06 0.09 0.12 0.14 0.12 0.08 0.05 0.04 0.04 0.02 0.01 0.02 0.03 0.06 0.12 0.21 0.39 0.33 0.29 0.20 0.20 0.18 0.16 0.14 0.17
0.01 0.00 0.00 0.01 0.02 0.03 0.04 0.06 0.09 0.09 0.09 0.09 0.09 0.09 0.08 0.07 0.07 0.06 0.07 0.09 0.10 0.09 0.06 0.03 0.02 0.01 0.01 0.01 0.01 0.02 0.04 0.08 0.16 0.33 0.58 0.48 0.36 0.25 0.22 0.21 0.17 0.14 0.16
0.01 0.01 0.02 0.01 0.03 0.04 0.04 0.04 0.07 0.10 0.10 0.09 0.09 0.09 0.10 0.09 0.08 0.07 0.08 0.09 0.09 0.08 0.08 0.07 0.05 0.02 0.01 0.01 0.02 0.03 0.06 0.11 0.21 0.43 0.77 0.75 0.59 0.43 0.30 0.27 0.28 0.22 0.20
0.01 0.00 0.01 0.02 0.03 0.06 0.06 0.05 0.06 0.08 0.10 0.12 0.12 0.12 0.11 0.11 0.09 0.07 0.08 0.09 0.08 0.09 0.12 0.13 0.09 0.03 0.02 0.02 0.02 0.05 0.09 0.15 0.27 0.51 0.93 1.01 0.66 0.41 0.32 0.32 0.32 0.27 0.22
0.02 0.01 0.01 0.04 0.05 0.06 0.07 0.08 0.08 0.07 0.09 0.13 0.14 0.11 0.10 0.10 0.09 0.09 0.09 0.08 0.09 0.12 0.14 0.11 0.06 0.02 0.01 0.02 0.04 0.07 0.12 0.20 0.33 0.71 1.03 0.91 0.73 0.42 0.34 0.34 0.34 0.28 0.21
0.05 0.03 0.03 0.05 0.05 0.07 0.10 0.11 0.13 0.13 0.12 0.14 0.14 0.11 0.10 0.08 0.08 0.10 0.09 0.09 0.12 0.16 0.15 0.07 0.01 0.00 0.01 0.01 0.03 0.07 0.14 0.19 0.28 0.69 1.01 0.72 0.54 0.34 0.28 0.29 0.28 0.24 0.20
0.05 0.03 0.03 0.03 0.05 0.08 0.11 0.11 0.13 0.15 0.14 0.13 0.12 0.12 0.13 0.13 0.13 0.13 0.12 0.11 0.14 0.15 0.10 0.03 0.01 0.01 0.01 0.01 0.02 0.05 0.10 0.16 0.30 0.47 0.51 0.42 0.37 0.24 0.17 0.15 0.13 0.12 0.11
0.05 0.03 0.02 0.03 0.05 0.05 0.04 0.07 0.09 0.13 0.16 0.12 0.09 0.11 0.12 0.12 0.11 0.11 0.09 0.10 0.11 0.10 0.07 0.03 0.02 0.01 0.01 0.01 0.01 0.03 0.07 0.12 0.20 0.34 0.46 0.32 0.21 0.16 0.16 0.13 0.08 0.05 0.05
0.10 0.07 0.03 0.03 0.06 0.06 0.03 0.03 0.05 0.09 0.11 0.08 0.05 0.06 0.07 0.16 0.20 0.17 0.11 0.09 0.08 0.08 0.06 0.04 0.03 0.01 0.01 0.00 0.01 0.02 0.03 0.07 0.19 0.38 0.49 0.34 0.21 0.18 0.14 0.11 0.06 0.04 0.03
0.12 0.09 0.07 0.06 0.05 0.09 0.04 0.03 0.03 0.02 0.03 0.04 0.09 0.06 0.12 0.28 0.33 0.25 0.20 0.12 0.09 0.08 0.06 0.05 0.04 0.03 0.01 0.01 0.01 0.01 0.01 0.05 0.19 0.36 0.33 0.23 0.21 0.20 0.17 0.12 0.07 0.04 0.03
0.17 0.09 0.09 0.10 0.10 0.18 0.07 0.06 0.06 0.06 0.10 0.12 0.18 0.17 0.23 0.28 0.25 0.28 0.31 0.18 0.13 0.10 0.10 0.08 0.04 0.03 0.02 0.02 0.02 0.02 0.03 0.06 0.11 0.19 0.19 0.18 0.21 0.23 0.22 0.17 0.12 0.07 0.05
0.22 0.12 0.10 0.11 0.11 0.12 0.11 0.12 0.09 0.07 0.09 0.12 0.19 0.15 0.25 0.31 0.32 0.33 0.35 0.28 0.25 0.23 0.20 0.13 0.09 0.08 0.05 0.05 0.04 0.04 0.04 0.05 0.07 0.10 0.15 0.20 0.24 0.29 0.30 0.27 0.20 0.14 0.11
0.24 0.16 0.10 0.09 0.10 0.13 0.20 0.18 0.13 0.10 0.09 0.11 0.16 0.16 0.19 0.24 0.29 0.33 0.32 0.31 0.29 0.30 0.27 0.17 0.15 0.15 0.10 0.11 0.09 0.08 0.10 0.07 0.08 0.10 0.16 0.23 0.27 0.32 0.38 0.36 0.28 0.21 0.18
0.25 0.23 0.20 0.12 0.11 0.13 0.16 0.15 0.12 0.11 0.14 0.15 0.17 0.19 0.20 0.27 0.37 0.39 0.38 0.41 0.41 0.41 0.45 0.36 0.31 0.30 0.22 0.20 0.18 0.19 0.18 0.16 0.16 0.17 0.21 0.25 0.28 0.32 0.41 0.45 0.40 0.35 0.32
0.33 0.31 0.32 0.26 0.21 0.21 0.22 0.19 0.16 0.13 0.13 0.16 0.22 0.28 0.23 0.27 0.42 0.44 0.50 0.55 0.56 0.53 0.55 0.51 0.49 0.48 0.44 0.39 0.36 0.31 0.27 0.27 0.27 0.29 0.33 0.37 0.36 0.37 0.40 0.42 0.45 0.44 0.41
0.36 0.37 0.33 0.31 0.30 0.34 0.34 0.31 0.26 0.21 0.22 0.22 0.24 0.31 0.30 0.33 0.40 0.50 0.56 0.66 0.69 0.67 0.69 0.69 0.68 0.62 0.57 0.52 0.51 0.47 0.41 0.38 0.34 0.38 0.45 0.52 0.54 0.50 0.47 0.45 0.45 0.46 0.46
0.36 0.43 0.45 0.46 0.49 0.48 0.46 0.47 0.46 0.34 0.30 0.38 0.42 0.45 0.53 0.59 0.60 0.67 0.76 0.87 0.90 0.95 0.95 0.90 0.88 0.77 0.75 0.73 0.66 0.57 0.47 0.43 0.45 0.42 0.46 0.49 0.49 0.50 0.49 0.48 0.47 0.45 0.48
0.47 0.53 0.56 0.61 0.69 0.72 0.73 0.70 0.66 0.61 0.57 0.64 0.71 0.76 0.80 0.90 1.01 1.14 1.21 1.25 1.22 1.22 1.16 1.14 1.09 0.97 0.85 0.81 0.64 0.54 0.50 0.48 0.48 0.46 0.42 0.39 0.38 0.35 0.36 0.36 0.39 0.40 0.47
0.78 0.78 0.76 0.72 0.78 0.88 1.05 1.18 1.20 1.27 1.27 1.26 1.33 1.44 1.63 1.77 1.84 1.86 1.88 1.79 1.65 1.53 1.43 1.31 1.14 1.00 0.89 0.80 0.74 0.61 0.47 0.39 0.37 0.35 0.34 0.36 0.37 0.36 0.34 0.35 0.35 0.34 0.39
1.02 1.02 1.06 1.09 1.22 1.39 1.64 1.86 2.03 2.18 2.27 2.28 2.29 2.40 2.52 2.64 2.72 2.72 2.64 2.52 2.35 2.05 1.65 1.34 1.17 1.06 0.95 0.88 0.84 0.77 0.56 0.39 0.29 0.24 0.26 0.28 0.31 0.33 0.33 0.33 0.31 0.32 0.33
1.31 1.35 1.42 1.56 1.85 2.20 2.50 2.80 3.03 3.27 3.37 3.27 3.10 3.10 3.19 3.23 3.26 3.30 3.21 2.92 2.48 1.99 1.58 1.35 1.27 1.16 1.02 0.92 0.84 0.81 0.71 0.57 0.38 0.25 0.21 0.20 0.21 0.21 0.22 0.25 0.26 0.28 0.30
1.44 1.56 1.65 1.86 2.25 2.63 2.99 3.41 3.74 3.91 4.06 4.16 4.02 3.84 3.63 3.42 3.32 3.18 2.96 2.51 2.07 1.71 1.47 1.37 1.23 1.04 0.93 0.79 0.69 0.62 0.57 0.51 0.44 0.33 0.23 0.17 0.14 0.13 0.14 0.16 0.17 0.19 0.22
1.44 1.46 1.54 1.87 2.36 2.99 3.60 4.01 4.27 4.46 4.54 4.47 4.20 3.89 3.54 3.17 2.76 2.45 2.15 1.84 1.65 1.44 1.21 1.03 0.89 0.74 0.63 0.53 0.46 0.42 0.38 0.33 0.30 0.28 0.24 0.18 0.17 0.15 0.15 0.16 0.16 0.18 0.19
1.18 1.37 1.58 1.90 2.52 3.19 3.67 4.05 4.31 4.47 4.37 4.16 3.81 3.33 3.01 2.67 2.24 1.87 1.64 1.41 1.21 1.01 0.81 0.63 0.51 0.44 0.40 0.37 0.34 0.31 0.27 0.26 0.24 0.26 0.27 0.22 0.19 0.18 0.17 0.17 0.18 0.20 0.21

GEFSSE_prec_meanprecacc_078.txt.gz
Total_Precipitation_Accumulation
0.01 0.01 0.01 0.02 0.05 0.06 0.06 0.08 0.10 0.12 0.11 0.10 0.10 0.10 0.11 0.10 0.08 0.07 0.06 0.09 0.12 0.18 0.21 0.22 0.18 0.14 0.13 0.11 0.07 0.05 0.04 0.05 0.07 0.09 0.12 0.14 0.15 0.15 0.15 0.16 0.19 0.20 0.10
0.01 0.00 0.01 0.01 0.03 0.05 0.06 0.08 0.09 0.11 0.12 0.12 0.13 0.14 0.14 0.10 0.07 0.07 0.07 0.10 0.15 0.19 0.19 0.19 0.16 0.12 0.11 0.07 0.04 0.03 0.04 0.05 0.09 0.14 0.18 0.20 0.24 0.20 0.19 0.18 0.23 0.28 0.18
0.01 0.00 0.01 0.01 0.01 0.04 0.06 0.09 0.09 0.09 0.10 0.11 0.12 0.12 0.10 0.08 0.07 0.06 0.06 0.09 0.13 0.15 0.13 0.09 0.06 0.05 0.05 0.03 0.02 0.03 0.04 0.07 0.12 0.21 0.41 0.37 0.30 0.20 0.20 0.19 0.16 0.15 0.17
0.01 0.00 0.00 0.01 0.02 0.03 0.04 0.06 0.10 0.10 0.09 0.09 0.09 0.09 0.08 0.07 0.07 0.06 0.07 0.09 0.11 0.10 0.06 0.04 0.03 0.02 0.02 0.02 0.02 0.03 0.05 0.09 0.17 0.35 0.71 0.59 0.40 0.26 0.23 0.21 0.17 0.14 0.16
0.01 0.01 0.02 0.01 0.03 0.05 0.04 0.04 0.08 0.10 0.10 0.09 0.09 0.09 0.10 0.09 0.08 0.07 0.08 0.09 0.09 0.08 0.08 0.08 0.05 0.02 0.01 0.02 0.02 0.04 0.07 0.12 0.23 0.51 0.91 0.85 0.67 0.45 0.30 0.27 0.28 0.23 0.20
0.01 0.00 0.01 0.02 0.03 0.06 0.06 0.05 0.06 0.08 0.11 0.12 0.12 0.12 0.11 0.11 0.09 0.07 0.08 0.09 0.09 0.10 0.12 0.14 0.09 0.03 0.02 0.02 0.03 0.06 0.10 0.16 0.30 0.59 1.01 1.06 0.74 0.44 0.33 0.32 0.33 0.28 0.23
0.02 0.01 0.01 0.04 0.05 0.06 0.07 0.08 0.09 0.07 0.10 0.13 0.14 0.12 0.10 0.10 0.09 0.09 0.09 0.08 0.10 0.13 0.15 0.12 0.06 0.02 0.01 0.02 0.04 0.07 0.13 0.21 0.38 0.79 1.07 0.95 0.84 0.46 0.35 0.35 0.36 0.30 0.22
0.05 0.03 0.03 0.05 0.05 0.07 0.10 0.11 0.13 0.13 0.12 0.14 0.14 0.11 0.10 0.08 0.08 0.10 0.09 0.10 0.12 0.16 0.15 0.07 0.02 0.00 0.01 0.02 0.03 0.07 0.15 0.20 0.32 0.73 1.04 0.77 0.60 0.36 0.29 0.30 0.31 0.27 0.22
0.06 0.04 0.03 0.03 0.05 0.08 0.11 0.11 0.13 0.15 0.14 0.13 0.12 0.12 0.13 0.13 0.13 0.14 0.12 0.12 0.14 0.16 0.10 0.03 0.01 0.01 0.01 0.01 0.02 0.05 0.11 0.17 0.33 0.49 0.53 0.49 0.41 0.27 0.19 0.18 0.15 0.14 0.13
0.10 0.07 0.03 0.04 0.06 0.05 0.04 0.07 0.10 0.13 0.16 0.12 0.09 0.11 0.12 0.12 0.11 0.11 0.09 0.10 0.11 0.11 0.07 0.04 0.02 0.01 0.01 0.01 0.01 0.03 0.07 0.12 0.20 0.36 0.50 0.39 0.26 0.19 0.18 0.15 0.10 0.08 0.07
0.16 0.15 0.04 0.03 0.06 0.06 0.03 0.03 0.06 0.09 0.11 0.08 0.06 0.07 0.07 0.16 0.21 0.17 0.11 0.09 0.08 0.08 0.06 0.04 0.03 0.01 0.01 0.01 0.01 0.02 0.03 0.07 0.20 0.40 0.51 0.38 0.23 0.20 0.17 0.14 0.10 0.07 0.06
0.16 0.16 0.10 0.07 0.05 0.09 0.04 0.03 0.03 0.02 0.03 0.05 0.10 0.06 0.12 0.30 0.37 0.27 0.22 0.13 0.09 0.08 0.06 0.05 0.04 0.03 0.01 0.01 0.01 0.01 0.01 0.05 0.20 0.37 0.37 0.26 0.22 0.22 0.22 0.17 0.11 0.08 0.07
0.21 0.16 0.16 0.14 0.12 0.20 0.08 0.07 0.07 0.07 0.11 0.12 0.19 0.18 0.24 0.34 0.30 0.32 0.36 0.21 0.14 0.10 0.10 0.08 0.04 0.03 0.02 0.03 0.03 0.02 0.03 0.06 0.12 0.20 0.21 0.21 0.23 0.25 0.27 0.22 0.18 0.14 0.12
0.29 0.19 0.23 0.23 0.17 0.17 0.15 0.16 0.12 0.09 0.11 0.15 0.24 0.18 0.30 0.39 0.39 0.39 0.42 0.31 0.27 0.24 0.22 0.15 0.09 0.08 0.06 0.05 0.04 0.04 0.05 0.05 0.08 0.13 0.19 0.22 0.25 0.30 0.33 0.32 0.27 0.22 0.19
0.33 0.25 0.24 0.25 0.22 0.22 0.28 0.27 0.21 0.16 0.14 0.17 0.25 0.24 0.25 0.31 0.36 0.43 0.40 0.38 0.33 0.34 0.31 0.21 0.18 0.17 0.11 0.11 0.09 0.09 0.10 0.08 0.09 0.11 0.20 0.26 0.28 0.33 0.41 0.42 0.36 0.29 0.29
0.37 0.37 0.33 0.31 0.33 0.33 0.31 0.30 0.27 0.24 0.29 0.29 0.30 0.31 0.28 0.35 0.49 0.52 0.50 0.52 0.49 0.49 0.52 0.41 0.34 0.33 0.25 0.22 0.20 0.20 0.20 0.18 0.18 0.20 0.26 0.29 0.30 0.34 0.43 0.49 0.47 0.46 0.44
0.45 0.47 0.52 0.51 0.51 0.53 0.50 0.43 0.36 0.34 0.34 0.40 0.48 0.51 0.40 0.42 0.58 0.59 0.63 0.66 0.65 0.63 0.67 0.64 0.60 0.55 0.49 0.43 0.39 0.33 0.30 0.29 0.30 0.32 0.37 0.42 0.40 0.41 0.43 0.47 0.51 0.53 0.51
0.46 0.54 0.53 0.56 0.58 0.65 0.66 0.63 0.48 0.45 0.45 0.50 0.52 0.59 0.50 0.48 0.59 0.69 0.75 0.79 0.80 0.77 0.82 0.84 0.82 0.72 0.66 0.58 0.56 0.51 0.46 0.43 0.39 0.42 0.49 0.57 0.61 0.59 0.57 0.51 0.51 0.53 0.56
0.46 0.61 0.66 0.69 0.77 0.77 0.79 0.81 0.75 0.68 0.65 0.70 0.73 0.76 0.84 0.86 0.83 0.90 0.97 1.05 1.03 1.07 1.07 1.00 1.01 0.89 0.87 0.83 0.71 0.63 0.52 0.48 0.50 0.47 0.51 0.54 0.57 0.60 0.62 0.60 0.54 0.52 0.56
0.56 0.69 0.80 0.87 0.96 1.06 1.12 1.17 1.06 1.10 1.12 1.14 1.19 1.16 1.18 1.25 1.33 1.41 1.40 1.41 1.37 1.39 1.32 1.27 1.23 1.09 0.99 0.94 0.73 0.64 0.57 0.54 0.55 0.53 0.49 0.47 0.46 0.44 0.45 0.47 0.52 0.51 0.53
0.88 0.92 0.95 0.95 1.04 1.17 1.42 1.63 1.65 1.68 1.82 1.87 1.88 1.92 2.02 2.11 2.21 2.22 2.12 2.00 1.85 1.72 1.59 1.46 1.29 1.13 1.03 0.95 0.88 0.74 0.57 0.46 0.45 0.44 0.43 0.44 0.46 0.44 0.42 0.42 0.41 0.40 0.46
1.13 1.14 1.20 1.26 1.44 1.63 1.91 2.21 2.51 2.60 2.70 2.72 2.73 2.83 2.87 2.96 3.05 3.07 2.92 2.74 2.56 2.24 1.82 1.50 1.32 1.22 1.09 1.04 1.00 0.94 0.71 0.53 0.41 0.32 0.34 0.36 0.39 0.40 0.38 0.36 0.35 0.36 0.39
1.42 1.48 1.54 1.71 2.05 2.43 2.78 3.11 3.44 3.67 3.71 3.60 3.39 3.38 3.46 3.50 3.57 3.63 3.50 3.17 2.71 2.18 1.74 1.52 1.42 1.31 1.18 1.08 0.99 0.98 0.88 0.75 0.54 0.36 0.30 0.27 0.28 0.27 0.26 0.28 0.30 0.33 0.35
1.53 1.68 1.76 1.99 2.44 2.85 3.23 3.72 4.13 4.31 4.45 4.52 4.33 4.06 3.84 3.61 3.54 3.44 3.22 2.75 2.29 1.91 1.64 1.51 1.38 1.19 1.08 0.92 0.82 0.73 0.70 0.67 0.60 0.44 0.32 0.24 0.21 0.17 0.18 0.19 0.21 0.23 0.26
1.51 1.53 1.62 1.97 2.50 3.17 3.79 4.24 4.61 4.83 4.89 4.80 4.46 4.08 3.69 3.33 2.94 2.64 2.34 2.04 1.83 1.61 1.37 1.17 1.02 0.86 0.74 0.62 0.56 0.51 0.48 0.46 0.44 0.40 0.33 0.26 0.22 0.20 0.20 0.20 0.20 0.21 0.22
1.24 1.41 1.63 1.96 2.61 3.31 3.82 4.25 4.54 4.74 4.68 4.39 3.97 3.47 3.13 2.78 2.39 2.05 1.83 1.59 1.40 1.18 0.95 0.76 0.61 0.52 0.47 0.45 0.42 0.39 0.36 0.34 0.32 0.33 0.32 0.26 0.22 0.21 0.20 0.19 0.20 0.22 0.23

GEFSSE_prec_meanprecacc_084.txt.gz
Total_Precipitation_Accumulation
0.04 0.01 0.01 0.02 0.05 0.06 0.06 0.08 0.10 0.12 0.11 0.10 0.10 0.10 0.11 0.10 0.08 0.07 0.06 0.09 0.12 0.18 0.21 0.22 0.18 0.15 0.14 0.12 0.09 0.07 0.06 0.06 0.08 0.10 0.13 0.15 0.15 0.15 0.16 0.16 0.19 0.20 0.11
0.03 0.00 0.01 0.01 0.03 0.05 0.06 0.08 0.09 0.11 0.12 0.12 0.13 0.14 0.14 0.10 0.07 0.07 0.07 0.10 0.15 0.19 0.19 0.19 0.16 0.13 0.12 0.08 0.05 0.05 0.05 0.07 0.11 0.15 0.18 0.20 0.24 0.20 0.19 0.19 0.24 0.28 0.18
0.02 0.00 0.01 0.01 0.01 0.04 0.06 0.09 0.09 0.09 0.10 0.11 0.12 0.12 0.10 0.08 0.07 0.06 0.06 0.09 0.13 0.15 0.13 0.09 0.07 0.06 0.06 0.04 0.03 0.04 0.05 0.08 0.13 0.22 0.42 0.37 0.30 0.20 0.20 0.19 0.17 0.15 0.17
0.02 0.01 0.00 0.01 0.02 0.03 0.04 0.06 0.10 0.10 0.09 0.09 0.09 0.09 0.08 0.07 0.07 0.06 0.07 0.09 0.11 0.10 0.06 0.04 0.03 0.02 0.02 0.02 0.02 0.03 0.05 0.10 0.19 0.37 0.74 0.62 0.41 0.26 0.23 0.21 0.18 0.14 0.16
0.02 0.01 0.02 0.01 0.03 0.05 0.04 0.04 0.08 0.10 0.10 0.09 0.09 0.09 0.10 0.09 0.08 0.07 0.08 0.09 0.09 0.08 0.09 0.08 0.06 0.02 0.02 0.02 0.03 0.05 0.08 0.13 0.26 0.57 1.01 0.92 0.70 0.46 0.30 0.27 0.28 0.23 0.20
0.02 0.01 0.01 0.02 0.03 0.06 0.06 0.05 0.06 0.08 0.11 0.12 0.12 0.12 0.11 0.11 0.09 0.07 0.08 0.09 0.09 0.10 0.12 0.14 0.09 0.03 0.02 0.02 0.03 0.06 0.10 0.17 0.33 0.66 1.10 1.12 0.78 0.47 0.34 0.32 0.33 0.28 0.23
0.03 0.02 0.01 0.04 0.05 0.06 0.07 0.08 0.09 0.07 0.10 0.13 0.14 0.12 0.10 0.10 0.09 0.09 0.09 0.08 0.10 0.13 0.15 0.12 0.06 0.02 0.01 0.02 0.04 0.08 0.13 0.23 0.40 0.84 1.15 1.02 0.89 0.52 0.38 0.36 0.36 0.30 0.22
0.07 0.04 0.03 0.06 0.06 0.08 0.10 0.11 0.13 0.13 0.12 0.14 0.14 0.11 0.10 0.08 0.08 0.10 0.10 0.10 0.12 0.17 0.15 0.07 0.02 0.01 0.01 0.02 0.03 0.07 0.15 0.21 0.34 0.79 1.12 0.85 0.66 0.42 0.32 0.32 0.32 0.27 0.23
0.10 0.10 0.07 0.05 0.06 0.08 0.12 0.11 0.13 0.15 0.15 0.13 0.12 0.12 0.13 0.13 0.13 0.14 0.12 0.12 0.14 0.16 0.11 0.03 0.01 0.01 0.01 0.02 0.02 0.05 0.11 0.17 0.35 0.54 0.61 0.57 0.47 0.32 0.23 0.19 0.16 0.15 0.14
0.17 0.20 0.13 0.08 0.07 0.05 0.04 0.08 0.10 0.14 0.17 0.13 0.09 0.11 0.13 0.12 0.11 0.11 0.09 0.10 0.11 0.11 0.07 0.04 0.02 0.01 0.01 0.01 0.01 0.03 0.07 0.12 0.22 0.41 0.58 0.47 0.33 0.25 0.23 0.17 0.12 0.09 0.08
0.24 0.32 0.15 0.08 0.08 0.08 0.04 0.04 0.07 0.10 0.12 0.09 0.06 0.07 0.07 0.16 0.21 0.17 0.11 0.10 0.09 0.08 0.06 0.04 0.03 0.01 0.01 0.01 0.01 0.02 0.03 0.08 0.22 0.45 0.59 0.49 0.31 0.27 0.22 0.17 0.11 0.09 0.08
0.26 0.32 0.21 0.11 0.08 0.10 0.05 0.04 0.04 0.03 0.04 0.05 0.10 0.07 0.13 0.30 0.37 0.27 0.22 0.14 0.10 0.09 0.06 0.05 0.04 0.03 0.02 0.01 0.01 0.02 0.02 0.06 0.22 0.43 0.46 0.36 0.29 0.29 0.27 0.20 0.13 0.10 0.09
0.32 0.27 0.27 0.22 0.17 0.23 0.10 0.08 0.08 0.09 0.13 0.14 0.20 0.18 0.25 0.35 0.30 0.33 0.37 0.22 0.15 0.11 0.10 0.09 0.04 0.04 0.03 0.04 0.04 0.03 0.04 0.07 0.15 0.25 0.28 0.28 0.30 0.34 0.35 0.28 0.22 0.17 0.15
0.46 0.37 0.40 0.41 0.30 0.25 0.21 0.20 0.16 0.12 0.14 0.17 0.26 0.20 0.32 0.40 0.41 0.41 0.43 0.32 0.29 0.25 0.23 0.16 0.10 0.09 0.07 0.06 0.05 0.06 0.08 0.08 0.12 0.17 0.24 0.30 0.32 0.39 0.42 0.39 0.33 0.26 0.23
0.58 0.63 0.56 0.50 0.42 0.38 0.39 0.36 0.27 0.21 0.17 0.19 0.27 0.27 0.28 0.33 0.38 0.46 0.43 0.40 0.35 0.36 0.34 0.24 0.22 0.21 0.14 0.16 0.13 0.12 0.13 0.11 0.12 0.16 0.24 0.32 0.34 0.40 0.48 0.49 0.42 0.36 0.36
0.55 0.66 0.75 0.71 0.66 0.61 0.57 0.48 0.39 0.33 0.36 0.35 0.35 0.37 0.33 0.39 0.53 0.59 0.57 0.57 0.54 0.55 0.60 0.49 0.42 0.41 0.30 0.28 0.28 0.27 0.23 0.22 0.23 0.25 0.33 0.36 0.37 0.40 0.48 0.55 0.54 0.53 0.52
0.70 0.78 0.92 0.96 0.94 0.90 0.86 0.78 0.64 0.55 0.51 0.53 0.61 0.65 0.52 0.55 0.71 0.72 0.78 0.80 0.76 0.75 0.81 0.82 0.72 0.65 0.57 0.49 0.45 0.39 0.34 0.34 0.35 0.37 0.42 0.48 0.47 0.46 0.48 0.52 0.57 0.59 0.59
0.69 0.80 0.81 0.95 0.99 1.06 1.15 1.15 0.90 0.84 0.81 0.79 0.77 0.81 0.72 0.73 0.84 0.94 0.97 0.98 0.95 0.92 1.00 1.05 1.00 0.84 0.75 0.67 0.64 0.57 0.51 0.48 0.44 0.47 0.55 0.65 0.70 0.67 0.64 0.59 0.58 0.61 0.62
0.61 0.81 0.93 1.04 1.17 1.13 1.19 1.31 1.24 1.21 1.18 1.13 1.15 1.13 1.19 1.19 1.15 1.21 1.28 1.31 1.26 1.26 1.25 1.17 1.14 0.99 0.95 0.91 0.82 0.72 0.61 0.57 0.58 0.54 0.59 0.63 0.67 0.71 0.72 0.68 0.63 0.60 0.63
0.73 0.89 1.02 1.17 1.38 1.55 1.52 1.60 1.53 1.65 1.78 1.80 1.84 1.79 1.68 1.69 1.73 1.76 1.70 1.66 1.63 1.63 1.51 1.43 1.38 1.20 1.08 1.01 0.82 0.75 0.68 0.64 0.65 0.63 0.59 0.57 0.55 0.54 0.55 0.58 0.63 0.61 0.62
1.16 1.19 1.23 1.24 1.37 1.56 1.83 2.06 2.19 2.24 2.41 2.50 2.54 2.66 2.65 2.58 2.64 2.62 2.51 2.34 2.15 2.01 1.83 1.67 1.46 1.27 1.13 1.05 0.99 0.84 0.66 0.55 0.57 0.55 0.54 0.55 0.55 0.52 0.51 0.52 0.50 0.48 0.52
1.44 1.41 1.47 1.51 1.66 1.88 2.20 2.57 2.95 3.06 3.18 3.22 3.21 3.37 3.47 3.44 3.49 3.53 3.39 3.14 2.90 2.54 2.10 1.74 1.52 1.37 1.21 1.15 1.09 1.03 0.80 0.61 0.50 0.40 0.44 0.48 0.50 0.50 0.47 0.45 0.43 0.44 0.45
1.59 1.64 1.68 1.89 2.22 2.61 3.01 3.41 3.77 4.03 4.07 4.02 3.78 3.74 3.84 3.89 3.91 3.98 3.90 3.56 3.07 2.51 2.02 1.76 1.64 1.49 1.35 1.23 1.11 1.08 0.96 0.82 0.61 0.42 0.37 0.35 0.36 0.36 0.35 0.35 0.35 0.37 0.39
1.61 1.76 1.86 2.12 2.57 3.00 3.42 3.95 4.38 4.61 4.79 4.89 4.68 4.37 4.14 3.97 3.86 3.73 3.53 3.09 2.61 2.20 1.90 1.75 1.61 1.40 1.30 1.15 1.04 0.90 0.81 0.75 0.67 0.51 0.37 0.30 0.26 0.22 0.21 0.22 0.23 0.25 0.27
1.56 1.59 1.69 2.07 2.62 3.30 3.95 4.41 4.82 5.09 5.16 5.11 4.75 4.38 3.98 3.62 3.20 2.85 2.56 2.28 2.09 1.86 1.60 1.40 1.24 1.07 0.92 0.80 0.73 0.68 0.63 0.59 0.54 0.48 0.39 0.31 0.27 0.24 0.22 0.21 0.21 0.22 0.23
1.30 1.46 1.69 2.02 2.68 3.41 3.95 4.39 4.71 4.94 4.89 4.60 4.18 3.69 3.40 3.06 2.62 2.23 2.00 1.77 1.60 1.37 1.13 0.96 0.85 0.74 0.64 0.59 0.55 0.50 0.48 0.46 0.43 0.42 0.38 0.31 0.27 0.24 0.22 0.21 0.22 0.23 0.24

GEFSSE_prec_meanprecacc_090.txt.gz
Total_Precipitation_Accumulation
0.04 0.01 0.02 0.02 0.06 0.07 0.06 0.08 0.10 0.12 0.11 0.10 0.10 0.10 0.11 0.10 0.08 0.07 0.06 0.09 0.12 0.18 0.22 0.22 0.18 0.16 0.15 0.15 0.11 0.09 0.07 0.07 0.09 0.10 0.13 0.16 0.17 0.16 0.16 0.17 0.20 0.20 0.11
0.03 0.00 0.01 0.01 0.03 0.05 0.06 0.08 0.09 0.11 0.12 0.12 0.13 0.14 0.14 0.10 0.07 0.07 0.07 0.10 0.15 0.19 0.19 0.19 0.16 0.13 0.13 0.10 0.07 0.06 0.06 0.07 0.11 0.16 0.19 0.22 0.26 0.22 0.20 0.19 0.24 0.29 0.19
0.02 0.00 0.01 0.01 0.02 0.04 0.06 0.09 0.09 0.09 0.10 0.11 0.12 0.12 0.10 0.08 0.07 0.06 0.06 0.09 0.14 0.15 0.13 0.10 0.07 0.07 0.06 0.05 0.04 0.05 0.06 0.09 0.14 0.23 0.43 0.38 0.31 0.22 0.21 0.19 0.17 0.15 0.18
0.02 0.01 0.00 0.01 0.02 0.03 0.04 0.06 0.10 0.10 0.09 0.09 0.09 0.09 0.08 0.07 0.07 0.07 0.07 0.09 0.11 0.10 0.07 0.04 0.04 0.03 0.03 0.02 0.03 0.04 0.06 0.10 0.19 0.38 0.74 0.62 0.41 0.28 0.24 0.21 0.18 0.15 0.16
0.02 0.01 0.02 0.01 0.03 0.05 0.04 0.04 0.08 0.10 0.10 0.09 0.09 0.09 0.10 0.09 0.08 0.08 0.09 0.10 0.09 0.09 0.09 0.09 0.06 0.03 0.02 0.02 0.03 0.05 0.09 0.14 0.28 0.59 1.02 0.92 0.71 0.48 0.31 0.27 0.29 0.23 0.20
0.02 0.01 0.01 0.02 0.03 0.06 0.06 0.05 0.06 0.08 0.11 0.12 0.12 0.12 0.11 0.11 0.09 0.07 0.08 0.09 0.09 0.10 0.12 0.14 0.10 0.04 0.03 0.03 0.04 0.07 0.11 0.18 0.34 0.67 1.11 1.13 0.79 0.49 0.35 0.33 0.33 0.28 0.23
0.03 0.02 0.01 0.04 0.05 0.06 0.07 0.08 0.09 0.07 0.10 0.13 0.14 0.12 0.10 0.10 0.09 0.09 0.09 0.08 0.10 0.13 0.15 0.12 0.07 0.02 0.02 0.03 0.05 0.08 0.14 0.24 0.41 0.86 1.17 1.05 0.92 0.55 0.40 0.37 0.37 0.31 0.23
0.07 0.04 0.03 0.06 0.06 0.08 0.10 0.11 0.14 0.13 0.12 0.14 0.14 0.11 0.10 0.08 0.09 0.11 0.10 0.10 0.12 0.17 0.15 0.07 0.02 0.01 0.01 0.02 0.04 0.08 0.16 0.21 0.34 0.81 1.14 0.86 0.69 0.46 0.35 0.34 0.34 0.29 0.24
0.10 0.10 0.07 0.05 0.06 0.09 0.12 0.12 0.14 0.16 0.15 0.13 0.13 0.13 0.13 0.13 0.13 0.14 0.13 0.12 0.15 0.16 0.11 0.04 0.01 0.01 0.01 0.02 0.03 0.05 0.11 0.18 0.36 0.57 0.63 0.58 0.49 0.37 0.28 0.22 0.18 0.16 0.15
0.18 0.20 0.14 0.09 0.08 0.06 0.05 0.09 0.11 0.15 0.17 0.13 0.10 0.11 0.13 0.12 0.11 0.11 0.10 0.10 0.11 0.11 0.08 0.04 0.02 0.01 0.01 0.01 0.01 0.03 0.08 0.13 0.23 0.43 0.60 0.49 0.35 0.32 0.31 0.22 0.14 0.11 0.10
0.25 0.33 0.16 0.10 0.10 0.09 0.05 0.05 0.07 0.11 0.13 0.10 0.06 0.07 0.07 0.16 0.21 0.17 0.11 0.10 0.09 0.08 0.07 0.05 0.03 0.02 0.01 0.01 0.01 0.02 0.04 0.08 0.22 0.46 0.61 0.51 0.35 0.34 0.30 0.23 0.15 0.11 0.10
0.28 0.33 0.22 0.13 0.09 0.13 0.08 0.06 0.06 0.05 0.05 0.07 0.12 0.08 0.13 0.30 0.37 0.27 0.22 0.14 0.10 0.09 0.07 0.06 0.04 0.03 0.02 0.02 0.01 0.02 0.02 0.06 0.23 0.44 0.48 0.39 0.34 0.35 0.37 0.28 0.18 0.13 0.12
0.37 0.30 0.30 0.26 0.20 0.27 0.16 0.14 0.14 0.13 0.16 0.17 0.24 0.23 0.30 0.37 0.31 0.34 0.37 0.22 0.15 0.11 0.11 0.09 0.05 0.04 0.03 0.04 0.04 0.03 0.05 0.07 0.15 0.26 0.30 0.31 0.34 0.40 0.44 0.37 0.29 0.22 0.20
0.51 0.41 0.45 0.46 0.37 0.33 0.30 0.31 0.26 0.22 0.21 0.24 0.32 0.27 0.41 0.48 0.46 0.43 0.44 0.33 0.29 0.26 0.24 0.17 0.11 0.09 0.07 0.06 0.05 0.06 0.08 0.08 0.12 0.17 0.26 0.32 0.36 0.45 0.51 0.49 0.41 0.33 0.29
0.63 0.69 0.61 0.56 0.50 0.51 0.55 0.52 0.42 0.33 0.27 0.28 0.37 0.37 0.41 0.45 0.48 0.52 0.46 0.43 0.38 0.39 0.35 0.25 0.23 0.21 0.15 0.17 0.14 0.12 0.13 0.12 0.13 0.17 0.27 0.36 0.38 0.46 0.56 0.57 0.50 0.43 0.43
0.59 0.70 0.81 0.78 0.74 0.71 0.71 0.65 0.54 0.45 0.46 0.45 0.46 0.48 0.44 0.51 0.65 0.68 0.65 0.65 0.62 0.61 0.64 0.50 0.43 0.42 0.31 0.29 0.29 0.29 0.25 0.23 0.24 0.27 0.35 0.40 0.41 0.44 0.54 0.62 0.62 0.61 0.60
0.74 0.82 0.97 1.02 1.02 0.99 0.99 0.96 0.82 0.71 0.65 0.66 0.71 0.74 0.61 0.63 0.80 0.83 0.90 0.91 0.88 0.88 0.90 0.88 0.77 0.69 0.60 0.51 0.46 0.41 0.36 0.36 0.37 0.40 0.46 0.51 0.50 0.50 0.52 0.57 0.63 0.68 0.68
0.73 0.85 0.87 1.00 1.06 1.17 1.30 1.33 1.11 1.06 1.01 0.98 0.91 0.92 0.82 0.83 0.96 1.10 1.15 1.14 1.11 1.09 1.16 1.20 1.12 0.94 0.82 0.72 0.68 0.60 0.55 0.52 0.48 0.52 0.60 0.71 0.75 0.72 0.69 0.65 0.65 0.67 0.69
0.65 0.87 1.00 1.11 1.28 1.30 1.39 1.52 1.48 1.48 1.43 1.34 1.32 1.28 1.33 1.36 1.31 1.38 1.45 1.49 1.46 1.49 1.49 1.42 1.36 1.15 1.07 1.01 0.90 0.81 0.69 0.65 0.64 0.60 0.65 0.68 0.72 0.75 0.76 0.71 0.67 0.65 0.70
0.78 0.95 1.10 1.26 1.50 1.75 1.75 1.81 1.76 1.92 2.07 2.07 2.07 2.00 1.90 1.91 1.94 1.99 1.91 1.88 1.85 1.87 1.76 1.69 1.65 1.44 1.27 1.19 0.97 0.87 0.79 0.75 0.74 0.70 0.66 0.62 0.60 0.58 0.58 0.61 0.66 0.65 0.67
1.24 1.27 1.33 1.35 1.54 1.75 2.03 2.28 2.41 2.49 2.69 2.78 2.83 2.94 2.93 2.87 2.92 2.90 2.78 2.61 2.41 2.25 2.09 1.95 1.78 1.60 1.41 1.29 1.17 0.96 0.75 0.63 0.65 0.63 0.61 0.61 0.60 0.57 0.56 0.56 0.54 0.52 0.56
1.52 1.50 1.56 1.62 1.81 2.06 2.42 2.80 3.19 3.33 3.46 3.48 3.49 3.66 3.77 3.76 3.81 3.86 3.69 3.45 3.24 2.87 2.42 2.05 1.83 1.71 1.53 1.42 1.31 1.19 0.89 0.68 0.56 0.45 0.49 0.53 0.54 0.55 0.52 0.49 0.47 0.47 0.48
1.64 1.71 1.77 2.01 2.36 2.76 3.19 3.66 4.04 4.28 4.30 4.23 4.00 3.99 4.11 4.12 4.14 4.24 4.17 3.85 3.39 2.84 2.34 2.08 1.94 1.80 1.65 1.52 1.35 1.27 1.09 0.88 0.65 0.46 0.40 0.38 0.40 0.38 0.37 0.37 0.37 0.39 0.41
1.64 1.81 1.92 2.20 2.70 3.13 3.56 4.14 4.59 4.80 4.97 5.05 4.84 4.54 4.33 4.17 4.07 3.97 3.79 3.36 2.90 2.51 2.22 2.06 1.90 1.69 1.61 1.46 1.33 1.12 0.97 0.85 0.73 0.55 0.41 0.32 0.28 0.24 0.23 0.23 0.24 0.26 0.29
1.59 1.62 1.72 2.10 2.67 3.38 4.03 4.53 4.97 5.26 5.32 5.25 4.91 4.56 4.17 3.80 3.40 3.08 2.78 2.49 2.30 2.09 1.86 1.67 1.52 1.36 1.20 1.08 1.01 0.93 0.82 0.73 0.63 0.54 0.45 0.36 0.31 0.27 0.24 0.23 0.23 0.23 0.24
1.32 1.47 1.71 2.05 2.72 3.45 4.02 4.47 4.80 5.09 5.04 4.73 4.30 3.84 3.55 3.19 2.76 2.40 2.23 1.99 1.79 1.57 1.34 1.18 1.06 0.97 0.90 0.86 0.81 0.73 0.67 0.62 0.57 0.54 0.48 0.38 0.32 0.29 0.26 0.24 0.24 0.25 0.26

GEFSSE_prec_meanprecacc_096.txt.gz
Total_Precipitation_Accumulation
0.04 0.01 0.02 0.02 0.06 0.07 0.06 0.08 0.11 0.12 0.11 0.10 0.10 0.11 0.12 0.10 0.08 0.07 0.06 0.09 0.12 0.18 0.22 0.23 0.20 0.17 0.17 0.16 0.13 0.10 0.08 0.07 0.09 0.11 0.14 0.16 0.17 0.17 0.17 0.17 0.20 0.21 0.12
0.03 0.01 0.01 0.01 0.03 0.05 0.06 0.09 0.10 0.11 0.12 0.13 0.13 0.15 0.14 0.10 0.08 0.07 0.07 0.10 0.15 0.19 0.20 0.20 0.17 0.15 0.15 0.13 0.09 0.07 0.07 0.07 0.12 0.17 0.21 0.23 0.27 0.22 0.20 0.19 0.24 0.29 0.19
0.02 0.00 0.01 0.01 0.02 0.04 0.06 0.09 0.09 0.09 0.11 0.12 0.13 0.12 0.10 0.08 0.07 0.06 0.06 0.09 0.14 0.15 0.14 0.10 0.08 0.08 0.08 0.06 0.05 0.06 0.07 0.10 0.15 0.26 0.47 0.42 0.33 0.22 0.21 0.19 0.17 0.15 0.18
0.02 0.01 0.00 0.01 0.02 0.03 0.04 0.07 0.10 0.10 0.09 0.10 0.10 0.09 0.08 0.07 0.07 0.07 0.07 0.10 0.11 0.10 0.07 0.05 0.04 0.04 0.04 0.04 0.04 0.05 0.07 0.12 0.21 0.40 0.77 0.65 0.44 0.28 0.24 0.22 0.18 0.15 0.17
0.02 0.01 0.02 0.01 0.03 0.05 0.04 0.04 0.08 0.11 0.11 0.10 0.10 0.10 0.11 0.10 0.09 0.08 0.09 0.10 0.10 0.09 0.09 0.09 0.07 0.03 0.03 0.03 0.04 0.06 0.10 0.16 0.29 0.60 1.02 0.94 0.74 0.49 0.31 0.28 0.29 0.23 0.20
0.02 0.01 0.01 0.02 0.03 0.06 0.06 0.05 0.07 0.09 0.11 0.12 0.13 0.12 0.12 0.11 0.10 0.08 0.08 0.09 0.09 0.10 0.13 0.15 0.10 0.04 0.03 0.03 0.04 0.08 0.12 0.19 0.35 0.68 1.12 1.14 0.81 0.50 0.36 0.33 0.33 0.28 0.23
0.03 0.02 0.02 0.04 0.05 0.06 0.07 0.08 0.09 0.08 0.10 0.14 0.14 0.12 0.10 0.11 0.10 0.09 0.09 0.09 0.10 0.13 0.15 0.12 0.07 0.03 0.02 0.03 0.05 0.09 0.16 0.26 0.42 0.87 1.18 1.06 0.94 0.57 0.41 0.38 0.37 0.31 0.23
0.07 0.04 0.04 0.06 0.06 0.08 0.10 0.11 0.14 0.13 0.13 0.15 0.14 0.11 0.10 0.08 0.09 0.11 0.10 0.10 0.13 0.17 0.16 0.07 0.02 0.01 0.01 0.03 0.05 0.09 0.18 0.24 0.35 0.82 1.16 0.89 0.71 0.48 0.38 0.36 0.35 0.29 0.25
0.10 0.10 0.07 0.06 0.07 0.09 0.13 0.12 0.14 0.16 0.15 0.14 0.13 0.13 0.13 0.13 0.14 0.14 0.13 0.12 0.15 0.16 0.11 0.04 0.01 0.01 0.02 0.02 0.03 0.06 0.13 0.21 0.38 0.59 0.65 0.62 0.52 0.40 0.32 0.24 0.19 0.17 0.17
0.19 0.21 0.15 0.09 0.08 0.07 0.05 0.09 0.12 0.15 0.18 0.14 0.10 0.12 0.13 0.12 0.11 0.11 0.10 0.11 0.12 0.12 0.08 0.04 0.03 0.02 0.01 0.01 0.02 0.04 0.09 0.15 0.24 0.44 0.63 0.52 0.38 0.38 0.38 0.26 0.17 0.13 0.12
0.25 0.34 0.18 0.11 0.10 0.10 0.06 0.05 0.08 0.12 0.14 0.11 0.08 0.09 0.08 0.17 0.22 0.19 0.12 0.11 0.10 0.09 0.08 0.06 0.04 0.02 0.01 0.01 0.01 0.02 0.04 0.09 0.23 0.48 0.65 0.54 0.38 0.40 0.38 0.31 0.20 0.15 0.14
0.29 0.35 0.25 0.14 0.11 0.14 0.10 0.09 0.08 0.06 0.07 0.09 0.15 0.12 0.16 0.34 0.41 0.30 0.26 0.17 0.12 0.11 0.09 0.07 0.05 0.04 0.02 0.02 0.02 0.02 0.03 0.07 0.24 0.45 0.50 0.41 0.37 0.42 0.46 0.37 0.25 0.19 0.17
0.39 0.32 0.32 0.28 0.23 0.30 0.20 0.18 0.17 0.16 0.20 0.21 0.29 0.30 0.39 0.48 0.39 0.38 0.42 0.26 0.19 0.14 0.14 0.12 0.06 0.06 0.05 0.05 0.04 0.04 0.05 0.08 0.16 0.28 0.31 0.32 0.37 0.46 0.54 0.46 0.36 0.31 0.27
0.53 0.43 0.47 0.48 0.40 0.38 0.35 0.37 0.33 0.29 0.29 0.31 0.39 0.36 0.51 0.58 0.55 0.50 0.49 0.38 0.34 0.31 0.29 0.22 0.14 0.12 0.11 0.09 0.07 0.07 0.09 0.09 0.14 0.19 0.30 0.34 0.39 0.51 0.59 0.58 0.49 0.40 0.36
0.65 0.72 0.64 0.59 0.53 0.54 0.60 0.58 0.48 0.40 0.35 0.38 0.47 0.47 0.51 0.55 0.59 0.62 0.53 0.49 0.44 0.45 0.41 0.29 0.27 0.24 0.17 0.19 0.15 0.14 0.14 0.13 0.15 0.20 0.31 0.39 0.40 0.50 0.62 0.66 0.61 0.53 0.51
0.60 0.71 0.83 0.80 0.75 0.73 0.74 0.69 0.58 0.51 0.53 0.52 0.55 0.57 0.54 0.62 0.76 0.79 0.74 0.72 0.69 0.68 0.70 0.56 0.48 0.47 0.35 0.32 0.31 0.30 0.27 0.25 0.27 0.32 0.42 0.46 0.44 0.48 0.60 0.70 0.72 0.73 0.73
0.74 0.83 0.99 1.04 1.04 1.01 1.02 1.00 0.86 0.76 0.72 0.74 0.80 0.84 0.71 0.73 0.91 0.93 1.01 0.99 0.95 0.97 1.00 0.97 0.84 0.76 0.65 0.56 0.51 0.44 0.39 0.39 0.41 0.44 0.51 0.58 0.56 0.53 0.55 0.61 0.69 0.75 0.77
0.74 0.87 0.89 1.03 1.09 1.20 1.33 1.37 1.17 1.14 1.09 1.08 1.04 1.06 0.94 0.94 1.06 1.20 1.25 1.24 1.20 1.20 1.27 1.29 1.22 1.04 0.90 0.79 0.74 0.65 0.60 0.57 0.52 0.56 0.66 0.78 0.85 0.80 0.76 0.70 0.70 0.72 0.76
0.67 0.90 1.03 1.15 1.32 1.35 1.44 1.58 1.55 1.56 1.53 1.45 1.46 1.42 1.45 1.45 1.42 1.48 1.55 1.59 1.57 1.63 1.64 1.56 1.51 1.30 1.19 1.10 0.99 0.88 0.74 0.70 0.70 0.65 0.71 0.76 0.81 0.84 0.84 0.78 0.71 0.69 0.75
0.79 0.98 1.14 1.33 1.59 1.84 1.85 1.93 1.87 2.01 2.15 2.16 2.18 2.15 2.03 2.03 2.05 2.11 2.03 1.98 1.98 2.03 1.92 1.88 1.83 1.62 1.44 1.34 1.09 0.95 0.86 0.81 0.80 0.76 0.71 0.69 0.68 0.65 0.65 0.67 0.72 0.69 0.70
1.29 1.32 1.38 1.44 1.65 1.86 2.13 2.39 2.52 2.57 2.78 2.87 2.92 3.06 3.05 3.00 3.06 3.05 2.93 2.74 2.57 2.43 2.27 2.15 1.97 1.80 1.62 1.48 1.32 1.06 0.81 0.68 0.71 0.69 0.67 0.67 0.65 0.62 0.61 0.61 0.58 0.56 0.60
1.60 1.58 1.67 1.73 1.93 2.16 2.51 2.89 3.28 3.44 3.57 3.56 3.58 3.77 3.89 3.90 4.00 4.08 3.92 3.68 3.45 3.08 2.65 2.29 2.06 1.93 1.74 1.62 1.50 1.36 1.00 0.75 0.61 0.50 0.54 0.58 0.58 0.59 0.56 0.53 0.50 0.50 0.51
1.66 1.73 1.81 2.07 2.43 2.83 3.25 3.72 4.10 4.37 4.40 4.33 4.09 4.12 4.25 4.25 4.27 4.42 4.39 4.08 3.63 3.06 2.58 2.35 2.22 2.06 1.87 1.72 1.54 1.49 1.27 1.01 0.74 0.53 0.45 0.42 0.43 0.42 0.40 0.41 0.40 0.42 0.43
1.65 1.82 1.93 2.22 2.73 3.17 3.60 4.18 4.64 4.88 5.05 5.14 4.94 4.65 4.50 4.36 4.24 4.13 3.98 3.57 3.09 2.70 2.42 2.30 2.20 1.99 1.88 1.71 1.57 1.34 1.16 0.99 0.85 0.65 0.48 0.37 0.32 0.28 0.26 0.26 0.27 0.28 0.30
1.60 1.64 1.73 2.11 2.69 3.41 4.09 4.59 5.03 5.33 5.40 5.34 5.01 4.66 4.28 3.96 3.57 3.22 2.89 2.61 2.43 2.23 2.02 1.88 1.78 1.68 1.53 1.37 1.29 1.19 1.05 0.91 0.76 0.63 0.54 0.43 0.37 0.32 0.28 0.26 0.24 0.24 0.25
1.32 1.49 1.73 2.07 2.74 3.49 4.07 4.54 4.87 5.16 5.14 4.82 4.41 3.94 3.64 3.29 2.87 2.50 2.31 2.06 1.87 1.66 1.44 1.30 1.23 1.21 1.21 1.19 1.15 1.07 0.97 0.89 0.79 0.71 0.62 0.50 0.42 0.37 0.31 0.28 0.27 0.27 0.28

GEFSSE_prec_meanprecacc_102.txt.gz
Total_Precipitation_Accumulation
0.04 0.01 0.02 0.02 0.06 0.07 0.06 0.08 0.11 0.12 0.11 0.10 0.10 0.11 0.12 0.10 0.08 0.07 0.06 0.09 0.12 0.18 0.22 0.23 0.20 0.17 0.17 0.17 0.14 0.10 0.08 0.07 0.10 0.11 0.14 0.16 0.17 0.17 0.17 0.18 0.22 0.21 0.12
0.03 0.01 0.01 0.01 0.03 0.05 0.06 0.09 0.10 0.11 0.12 0.13 0.13 0.15 0.14 0.10 0.08 0.07 0.07 0.10 0.15 0.20 0.20 0.20 0.18 0.16 0.16 0.14 0.10 0.08 0.07 0.08 0.12 0.17 0.21 0.23 0.27 0.22 0.20 0.19 0.25 0.29 0.19
0.02 0.00 0.01 0.01 0.02 0.04 0.06 0.09 0.09 0.09 0.11 0.12 0.13 0.12 0.10 0.08 0.07 0.06 0.06 0.10 0.14 0.16 0.14 0.11 0.09 0.09 0.09 0.08 0.06 0.06 0.07 0.10 0.16 0.27 0.50 0.44 0.33 0.22 0.21 0.20 0.17 0.15 0.18
0.02 0.01 0.00 0.01 0.02 0.03 0.04 0.07 0.10 0.10 0.10 0.10 0.10 0.09 0.08 0.07 0.07 0.07 0.08 0.10 0.12 0.11 0.08 0.05 0.05 0.05 0.05 0.05 0.05 0.05 0.08 0.12 0.22 0.43 0.89 0.70 0.45 0.29 0.24 0.22 0.18 0.15 0.17
0.02 0.01 0.02 0.01 0.03 0.05 0.04 0.04 0.08 0.12 0.12 0.11 0.11 0.11 0.11 0.10 0.09 0.08 0.09 0.10 0.11 0.10 0.11 0.10 0.08 0.04 0.04 0.04 0.04 0.07 0.10 0.16 0.30 0.65 1.12 1.00 0.77 0.50 0.32 0.28 0.29 0.23 0.21
0.02 0.01 0.01 0.02 0.03 0.06 0.06 0.06 0.07 0.10 0.13 0.14 0.13 0.13 0.12 0.12 0.10 0.08 0.09 0.10 0.10 0.11 0.14 0.16 0.11 0.05 0.04 0.04 0.05 0.08 0.13 0.20 0.37 0.73 1.17 1.18 0.85 0.51 0.36 0.33 0.33 0.29 0.23
0.03 0.02 0.02 0.04 0.05 0.06 0.08 0.09 0.10 0.09 0.11 0.15 0.15 0.13 0.12 0.12 0.11 0.11 0.11 0.09 0.11 0.15 0.17 0.14 0.08 0.03 0.03 0.04 0.06 0.09 0.16 0.27 0.46 0.91 1.21 1.09 0.99 0.58 0.42 0.38 0.37 0.31 0.23
0.07 0.04 0.04 0.06 0.06 0.08 0.10 0.11 0.15 0.15 0.14 0.16 0.15 0.13 0.12 0.10 0.11 0.13 0.12 0.12 0.14 0.18 0.17 0.09 0.04 0.02 0.02 0.03 0.05 0.09 0.19 0.25 0.39 0.86 1.18 0.92 0.74 0.49 0.38 0.37 0.36 0.30 0.25
0.10 0.10 0.07 0.06 0.07 0.09 0.13 0.12 0.15 0.17 0.17 0.15 0.14 0.15 0.15 0.16 0.17 0.17 0.16 0.15 0.17 0.18 0.12 0.05 0.02 0.02 0.02 0.02 0.03 0.07 0.14 0.22 0.41 0.61 0.67 0.66 0.54 0.42 0.34 0.26 0.20 0.18 0.18
0.19 0.21 0.15 0.09 0.08 0.07 0.05 0.09 0.12 0.16 0.18 0.15 0.12 0.14 0.16 0.15 0.14 0.14 0.12 0.13 0.14 0.13 0.09 0.05 0.04 0.03 0.02 0.01 0.02 0.04 0.09 0.15 0.25 0.47 0.67 0.57 0.40 0.39 0.40 0.28 0.19 0.15 0.14
0.27 0.35 0.19 0.12 0.12 0.11 0.06 0.05 0.08 0.13 0.15 0.12 0.09 0.10 0.11 0.20 0.24 0.21 0.13 0.14 0.12 0.10 0.09 0.07 0.05 0.03 0.02 0.01 0.02 0.03 0.04 0.09 0.25 0.52 0.73 0.59 0.40 0.42 0.40 0.33 0.23 0.18 0.16
0.32 0.38 0.27 0.17 0.13 0.17 0.13 0.12 0.11 0.09 0.11 0.11 0.16 0.14 0.19 0.38 0.47 0.35 0.32 0.22 0.16 0.13 0.11 0.09 0.07 0.04 0.02 0.03 0.02 0.02 0.03 0.08 0.27 0.50 0.53 0.42 0.39 0.44 0.49 0.40 0.29 0.23 0.21
0.46 0.43 0.41 0.35 0.32 0.39 0.37 0.30 0.26 0.24 0.29 0.27 0.35 0.38 0.45 0.55 0.47 0.45 0.53 0.34 0.24 0.18 0.18 0.17 0.08 0.07 0.06 0.07 0.07 0.05 0.06 0.11 0.23 0.35 0.37 0.35 0.39 0.49 0.57 0.49 0.39 0.34 0.31
0.69 0.62 0.58 0.56 0.49 0.51 0.56 0.52 0.42 0.40 0.44 0.45 0.52 0.49 0.62 0.69 0.64 0.59 0.62 0.49 0.43 0.38 0.38 0.32 0.23 0.19 0.14 0.10 0.09 0.10 0.11 0.12 0.19 0.27 0.36 0.37 0.40 0.52 0.61 0.61 0.52 0.43 0.39
0.85 0.86 0.73 0.65 0.60 0.67 0.74 0.68 0.56 0.52 0.53 0.54 0.63 0.62 0.66 0.70 0.73 0.76 0.65 0.62 0.55 0.55 0.53 0.41 0.38 0.35 0.25 0.23 0.19 0.17 0.18 0.16 0.18 0.24 0.35 0.41 0.42 0.52 0.64 0.69 0.64 0.58 0.56
0.70 0.84 0.94 0.86 0.80 0.79 0.81 0.76 0.66 0.57 0.62 0.64 0.73 0.71 0.68 0.77 0.94 0.97 0.90 0.88 0.82 0.82 0.86 0.71 0.60 0.58 0.48 0.44 0.39 0.36 0.31 0.27 0.32 0.38 0.49 0.51 0.47 0.50 0.63 0.74 0.76 0.77 0.78
0.81 0.92 1.09 1.09 1.08 1.05 1.06 1.05 0.93 0.83 0.80 0.84 0.92 0.97 0.84 0.88 1.09 1.13 1.21 1.18 1.12 1.12 1.17 1.15 1.00 0.92 0.82 0.76 0.66 0.51 0.46 0.44 0.46 0.53 0.61 0.68 0.62 0.58 0.58 0.65 0.72 0.80 0.83
0.79 0.93 0.95 1.05 1.11 1.23 1.37 1.42 1.23 1.20 1.18 1.17 1.13 1.16 1.07 1.08 1.23 1.40 1.46 1.42 1.39 1.39 1.47 1.50 1.42 1.24 1.11 0.99 0.92 0.76 0.68 0.65 0.61 0.67 0.77 0.90 0.99 0.93 0.82 0.74 0.74 0.78 0.83
0.73 0.97 1.07 1.18 1.36 1.40 1.50 1.64 1.62 1.65 1.63 1.55 1.56 1.51 1.56 1.58 1.55 1.64 1.74 1.80 1.80 1.86 1.88 1.80 1.77 1.54 1.44 1.34 1.19 1.08 0.91 0.86 0.83 0.75 0.81 0.85 0.91 0.94 0.93 0.85 0.77 0.76 0.82
0.84 1.04 1.20 1.37 1.62 1.88 1.90 1.99 1.93 2.08 2.24 2.25 2.27 2.24 2.11 2.13 2.17 2.25 2.21 2.22 2.23 2.29 2.20 2.16 2.12 1.91 1.71 1.63 1.33 1.18 1.08 1.00 0.94 0.88 0.82 0.77 0.76 0.74 0.75 0.78 0.82 0.76 0.76
1.34 1.36 1.41 1.46 1.67 1.88 2.17 2.44 2.59 2.66 2.89 2.98 3.01 3.15 3.15 3.10 3.18 3.19 3.09 2.96 2.81 2.67 2.52 2.42 2.25 2.09 1.90 1.76 1.59 1.30 1.01 0.83 0.83 0.80 0.78 0.77 0.73 0.69 0.69 0.72 0.69 0.64 0.66
1.61 1.59 1.68 1.75 1.95 2.20 2.55 2.94 3.35 3.53 3.68 3.67 3.68 3.87 3.99 4.00 4.12 4.21 4.09 3.86 3.66 3.29 2.85 2.52 2.30 2.17 1.98 1.89 1.75 1.62 1.23 0.91 0.71 0.60 0.63 0.66 0.66 0.67 0.64 0.61 0.58 0.59 0.59
1.66 1.74 1.83 2.09 2.46 2.89 3.34 3.79 4.18 4.46 4.51 4.45 4.19 4.21 4.33 4.33 4.36 4.52 4.50 4.21 3.80 3.25 2.75 2.55 2.42 2.25 2.09 1.97 1.80 1.75 1.49 1.21 0.89 0.65 0.56 0.51 0.51 0.49 0.48 0.49 0.48 0.51 0.51
1.66 1.84 1.96 2.26 2.77 3.22 3.67 4.28 4.74 5.00 5.15 5.24 5.04 4.74 4.58 4.43 4.31 4.21 4.08 3.69 3.22 2.85 2.56 2.44 2.38 2.18 2.10 1.95 1.83 1.58 1.37 1.20 1.02 0.80 0.61 0.49 0.42 0.37 0.34 0.35 0.36 0.38 0.39
1.60 1.65 1.76 2.15 2.73 3.45 4.14 4.64 5.10 5.43 5.51 5.44 5.11 4.74 4.36 4.04 3.66 3.32 2.99 2.74 2.58 2.36 2.14 2.01 1.94 1.86 1.72 1.59 1.55 1.46 1.33 1.16 0.96 0.78 0.67 0.57 0.51 0.45 0.39 0.36 0.35 0.33 0.32
1.33 1.50 1.74 2.09 2.76 3.51 4.10 4.57 4.91 5.22 5.22 4.92 4.50 4.03 3.72 3.37 2.95 2.58 2.39 2.17 2.00 1.80 1.57 1.42 1.35 1.36 1.38 1.40 1.41 1.36 1.27 1.18 1.04 0.92 0.80 0.67 0.61 0.57 0.48 0.42 0.38 0.36 0.35

GEFSSE_prec_meanprecacc_108.txt.gz
Total_Precipitation_Accumulation
0.05 0.01 0.02 0.02 0.06 0.07 0.06 0.08 0.11 0.12 0.11 0.10 0.10 0.11 0.12 0.10 0.08 0.07 0.06 0.09 0.12 0.18 0.22 0.23 0.20 0.17 0.18 0.18 0.14 0.11 0.08 0.08 0.10 0.11 0.14 0.16 0.18 0.17 0.18 0.18 0.22 0.21 0.12
0.03 0.01 0.01 0.01 0.03 0.05 0.06 0.09 0.10 0.11 0.12 0.13 0.13 0.15 0.14 0.10 0.08 0.07 0.07 0.10 0.15 0.20 0.20 0.20 0.18 0.16 0.17 0.14 0.10 0.08 0.08 0.08 0.13 0.18 0.21 0.24 0.27 0.23 0.21 0.20 0.25 0.29 0.19
0.03 0.01 0.01 0.01 0.02 0.04 0.06 0.09 0.09 0.09 0.11 0.12 0.13 0.12 0.10 0.08 0.07 0.06 0.06 0.10 0.14 0.16 0.14 0.11 0.09 0.10 0.10 0.08 0.07 0.07 0.08 0.11 0.17 0.28 0.50 0.44 0.34 0.22 0.21 0.20 0.17 0.16 0.18
0.03 0.01 0.01 0.01 0.02 0.03 0.04 0.07 0.10 0.10 0.10 0.10 0.10 0.09 0.08 0.08 0.07 0.07 0.08 0.10 0.12 0.11 0.08 0.06 0.05 0.05 0.06 0.06 0.05 0.06 0.08 0.13 0.25 0.46 0.91 0.70 0.46 0.29 0.24 0.22 0.18 0.15 0.17
0.03 0.01 0.02 0.02 0.03 0.05 0.04 0.04 0.08 0.12 0.12 0.11 0.11 0.11 0.11 0.10 0.09 0.09 0.09 0.11 0.11 0.10 0.11 0.10 0.08 0.05 0.05 0.05 0.05 0.08 0.12 0.19 0.36 0.72 1.17 1.02 0.78 0.50 0.32 0.28 0.29 0.23 0.21
0.04 0.01 0.01 0.03 0.04 0.06 0.06 0.06 0.07 0.10 0.13 0.14 0.14 0.14 0.13 0.13 0.11 0.09 0.10 0.10 0.11 0.12 0.14 0.17 0.12 0.06 0.05 0.05 0.06 0.10 0.16 0.25 0.44 0.81 1.26 1.22 0.86 0.52 0.36 0.33 0.33 0.29 0.23
0.07 0.02 0.02 0.05 0.05 0.07 0.08 0.09 0.10 0.09 0.12 0.16 0.16 0.14 0.13 0.13 0.12 0.11 0.11 0.10 0.12 0.15 0.17 0.14 0.09 0.04 0.04 0.04 0.07 0.11 0.19 0.33 0.53 1.00 1.33 1.16 1.02 0.60 0.42 0.39 0.37 0.31 0.23
0.11 0.06 0.04 0.07 0.07 0.08 0.11 0.12 0.16 0.16 0.16 0.17 0.16 0.14 0.13 0.12 0.12 0.14 0.14 0.13 0.16 0.20 0.18 0.10 0.04 0.03 0.02 0.03 0.05 0.10 0.21 0.30 0.46 0.98 1.31 1.01 0.79 0.52 0.39 0.37 0.36 0.30 0.25
0.17 0.14 0.09 0.07 0.07 0.10 0.13 0.13 0.16 0.18 0.18 0.16 0.16 0.17 0.17 0.18 0.18 0.18 0.17 0.16 0.19 0.19 0.13 0.06 0.03 0.02 0.02 0.03 0.04 0.07 0.16 0.27 0.48 0.71 0.78 0.74 0.60 0.46 0.35 0.26 0.20 0.18 0.18
0.29 0.26 0.17 0.11 0.10 0.08 0.06 0.10 0.13 0.17 0.20 0.16 0.14 0.16 0.18 0.17 0.16 0.16 0.13 0.14 0.15 0.14 0.10 0.06 0.04 0.03 0.02 0.02 0.02 0.05 0.11 0.19 0.30 0.54 0.77 0.64 0.48 0.45 0.42 0.29 0.19 0.15 0.14
0.48 0.46 0.25 0.16 0.14 0.13 0.08 0.07 0.10 0.14 0.16 0.13 0.10 0.12 0.12 0.21 0.26 0.23 0.15 0.15 0.13 0.12 0.10 0.08 0.05 0.03 0.02 0.01 0.02 0.03 0.06 0.12 0.28 0.60 0.86 0.70 0.50 0.48 0.43 0.35 0.24 0.19 0.17
0.68 0.67 0.52 0.32 0.21 0.23 0.17 0.14 0.14 0.12 0.13 0.13 0.18 0.15 0.20 0.39 0.49 0.38 0.35 0.27 0.19 0.15 0.13 0.11 0.08 0.05 0.03 0.03 0.02 0.03 0.04 0.10 0.31 0.61 0.65 0.53 0.48 0.51 0.53 0.42 0.31 0.24 0.23
0.89 0.75 0.81 0.63 0.46 0.51 0.49 0.36 0.29 0.27 0.31 0.28 0.38 0.39 0.46 0.58 0.51 0.50 0.58 0.41 0.30 0.22 0.20 0.19 0.10 0.08 0.07 0.08 0.07 0.06 0.08 0.13 0.28 0.47 0.52 0.48 0.48 0.56 0.61 0.51 0.41 0.35 0.33
1.23 1.02 0.90 0.83 0.69 0.68 0.74 0.61 0.51 0.47 0.49 0.50 0.59 0.54 0.67 0.76 0.71 0.69 0.76 0.58 0.50 0.43 0.42 0.35 0.25 0.21 0.16 0.14 0.14 0.15 0.16 0.16 0.24 0.38 0.52 0.50 0.50 0.60 0.66 0.63 0.53 0.45 0.41
1.35 1.25 1.05 1.01 0.89 0.92 0.99 0.82 0.75 0.74 0.66 0.66 0.71 0.69 0.74 0.76 0.79 0.86 0.79 0.74 0.67 0.66 0.65 0.50 0.46 0.42 0.32 0.30 0.28 0.28 0.30 0.26 0.28 0.34 0.45 0.50 0.49 0.59 0.71 0.73 0.67 0.59 0.58
1.11 1.23 1.30 1.20 1.09 0.99 0.97 0.95 0.86 0.74 0.78 0.81 0.83 0.79 0.77 0.82 1.00 1.05 0.99 1.00 0.96 0.96 1.02 0.86 0.72 0.71 0.61 0.57 0.52 0.52 0.52 0.50 0.50 0.54 0.65 0.62 0.55 0.57 0.70 0.80 0.81 0.82 0.82
1.12 1.20 1.35 1.31 1.23 1.17 1.17 1.17 1.05 0.95 0.93 0.97 1.03 1.08 0.97 0.96 1.15 1.21 1.31 1.31 1.27 1.24 1.27 1.27 1.14 1.10 1.00 0.94 0.84 0.68 0.66 0.75 0.83 0.78 0.80 0.85 0.74 0.69 0.67 0.72 0.78 0.86 0.89
0.98 1.10 1.16 1.25 1.25 1.33 1.46 1.52 1.32 1.29 1.27 1.30 1.26 1.29 1.18 1.16 1.31 1.48 1.55 1.56 1.54 1.51 1.58 1.63 1.57 1.41 1.31 1.20 1.10 0.93 0.85 0.87 0.97 1.07 1.04 1.09 1.16 1.04 0.90 0.82 0.80 0.85 0.90
0.85 1.12 1.24 1.34 1.47 1.49 1.58 1.73 1.71 1.73 1.71 1.66 1.66 1.59 1.63 1.66 1.64 1.73 1.82 1.90 1.95 1.99 1.99 1.93 1.92 1.70 1.63 1.55 1.37 1.25 1.10 1.06 1.08 1.09 1.14 1.10 1.11 1.08 1.04 0.93 0.85 0.83 0.89
0.93 1.18 1.39 1.54 1.74 1.96 1.98 2.07 2.02 2.17 2.33 2.35 2.42 2.34 2.19 2.22 2.26 2.34 2.31 2.33 2.35 2.41 2.30 2.28 2.26 2.06 1.89 1.84 1.55 1.38 1.27 1.21 1.18 1.13 1.10 1.05 0.98 0.89 0.90 0.92 0.92 0.85 0.86
1.38 1.42 1.51 1.63 1.80 1.97 2.26 2.52 2.66 2.74 2.97 3.07 3.14 3.26 3.24 3.18 3.26 3.26 3.17 3.06 2.91 2.77 2.62 2.55 2.39 2.22 2.05 1.95 1.80 1.49 1.18 1.03 1.05 1.02 0.98 1.00 0.99 0.90 0.86 0.87 0.84 0.78 0.78
1.64 1.63 1.70 1.79 2.01 2.26 2.61 3.00 3.41 3.60 3.76 3.75 3.77 3.95 4.05 4.07 4.19 4.29 4.17 3.95 3.76 3.38 2.95 2.63 2.42 2.29 2.09 2.02 1.92 1.81 1.41 1.12 0.92 0.79 0.81 0.84 0.85 0.87 0.80 0.75 0.71 0.71 0.71
1.67 1.76 1.85 2.12 2.50 2.94 3.39 3.85 4.24 4.52 4.57 4.51 4.26 4.28 4.40 4.39 4.43 4.60 4.58 4.31 3.91 3.35 2.84 2.64 2.52 2.35 2.19 2.09 1.94 1.92 1.64 1.36 1.07 0.81 0.70 0.65 0.66 0.64 0.62 0.61 0.60 0.62 0.61
1.67 1.85 1.97 2.28 2.80 3.26 3.71 4.33 4.81 5.07 5.23 5.33 5.12 4.82 4.64 4.48 4.36 4.28 4.15 3.76 3.29 2.93 2.65 2.54 2.48 2.27 2.21 2.06 1.95 1.71 1.50 1.31 1.14 0.92 0.75 0.64 0.58 0.53 0.50 0.49 0.49 0.49 0.50
1.61 1.67 1.77 2.17 2.75 3.47 4.17 4.68 5.14 5.49 5.61 5.54 5.19 4.82 4.42 4.10 3.71 3.37 3.04 2.80 2.64 2.42 2.20 2.08 2.02 1.94 1.81 1.69 1.66 1.60 1.50 1.32 1.08 0.89 0.80 0.72 0.67 0.60 0.52 0.48 0.46 0.45 0.44
1.33 1.50 1.75 2.09 2.78 3.53 4.12 4.59 4.93 5.25 5.27 4.99 4.58 4.12 3.81 3.43 3.01 2.63 2.44 2.21 2.06 1.87 1.64 1.49 1.44 1.46 1.48 1.51 1.52 1.48 1.42 1.35 1.21 1.07 0.94 0.83 0.80 0.77 0.66 0.59 0.56 0.52 0.50

GEFSSE_prec_meanprecacc_114.txt.gz
Total_Precipitation_Accumulation
0.05 0.02 0.03 0.03 0.06 0.07 0.06 0.08 0.11 0.12 0.11 0.10 0.10 0.11 0.12 0.10 0.08 0.07 0.06 0.09 0.13 0.19 0.23 0.24 0.21 0.19 0.19 0.19 0.15 0.11 0.09 0.08 0.11 0.12 0.15 0.18 0.19 0.19 0.19 0.19 0.23 0.22 0.13
0.04 0.01 0.02 0.01 0.03 0.06 0.06 0.09 0.10 0.11 0.12 0.13 0.13 0.15 0.15 0.10 0.08 0.07 0.07 0.10 0.15 0.20 0.21 0.21 0.19 0.17 0.17 0.15 0.11 0.09 0.08 0.09 0.15 0.21 0.24 0.26 0.30 0.24 0.21 0.20 0.26 0.30 0.20
0.03 0.01 0.02 0.01 0.02 0.04 0.06 0.09 0.09 0.09 0.11 0.12 0.13 0.12 0.10 0.08 0.07 0.06 0.06 0.10 0.15 0.16 0.15 0.12 0.10 0.11 0.11 0.09 0.07 0.08 0.08 0.12 0.20 0.31 0.52 0.46 0.35 0.23 0.22 0.20 0.18 0.16 0.19
0.03 0.01 0.01 0.01 0.02 0.03 0.04 0.07 0.10 0.10 0.10 0.10 0.11 0.09 0.08 0.08 0.07 0.07 0.08 0.10 0.13 0.12 0.09 0.07 0.07 0.07 0.08 0.07 0.06 0.07 0.10 0.16 0.28 0.48 0.91 0.71 0.46 0.30 0.25 0.22 0.19 0.15 0.17
0.03 0.02 0.02 0.02 0.03 0.05 0.04 0.04 0.09 0.12 0.12 0.11 0.11 0.11 0.11 0.10 0.09 0.09 0.09 0.11 0.11 0.11 0.12 0.12 0.10 0.07 0.06 0.07 0.07 0.09 0.15 0.23 0.41 0.75 1.18 1.02 0.78 0.51 0.32 0.28 0.30 0.24 0.21
0.05 0.03 0.03 0.04 0.04 0.07 0.07 0.06 0.07 0.10 0.13 0.14 0.14 0.14 0.13 0.13 0.11 0.09 0.10 0.10 0.11 0.12 0.15 0.17 0.13 0.07 0.06 0.06 0.07 0.12 0.19 0.31 0.50 0.84 1.28 1.23 0.87 0.53 0.37 0.34 0.34 0.29 0.24
0.10 0.06 0.05 0.06 0.06 0.08 0.09 0.09 0.10 0.09 0.12 0.16 0.16 0.14 0.13 0.13 0.12 0.12 0.12 0.11 0.12 0.16 0.18 0.15 0.09 0.05 0.05 0.06 0.09 0.13 0.22 0.39 0.58 1.03 1.35 1.18 1.03 0.62 0.43 0.39 0.38 0.31 0.23
0.15 0.10 0.09 0.11 0.09 0.09 0.12 0.13 0.16 0.17 0.16 0.18 0.17 0.15 0.13 0.12 0.13 0.15 0.14 0.14 0.16 0.20 0.19 0.10 0.05 0.03 0.03 0.04 0.07 0.12 0.23 0.33 0.49 1.00 1.33 1.03 0.82 0.55 0.41 0.39 0.36 0.30 0.25
0.22 0.19 0.16 0.14 0.12 0.13 0.15 0.14 0.17 0.20 0.19 0.17 0.16 0.18 0.18 0.19 0.19 0.18 0.17 0.17 0.19 0.20 0.14 0.07 0.04 0.03 0.03 0.03 0.04 0.08 0.17 0.30 0.51 0.73 0.80 0.77 0.64 0.50 0.37 0.27 0.21 0.19 0.18
0.39 0.33 0.26 0.23 0.21 0.15 0.12 0.15 0.17 0.20 0.22 0.18 0.15 0.17 0.19 0.18 0.16 0.16 0.14 0.15 0.16 0.15 0.11 0.07 0.05 0.04 0.03 0.02 0.03 0.06 0.12 0.22 0.32 0.56 0.81 0.69 0.55 0.52 0.47 0.32 0.20 0.15 0.15
0.58 0.53 0.33 0.30 0.32 0.23 0.14 0.12 0.15 0.18 0.19 0.15 0.12 0.13 0.13 0.21 0.26 0.23 0.15 0.16 0.14 0.13 0.11 0.09 0.06 0.04 0.03 0.02 0.03 0.05 0.07 0.13 0.30 0.61 0.88 0.73 0.58 0.58 0.51 0.39 0.26 0.21 0.17
0.79 0.75 0.60 0.40 0.34 0.34 0.23 0.20 0.19 0.16 0.16 0.15 0.19 0.17 0.21 0.39 0.49 0.38 0.35 0.27 0.20 0.17 0.14 0.12 0.09 0.06 0.04 0.03 0.02 0.04 0.05 0.12 0.33 0.62 0.67 0.56 0.56 0.61 0.62 0.48 0.33 0.26 0.23
1.05 0.85 0.88 0.72 0.56 0.61 0.58 0.42 0.34 0.30 0.33 0.30 0.39 0.40 0.47 0.58 0.52 0.50 0.58 0.41 0.30 0.23 0.21 0.20 0.11 0.09 0.08 0.08 0.08 0.06 0.08 0.14 0.30 0.49 0.54 0.52 0.56 0.66 0.70 0.58 0.44 0.37 0.34
1.42 1.16 1.02 0.96 0.81 0.78 0.83 0.69 0.57 0.51 0.52 0.52 0.60 0.55 0.69 0.77 0.72 0.70 0.76 0.58 0.51 0.44 0.44 0.37 0.27 0.23 0.17 0.14 0.14 0.16 0.17 0.18 0.26 0.39 0.54 0.55 0.57 0.71 0.77 0.72 0.59 0.49 0.44
1.52 1.46 1.21 1.17 1.04 1.03 1.11 0.93 0.82 0.80 0.70 0.68 0.74 0.72 0.77 0.80 0.82 0.89 0.81 0.75 0.69 0.68 0.68 0.54 0.49 0.46 0.34 0.31 0.29 0.29 0.33 0.30 0.30 0.36 0.47 0.54 0.55 0.69 0.84 0.86 0.76 0.66 0.63
1.26 1.39 1.46 1.35 1.25 1.12 1.11 1.07 0.95 0.82 0.85 0.85 0.86 0.82 0.80 0.86 1.03 1.08 1.02 1.02 0.98 1.00 1.07 0.91 0.76 0.76 0.67 0.62 0.57 0.58 0.59 0.57 0.54 0.58 0.71 0.67 0.60 0.65 0.81 0.93 0.93 0.90 0.88
1.26 1.35 1.46 1.41 1.33 1.28 1.29 1.28 1.15 1.02 0.99 1.03 1.08 1.14 1.02 1.00 1.19 1.24 1.34 1.34 1.29 1.27 1.31 1.31 1.21 1.18 1.09 1.04 0.92 0.76 0.73 0.83 0.89 0.81 0.85 0.91 0.81 0.78 0.77 0.84 0.90 0.96 0.99
1.11 1.24 1.28 1.35 1.34 1.44 1.57 1.64 1.42 1.37 1.34 1.37 1.31 1.35 1.24 1.21 1.36 1.51 1.58 1.59 1.57 1.55 1.62 1.68 1.65 1.49 1.39 1.30 1.19 1.00 0.92 0.93 1.04 1.13 1.10 1.17 1.26 1.15 1.01 0.92 0.91 0.96 1.01
0.96 1.24 1.36 1.44 1.57 1.61 1.70 1.85 1.83 1.84 1.81 1.75 1.75 1.68 1.72 1.73 1.70 1.78 1.86 1.94 1.99 2.05 2.05 1.98 1.98 1.78 1.73 1.65 1.47 1.34 1.18 1.13 1.14 1.17 1.24 1.22 1.26 1.25 1.17 1.05 0.97 0.95 1.01
0.99 1.26 1.47 1.64 1.85 2.07 2.09 2.18 2.13 2.28 2.44 2.46 2.56 2.48 2.33 2.34 2.36 2.44 2.40 2.42 2.43 2.48 2.37 2.34 2.32 2.14 1.98 1.94 1.66 1.49 1.37 1.28 1.25 1.21 1.22 1.20 1.12 1.04 1.06 1.05 1.05 0.97 0.97
1.41 1.45 1.55 1.69 1.86 2.03 2.31 2.59 2.73 2.82 3.07 3.19 3.30 3.43 3.39 3.31 3.38 3.38 3.28 3.17 3.02 2.88 2.72 2.64 2.49 2.31 2.12 2.03 1.90 1.61 1.29 1.11 1.12 1.09 1.08 1.13 1.13 1.04 1.00 1.01 0.97 0.90 0.88
1.66 1.65 1.72 1.82 2.04 2.29 2.64 3.06 3.49 3.68 3.85 3.87 3.91 4.09 4.18 4.20 4.32 4.40 4.29 4.07 3.86 3.48 3.05 2.75 2.54 2.39 2.19 2.13 2.02 1.93 1.53 1.22 1.00 0.85 0.89 0.92 0.96 0.99 0.94 0.88 0.85 0.86 0.86
1.68 1.77 1.86 2.14 2.52 2.95 3.41 3.89 4.32 4.62 4.65 4.59 4.35 4.39 4.50 4.49 4.54 4.70 4.68 4.41 4.02 3.46 2.94 2.75 2.63 2.45 2.29 2.20 2.03 2.02 1.72 1.43 1.15 0.88 0.75 0.72 0.73 0.73 0.73 0.73 0.72 0.75 0.74
1.68 1.86 1.98 2.29 2.81 3.27 3.73 4.36 4.87 5.17 5.31 5.39 5.20 4.89 4.72 4.56 4.45 4.37 4.24 3.86 3.41 3.05 2.77 2.66 2.60 2.38 2.33 2.18 2.06 1.80 1.57 1.36 1.20 0.99 0.82 0.70 0.65 0.61 0.60 0.62 0.62 0.66 0.66
1.62 1.67 1.78 2.18 2.76 3.49 4.19 4.71 5.17 5.55 5.68 5.61 5.28 4.90 4.49 4.16 3.77 3.43 3.11 2.87 2.73 2.51 2.30 2.21 2.16 2.08 1.94 1.82 1.77 1.70 1.61 1.40 1.13 0.93 0.85 0.78 0.75 0.70 0.63 0.62 0.62 0.62 0.62
1.35 1.51 1.76 2.11 2.79 3.55 4.14 4.62 4.96 5.29 5.31 5.05 4.65 4.19 3.88 3.51 3.09 2.68 2.49 2.27 2.12 1.93 1.71 1.58 1.55 1.57 1.60 1.63 1.65 1.59 1.52 1.45 1.30 1.15 1.03 0.92 0.90 0.88 0.78 0.71 0.70 0.69 0.69